[[{"header":{"parameterUnit":"m.s-1","parameterCategory":1,"la1":30.6,"la2":29.2853,"lo1":-89.7004,"lo2":-87.6739,"dy":0.0162,"dx":0.0183,"nx":112,"ny":82,"refTime":"2025-03-07T06:00:00:Z","depth":0,"parameterNumber":2,"parameterNumberName":"U-component_of_WINDS"},"data":[0.0,0.0,0.0,0.0,0.0,0.0,0.0,0.0,0.0,0.0,0.0,0.0,0.0,0.0,0.0,0.0,0.0,0.0,0.0,0.0,0.0,0.0,0.0,0.0,0.0,0.0,0.0,0.0,0.0,0.0,0.0,0.0,0.0,0.0,0.0,0.0,0.0,0.0,0.0,0.0,0.0,0.0,0.0,0.0,0.0,0.0,0.0,0.0,0.0,0.0,0.0,0.0,0.0,0.0,0.0,0.0,0.0,0.0,0.0,0.0,0.0,0.0,0.0,0.0,0.0,0.0,0.0,0.0,0.0,0.0,0.0,0.0,0.0,0.0,0.0,0.0,0.0,0.0,0.0,0.0,0.0,0.0,0.0,0.0,0.0,0.0,0.0,0.0,0.0,0.0,-5.7096,-6.0616,-6.4924,-6.7283,-6.6482,-6.481,-6.1745,-5.6906,0.0,0.0,0.0,0.0,0.0,0.0,0.0,0.0,0.0,0.0,0.0,0.0,0.0,0.0,0.0,0.0,0.0,0.0,0.0,0.0,0.0,0.0,0.0,0.0,0.0,0.0,0.0,0.0,0.0,0.0,0.0,0.0,0.0,0.0,0.0,0.0,0.0,0.0,0.0,0.0,0.0,0.0,0.0,0.0,0.0,0.0,0.0,0.0,0.0,0.0,0.0,0.0,0.0,0.0,0.0,0.0,0.0,0.0,0.0,0.0,0.0,0.0,0.0,0.0,0.0,0.0,0.0,0.0,0.0,0.0,0.0,0.0,0.0,0.0,0.0,0.0,0.0,0.0,0.0,0.0,0.0,0.0,0.0,0.0,0.0,0.0,0.0,0.0,0.0,0.0,0.0,0.0,0.0,0.0,0.0,0.0,0.0,0.0,0.0,0.0,0.0,0.0,0.0,0.0,-5.688,-6.2918,-6.5197,-6.598,-6.5183,-6.3184,-6.0446,-5.6816,0.0,0.0,0.0,0.0,0.0,0.0,0.0,0.0,0.0,0.0,0.0,0.0,0.0,0.0,0.0,0.0,0.0,0.0,0.0,0.0,0.0,0.0,0.0,0.0,0.0,0.0,0.0,0.0,0.0,0.0,0.0,0.0,0.0,0.0,0.0,0.0,0.0,0.0,0.0,0.0,0.0,0.0,0.0,0.0,0.0,0.0,0.0,0.0,0.0,0.0,0.0,0.0,0.0,0.0,0.0,0.0,0.0,0.0,0.0,0.0,0.0,0.0,0.0,0.0,0.0,0.0,0.0,0.0,0.0,0.0,0.0,0.0,0.0,0.0,0.0,0.0,0.0,0.0,0.0,0.0,0.0,0.0,0.0,0.0,0.0,0.0,0.0,0.0,0.0,0.0,0.0,0.0,0.0,0.0,0.0,0.0,0.0,0.0,0.0,0.0,0.0,0.0,0.0,-5.4412,-5.7506,-6.2294,-6.3728,-6.4085,-6.3486,-6.1701,-5.9473,-5.6778,-5.3798,0.0,0.0,0.0,0.0,0.0,0.0,0.0,0.0,0.0,0.0,0.0,0.0,0.0,0.0,0.0,0.0,0.0,0.0,0.0,0.0,0.0,0.0,0.0,0.0,0.0,0.0,0.0,0.0,0.0,0.0,0.0,0.0,0.0,0.0,0.0,0.0,0.0,0.0,0.0,0.0,0.0,0.0,0.0,0.0,0.0,0.0,0.0,0.0,0.0,0.0,0.0,0.0,0.0,0.0,0.0,0.0,0.0,0.0,0.0,0.0,0.0,0.0,0.0,0.0,0.0,0.0,0.0,0.0,0.0,0.0,0.0,0.0,0.0,0.0,0.0,0.0,0.0,0.0,0.0,0.0,0.0,0.0,0.0,0.0,0.0,0.0,0.0,0.0,0.0,0.0,0.0,0.0,0.0,0.0,0.0,0.0,0.0,0.0,0.0,0.0,0.0,0.0,-5.6292,-5.8201,-6.1097,-6.2021,-6.2276,-6.1747,-6.0165,-5.8235,-5.6009,-5.2615,0.0,0.0,0.0,0.0,0.0,0.0,0.0,0.0,0.0,0.0,0.0,0.0,0.0,0.0,0.0,0.0,0.0,0.0,0.0,0.0,0.0,0.0,0.0,0.0,0.0,0.0,0.0,0.0,0.0,0.0,0.0,0.0,0.0,0.0,0.0,0.0,0.0,0.0,0.0,0.0,0.0,0.0,0.0,0.0,0.0,0.0,0.0,0.0,0.0,0.0,0.0,0.0,0.0,0.0,0.0,0.0,0.0,0.0,0.0,0.0,0.0,0.0,0.0,0.0,0.0,0.0,0.0,0.0,0.0,0.0,0.0,0.0,0.0,0.0,0.0,0.0,0.0,0.0,0.0,0.0,0.0,0.0,0.0,0.0,0.0,0.0,0.0,0.0,0.0,0.0,0.0,0.0,0.0,0.0,0.0,0.0,0.0,0.0,0.0,0.0,0.0,0.0,-5.5588,-5.8589,-6.0294,-6.0952,-6.088,-6.0045,-5.844,-5.6421,-5.3867,-5.0152,0.0,0.0,0.0,0.0,0.0,0.0,0.0,0.0,0.0,0.0,0.0,0.0,0.0,0.0,0.0,0.0,0.0,0.0,0.0,0.0,0.0,0.0,0.0,0.0,0.0,0.0,0.0,0.0,0.0,0.0,0.0,0.0,0.0,0.0,0.0,0.0,0.0,0.0,0.0,0.0,0.0,0.0,0.0,0.0,0.0,0.0,0.0,0.0,0.0,0.0,0.0,0.0,0.0,0.0,0.0,0.0,0.0,0.0,0.0,0.0,0.0,0.0,0.0,0.0,0.0,0.0,0.0,0.0,0.0,0.0,0.0,0.0,0.0,0.0,0.0,0.0,0.0,0.0,0.0,0.0,0.0,0.0,0.0,0.0,0.0,0.0,0.0,0.0,0.0,0.0,0.0,0.0,0.0,0.0,0.0,0.0,0.0,0.0,0.0,0.0,0.0,0.0,-5.4179,-5.6748,0.0,-5.9812,-5.9486,-5.8417,-5.7713,-5.5816,-5.2157,0.0,0.0,0.0,0.0,0.0,0.0,0.0,0.0,0.0,0.0,0.0,0.0,0.0,0.0,0.0,0.0,0.0,0.0,0.0,0.0,0.0,0.0,0.0,0.0,0.0,0.0,0.0,0.0,0.0,0.0,0.0,0.0,0.0,0.0,0.0,0.0,0.0,0.0,0.0,0.0,0.0,0.0,0.0,0.0,0.0,0.0,0.0,0.0,0.0,0.0,0.0,0.0,0.0,0.0,0.0,0.0,0.0,0.0,0.0,0.0,0.0,0.0,0.0,0.0,0.0,0.0,0.0,0.0,0.0,0.0,0.0,0.0,0.0,0.0,0.0,0.0,0.0,0.0,0.0,0.0,0.0,0.0,0.0,0.0,0.0,0.0,0.0,0.0,0.0,0.0,0.0,0.0,0.0,0.0,0.0,0.0,0.0,0.0,0.0,0.0,0.0,0.0,-5.1096,-5.3702,-5.6088,0.0,-5.8597,-5.8074,-5.7281,-5.6331,-5.4242,-5.0538,0.0,0.0,0.0,0.0,0.0,0.0,0.0,0.0,0.0,0.0,0.0,0.0,0.0,0.0,0.0,0.0,0.0,0.0,0.0,0.0,0.0,0.0,0.0,0.0,0.0,0.0,0.0,0.0,0.0,0.0,0.0,0.0,0.0,0.0,0.0,0.0,0.0,0.0,0.0,0.0,0.0,0.0,0.0,0.0,0.0,0.0,0.0,0.0,0.0,0.0,0.0,0.0,0.0,0.0,0.0,0.0,0.0,0.0,0.0,0.0,0.0,0.0,0.0,0.0,0.0,0.0,0.0,0.0,0.0,0.0,0.0,0.0,0.0,0.0,0.0,0.0,0.0,0.0,0.0,0.0,0.0,0.0,0.0,0.0,0.0,0.0,0.0,0.0,0.0,0.0,0.0,0.0,0.0,0.0,0.0,0.0,0.0,0.0,0.0,0.0,0.0,0.0,-5.0472,-5.4289,-5.7079,-5.7886,-5.7262,-5.6785,-5.6785,-5.4088,-5.1399,0.0,0.0,0.0,0.0,0.0,0.0,0.0,0.0,0.0,0.0,0.0,0.0,0.0,0.0,0.0,0.0,0.0,0.0,0.0,0.0,0.0,0.0,0.0,0.0,0.0,0.0,0.0,0.0,0.0,0.0,0.0,0.0,0.0,0.0,0.0,0.0,0.0,0.0,0.0,0.0,0.0,0.0,0.0,0.0,0.0,0.0,0.0,0.0,0.0,0.0,0.0,0.0,0.0,0.0,0.0,0.0,0.0,0.0,0.0,0.0,0.0,0.0,0.0,0.0,0.0,0.0,0.0,0.0,0.0,0.0,0.0,0.0,0.0,0.0,0.0,0.0,0.0,0.0,0.0,0.0,0.0,0.0,0.0,0.0,0.0,0.0,0.0,0.0,0.0,0.0,0.0,0.0,0.0,0.0,0.0,0.0,0.0,0.0,0.0,0.0,0.0,0.0,0.0,-5.0325,-5.3812,-5.6271,-5.7079,-5.6932,-5.6345,-5.5207,-5.4301,-5.1871,-4.7319,0.0,0.0,0.0,0.0,0.0,0.0,0.0,0.0,0.0,0.0,0.0,0.0,0.0,0.0,0.0,0.0,0.0,0.0,0.0,0.0,0.0,0.0,0.0,0.0,0.0,0.0,0.0,0.0,0.0,0.0,0.0,0.0,0.0,0.0,0.0,0.0,0.0,0.0,0.0,0.0,0.0,0.0,0.0,0.0,0.0,0.0,0.0,0.0,0.0,0.0,0.0,0.0,0.0,0.0,0.0,0.0,0.0,0.0,0.0,0.0,0.0,0.0,0.0,0.0,0.0,0.0,0.0,0.0,0.0,0.0,0.0,0.0,0.0,0.0,0.0,0.0,0.0,0.0,0.0,0.0,0.0,0.0,0.0,0.0,0.0,0.0,0.0,0.0,0.0,0.0,0.0,0.0,0.0,0.0,0.0,0.0,0.0,0.0,0.0,0.0,0.0,0.0,-4.9811,-5.3115,-5.5427,-5.6235,-5.6014,-5.5464,-5.4473,-5.4063,-5.174,-4.689,0.0,0.0,0.0,0.0,0.0,0.0,0.0,0.0,0.0,0.0,0.0,0.0,0.0,0.0,0.0,0.0,0.0,0.0,0.0,0.0,0.0,0.0,0.0,0.0,0.0,0.0,0.0,0.0,0.0,0.0,0.0,0.0,0.0,0.0,0.0,0.0,0.0,0.0,0.0,0.0,0.0,0.0,0.0,0.0,0.0,0.0,0.0,0.0,0.0,0.0,0.0,0.0,0.0,0.0,0.0,0.0,0.0,0.0,0.0,0.0,0.0,0.0,0.0,0.0,0.0,0.0,0.0,0.0,0.0,0.0,0.0,0.0,0.0,0.0,0.0,0.0,0.0,0.0,0.0,0.0,0.0,0.0,0.0,0.0,0.0,0.0,0.0,0.0,0.0,0.0,0.0,0.0,0.0,0.0,0.0,0.0,0.0,0.0,0.0,0.0,0.0,0.0,-4.9077,-5.2307,-5.4583,-5.539,-5.484,-5.4363,-5.4289,-5.3506,-5.1318,-4.7365,0.0,0.0,0.0,0.0,0.0,0.0,0.0,0.0,0.0,0.0,0.0,0.0,0.0,0.0,0.0,0.0,0.0,0.0,0.0,0.0,0.0,0.0,0.0,0.0,0.0,0.0,0.0,0.0,0.0,0.0,0.0,0.0,0.0,0.0,0.0,0.0,0.0,0.0,0.0,0.0,0.0,0.0,0.0,0.0,0.0,0.0,0.0,0.0,0.0,0.0,0.0,0.0,0.0,0.0,0.0,0.0,0.0,0.0,0.0,0.0,-5.2729,0.0,0.0,0.0,0.0,0.0,0.0,0.0,0.0,0.0,0.0,0.0,0.0,0.0,0.0,0.0,0.0,0.0,0.0,0.0,0.0,0.0,0.0,0.0,0.0,0.0,0.0,0.0,0.0,0.0,0.0,0.0,0.0,0.0,0.0,0.0,0.0,0.0,0.0,0.0,0.0,0.0,-4.8986,-5.1867,-5.3775,-5.4583,-5.4509,-5.4142,-5.3518,-5.3256,-5.1694,-4.817,-4.5535,0.0,0.0,0.0,0.0,0.0,0.0,0.0,0.0,0.0,0.0,0.0,0.0,0.0,0.0,0.0,0.0,0.0,0.0,0.0,0.0,0.0,0.0,0.0,0.0,0.0,0.0,0.0,0.0,0.0,0.0,0.0,0.0,0.0,0.0,0.0,0.0,0.0,0.0,0.0,0.0,0.0,0.0,0.0,0.0,0.0,0.0,0.0,0.0,0.0,0.0,0.0,0.0,0.0,0.0,0.0,0.0,0.0,0.0,0.0,0.0,-5.3387,0.0,0.0,0.0,0.0,0.0,0.0,0.0,0.0,0.0,0.0,0.0,0.0,0.0,0.0,0.0,0.0,0.0,0.0,0.0,0.0,0.0,0.0,0.0,0.0,0.0,0.0,0.0,0.0,0.0,0.0,0.0,0.0,0.0,0.0,0.0,0.0,0.0,0.0,0.0,0.0,-4.8379,-5.1096,-5.2931,-5.3739,-5.3812,-5.3665,-5.3261,-5.3082,-5.1752,-4.8859,-4.6314,0.0,0.0,0.0,0.0,0.0,0.0,0.0,0.0,0.0,0.0,0.0,0.0,0.0,0.0,0.0,0.0,0.0,0.0,0.0,0.0,0.0,0.0,0.0,0.0,0.0,0.0,0.0,0.0,0.0,0.0,0.0,0.0,0.0,0.0,0.0,0.0,0.0,0.0,0.0,0.0,0.0,0.0,0.0,0.0,0.0,0.0,0.0,0.0,0.0,0.0,0.0,0.0,0.0,-5.84,-5.9245,-6.1006,-6.0382,-6.0493,-6.108,-5.7593,-5.6124,-5.6051,-5.3775,0.0,0.0,0.0,0.0,0.0,0.0,0.0,0.0,0.0,0.0,0.0,0.0,0.0,0.0,0.0,0.0,0.0,0.0,0.0,0.0,0.0,0.0,0.0,0.0,-4.9297,-4.8876,0.0,0.0,0.0,0.0,0.0,0.0,0.0,0.0,0.0,0.0,0.0,0.0,-4.7976,-5.0435,-5.216,-5.3072,-5.3182,-5.3146,-5.3124,-5.2806,-5.1675,-4.9523,-4.6973,-4.4317,0.0,0.0,0.0,0.0,0.0,0.0,0.0,0.0,0.0,0.0,0.0,0.0,0.0,0.0,0.0,0.0,0.0,0.0,0.0,0.0,0.0,0.0,0.0,0.0,0.0,0.0,0.0,0.0,0.0,0.0,0.0,0.0,-5.8634,-5.8854,0.0,0.0,0.0,0.0,0.0,0.0,0.0,0.0,0.0,0.0,0.0,0.0,0.0,-5.829,-5.9612,-6.1117,-6.163,-6.1153,-6.3209,-6.398,-6.3613,-6.3503,-6.3906,-6.4604,-6.3356,0.0,-5.8597,-5.6895,0.0,0.0,0.0,0.0,0.0,0.0,0.0,0.0,0.0,0.0,0.0,0.0,0.0,0.0,0.0,0.0,0.0,0.0,0.0,0.0,0.0,0.0,-5.1206,-5.0618,-5.0545,-5.0508,0.0,-4.7682,-4.4966,-4.2323,-4.1368,0.0,0.0,0.0,0.0,0.0,0.0,0.0,-4.871,-5.0288,-5.1495,-5.2877,-5.3039,-5.2995,-5.285,-5.2171,-5.1304,-5.0235,-4.7886,-4.5972,-4.4749,-4.1071,0.0,0.0,0.0,0.0,0.0,0.0,0.0,0.0,0.0,0.0,0.0,0.0,0.0,0.0,0.0,0.0,0.0,0.0,0.0,0.0,0.0,0.0,0.0,0.0,0.0,0.0,0.0,0.0,0.0,-5.8804,-6.0566,-6.0566,-6.086,-6.0272,0.0,0.0,0.0,0.0,0.0,0.0,0.0,0.0,0.0,-5.9465,-6.0272,-6.1263,-6.2475,-6.3649,-6.4273,-6.4383,-6.5448,-6.6035,-6.6109,-6.6109,-6.6329,-6.6623,-6.6256,-6.5044,-6.3062,-6.0052,-5.7629,-5.5537,0.0,0.0,0.0,0.0,-5.2307,-5.183,-5.3188,-5.2784,0.0,-5.0655,0.0,0.0,0.0,0.0,0.0,0.0,0.0,0.0,0.0,0.0,-5.2013,-5.2123,-5.216,-5.2013,-5.1573,-5.0325,-4.8343,0.0,-4.4048,-4.2837,-3.9753,0.0,0.0,0.0,0.0,-4.5076,-4.906,-5.0288,-5.1222,-5.2318,-5.2428,-5.2223,-5.1721,-5.1192,-5.056,-4.9731,-4.8571,-4.7363,-4.6033,-4.3899,-4.1361,0.0,0.0,0.0,0.0,0.0,0.0,0.0,0.0,0.0,0.0,0.0,0.0,0.0,0.0,0.0,0.0,0.0,0.0,0.0,0.0,0.0,0.0,0.0,0.0,0.0,0.0,0.0,0.0,-6.0272,-6.1814,-6.163,-6.2144,-6.1594,0.0,0.0,0.0,0.0,0.0,0.0,-6.0065,-6.0322,-6.1117,-6.2511,-6.3319,-6.4163,-6.5007,-6.5595,-6.6219,-6.6806,-6.6806,-6.71,-6.7687,-6.7687,-6.7687,-6.7687,-6.7687,-6.7247,-6.6219,-6.2548,-5.9832,-5.785,-5.6014,-5.495,-5.4473,-5.4876,-5.4656,-5.4363,-5.5941,-5.5721,-5.4546,-5.3555,-5.2417,-5.0802,-4.7572,0.0,0.0,0.0,0.0,-5.0492,-5.1703,-5.216,-5.2454,-5.3078,-5.3203,-5.3041,-5.2454,-5.216,-5.0986,0.0,-4.6654,-4.5296,-4.1515,0.0,0.0,0.0,0.0,-4.6104,-4.9206,-5.0105,-5.0802,-5.1552,-5.1642,-5.1364,-5.0717,-5.0295,-4.9789,-4.9185,-4.8799,-4.804,-4.6866,-4.6033,-4.3916,-4.0363,0.0,0.0,0.0,0.0,0.0,0.0,0.0,0.0,0.0,0.0,0.0,0.0,0.0,0.0,0.0,0.0,0.0,0.0,0.0,0.0,0.0,0.0,0.0,0.0,0.0,0.0,0.0,0.0,0.0,-6.1704,-6.3686,0.0,0.0,0.0,0.0,-6.2487,-6.2548,-6.256,-6.2622,-6.3392,-6.4237,-6.5081,-6.5888,-6.6696,-6.7504,-6.754,-6.7577,-6.7614,-6.7614,-6.765,-6.7687,-6.7687,-6.7687,-6.7687,-6.7687,-6.7247,-6.6292,-6.3759,-6.2181,-6.1117,-5.8731,-5.7776,-5.7666,-5.6969,-5.6675,-5.6528,-5.5868,-5.5611,-5.5647,-5.6345,-5.4987,-5.2894,-5.194,-5.0602,0.0,0.0,-5.1206,-5.1903,-5.1977,-5.2564,-5.313,-5.3167,-5.3203,-5.3167,-5.313,-5.2527,-5.1463,0.0,-4.8746,-4.7846,-4.6856,0.0,-4.5021,-4.6562,-4.625,-4.6728,-4.928,-4.9647,-4.9938,-5.0586,-5.0659,-5.0556,-5.0271,-4.9595,-4.9095,-4.8931,-4.8206,-4.7735,-4.7642,-4.6866,-4.5273,-4.2756,-4.0454,0.0,0.0,0.0,0.0,0.0,0.0,0.0,0.0,0.0,0.0,0.0,0.0,0.0,0.0,0.0,0.0,0.0,0.0,0.0,0.0,0.0,0.0,0.0,0.0,0.0,0.0,0.0,0.0,-6.5375,-6.5852,0.0,-6.4824,-6.453,-6.442,-6.442,-6.442,-6.464,-6.5154,-6.5485,-6.5999,-6.6806,-6.71,-6.7393,-6.7687,-6.7687,-6.7687,-6.7687,-6.7687,-6.7687,-6.7687,-6.7687,-6.7687,-6.7687,-6.7687,-6.7247,-6.6402,-6.5007,-6.3613,-6.2254,-6.086,-6.0015,-5.9501,-5.9208,-5.8804,-5.8304,-5.8033,-5.7593,-5.7116,-5.6895,-5.517,-5.313,-5.2858,-5.2013,-5.1226,-5.1499,-5.216,-5.2784,-5.2784,-5.3004,-5.3203,-5.3203,-5.3203,-5.3203,-5.3203,-5.2968,-5.2454,-5.1373,-5.0068,-4.871,-4.7333,-4.7039,-4.6874,-4.6397,-4.6985,-4.7976,-4.9427,-4.961,-4.9701,-4.9918,-4.9874,-4.9574,-4.8965,-4.8566,-4.8317,-4.8275,-4.7901,-4.7699,-4.7699,-4.7425,-4.6142,-4.3715,-4.234,-3.9186,0.0,0.0,0.0,0.0,0.0,0.0,0.0,0.0,0.0,0.0,0.0,0.0,0.0,0.0,0.0,0.0,0.0,0.0,0.0,0.0,0.0,0.0,0.0,0.0,0.0,0.0,-6.5081,-6.6696,-6.7136,-6.71,-6.6549,-6.6512,-6.6402,-6.6145,-6.6109,-6.6329,-6.688,-6.688,-6.7136,-6.7677,-6.7687,-6.7687,-6.7687,-6.7687,-6.7687,-6.7687,-6.7687,-6.7687,-6.7687,-6.7687,-6.754,-6.7283,-6.7283,-6.6843,-6.6035,-6.5228,-6.4237,-6.3172,-6.2328,-6.1667,-6.1153,-6.0603,-6.0052,-5.9515,-5.8988,-5.8437,-5.7886,-5.7079,-5.5537,-5.3959,-5.3702,-5.3041,-5.2417,-5.2417,-5.2784,-5.3203,-5.3203,-5.3203,-5.3203,-5.3203,-5.3203,-5.3203,-5.3203,-5.3203,-5.3041,-5.2527,-5.1316,-4.9884,-4.8233,-4.8379,-4.8269,-4.6911,-4.7609,-4.8526,-4.9077,-4.915,-4.915,-4.915,-4.9091,-4.8793,-4.8184,-4.7753,-4.7522,-4.7441,-4.7089,-4.6902,-4.6902,-4.6649,-4.5743,-4.4114,-4.252,-3.9767,-3.582,0.0,0.0,0.0,0.0,0.0,0.0,0.0,0.0,0.0,0.0,0.0,0.0,0.0,0.0,0.0,0.0,0.0,0.0,0.0,0.0,0.0,0.0,0.0,-6.1484,-6.3833,-6.5411,-6.5485,-6.754,-6.8385,-6.6916,-6.8091,-6.8678,-6.7907,-6.776,-6.7724,-6.7724,-6.7687,-6.7687,-6.7687,-6.7687,-6.7687,-6.7687,-6.7687,-6.7687,-6.7687,-6.7687,-6.7687,-6.765,-6.765,-6.721,-6.6476,-6.6476,-6.5999,-6.5191,-6.442,-6.409,-6.398,-6.3135,-6.278,-6.2597,-6.1043,-6.0419,-6.0126,-5.8547,-5.7997,-5.7886,-5.7079,-5.6271,-5.5427,-5.462,-5.3849,-5.3203,-5.3203,-5.3203,-5.3203,-5.3203,-5.3203,-5.3203,-5.3203,-5.3203,-5.3203,-5.3203,-5.3203,-5.3203,-5.3203,-5.2564,-5.1557,-4.9904,-4.961,-4.9317,-4.8416,-4.8306,0.0,-4.8306,-4.8306,-4.8306,-4.8306,-4.8287,-4.8209,-4.8032,-4.7262,-4.6726,-4.6524,-4.5743,-4.5309,-4.5309,-4.4548,-4.4114,-4.4077,-4.0999,-3.9024,-3.8227,0.0,0.0,0.0,0.0,0.0,0.0,0.0,0.0,0.0,0.0,0.0,0.0,0.0,0.0,0.0,0.0,0.0,0.0,0.0,0.0,0.0,-6.0358,-6.2377,-6.4053,-6.5852,-6.7687,-6.9449,-7.0229,-7.1174,-7.2459,-7.1431,-7.0807,-7.1138,-6.9559,-6.8568,-6.8568,-6.8017,-6.7687,-6.7687,-6.7687,-6.7687,-6.7687,-6.7687,-6.7687,-6.7687,-6.7687,-6.7393,-6.6843,-6.6843,-6.6402,-6.5632,-6.5632,-6.5191,-6.442,-6.42,-6.3723,-6.3135,-6.289,-6.278,-6.2695,-6.1667,-6.0529,-5.9368,-5.8364,-5.7997,-5.7886,-5.7079,-5.6271,-5.5427,-5.462,-5.3849,-5.3203,-5.3203,-5.3203,-5.3203,-5.3203,-5.3203,-5.3203,-5.3203,-5.3203,-5.3203,-5.3203,-5.3203,-5.3203,-5.3203,-5.3041,-5.238,-5.0765,-5.0014,-4.9317,-4.8416,-4.8306,0.0,-4.8306,-4.8306,-4.8306,-4.8306,-4.8285,-4.8207,-4.8148,-4.7279,-4.6723,-4.6662,-4.5784,-4.5309,-4.5309,-4.5091,-4.4693,-4.4114,-4.0999,-3.9295,0.0,0.0,0.0,0.0,0.0,0.0,0.0,0.0,0.0,0.0,0.0,0.0,0.0,0.0,0.0,0.0,0.0,0.0,0.0,0.0,0.0,0.0,-6.245,-6.442,-6.6072,-6.7393,-6.8972,-7.1036,-7.1615,-7.2496,-7.4221,-7.2826,-7.1725,-7.1505,-6.9889,-6.8752,-6.8421,-6.7944,-6.7687,-6.7687,-6.7687,-6.7687,-6.7687,-6.7687,-6.7687,-6.7687,-6.7357,-6.6953,-6.6476,-6.6145,-6.5558,-6.4787,-6.4787,-6.431,-6.3576,-6.3576,-6.3282,0.0,0.0,0.0,0.0,0.0,-5.9795,-5.8621,-5.8143,-5.7997,-5.7886,-5.7079,-5.6271,-5.5427,-5.462,-5.3849,-5.3203,-5.3203,-5.3203,-5.3203,-5.3203,-5.3203,-5.3203,-5.3203,-5.3203,-5.3203,-5.3203,-5.3203,-5.3203,-5.3203,-5.3203,0.0,-5.1096,-5.0398,-4.9701,-4.8489,-4.8306,-4.8306,-4.8306,-4.8306,-4.8306,-4.8306,-4.8285,-4.8246,-4.8207,-4.7299,0.0,0.0,0.0,-4.4476,-4.3824,-4.4114,0.0,0.0,0.0,0.0,0.0,0.0,0.0,0.0,-3.9873,-3.9699,0.0,0.0,0.0,0.0,0.0,0.0,0.0,0.0,0.0,0.0,0.0,0.0,0.0,0.0,0.0,0.0,-6.442,-6.5962,-6.7467,-6.8385,-6.9522,-7.1109,-7.2092,-7.2936,-7.3744,-7.3193,-7.2092,-7.0477,-6.9559,-6.8678,-6.7871,0.0,0.0,0.0,0.0,-6.7687,-6.7687,-6.7687,-6.7677,-6.754,-6.6843,-6.6402,-6.6219,-6.5485,-6.4714,-6.3943,-6.3943,-6.3503,-6.278,-6.278,-6.2743,-6.2658,-6.2658,-6.2108,-6.1153,-5.9735,-5.8694,-5.7997,-5.7997,0.0,0.0,-5.6969,-5.6161,-5.5449,-5.4546,-5.3775,-5.3203,-5.3203,-5.3203,-5.3203,-5.3203,-5.3203,-5.3203,-5.3203,-5.3203,-5.3203,-5.3203,-5.3203,-5.3203,-5.3203,-5.3203,-5.2711,-5.1096,-5.0802,-5.0251,-4.8563,-4.8306,-4.8306,-4.8306,-4.8306,-4.8306,-4.8306,0.0,0.0,-4.8207,-4.7358,-4.6474,-4.5704,-4.4752,-4.3607,-4.2175,-4.2774,-4.3191,-4.3191,-4.386,-4.4584,-4.5309,-4.5309,-4.5405,-4.5539,-4.1299,-4.0819,0.0,0.0,0.0,0.0,0.0,0.0,0.0,0.0,0.0,0.0,0.0,0.0,0.0,0.0,0.0,-6.4383,-6.5632,-6.6586,-6.754,-6.8385,-6.9522,-7.1109,-7.2569,-7.378,-7.4588,-7.4551,-7.378,-7.2165,-7.0697,-6.9522,-6.8715,-6.8054,-6.7687,-6.7687,-6.7687,-6.7687,-6.7687,-6.7687,-6.7357,-6.6733,0.0,0.0,-6.4567,-6.4383,-6.387,-6.3062,-6.3062,-6.2989,-6.278,-6.278,-6.2438,-6.1814,-6.1814,-6.0933,-5.9648,-5.9294,-5.8694,-5.7997,-5.7997,-5.7997,-5.774,-5.6308,-5.5721,-5.5317,-5.3885,-5.3314,0.0,-5.3203,-5.3203,-5.3203,-5.3203,-5.3203,-5.3203,-5.3203,-5.3203,-5.3203,-5.3203,-5.3203,-5.3203,-5.3203,-5.3203,-5.2711,-5.1096,-5.0802,-5.0251,-4.8563,-4.8306,-4.8306,-4.8306,-4.8306,-4.8306,-4.8306,-4.8306,-4.8267,-4.8207,-4.7358,-4.6693,-4.6484,-4.5586,-4.4947,-4.4621,-4.4765,-4.4838,-4.4838,-4.4983,-4.5128,-4.5309,-4.5309,-4.5695,-4.6412,-4.4927,-4.4638,0.0,0.0,0.0,0.0,0.0,0.0,0.0,0.0,0.0,0.0,0.0,-5.9315,-6.1263,0.0,-6.4127,-6.6182,-6.6843,-6.7247,-6.7614,-6.8054,-6.8898,-7.0513,-7.1762,-7.2973,-7.4184,-7.3597,-7.2789,-7.1982,-7.0403,-6.9155,-6.8348,-6.7907,-6.7687,-6.7687,-6.7687,-6.7687,-6.7687,-6.7283,-6.688,-6.6476,-6.5668,-6.4861,-6.409,-6.3649,-6.3209,-6.278,-6.278,-6.278,-6.2743,-6.2365,-6.1484,-6.0419,-6.0419,-5.9905,-5.9148,-5.8767,-5.8364,-5.7997,-5.7997,-5.7997,-5.7813,-5.6602,-5.5941,-5.5354,-5.4179,-5.3518,-5.3203,-5.3203,-5.3203,-5.3203,-5.3203,-5.3203,-5.3203,-5.3203,-5.3203,-5.3203,-5.3203,-5.3203,-5.3203,-5.3203,-5.3203,-5.2711,-5.1096,-5.0802,-5.0251,-4.8563,-4.8306,-4.8306,-4.8306,-4.8306,-4.8306,-4.8306,-4.8306,-4.8287,-4.8229,-4.7341,-4.6766,-4.6702,-4.5804,-4.5309,-4.5309,-4.5309,-4.549,-4.5888,-4.5888,-4.6106,-4.6504,-4.6504,-4.6742,-4.7202,-4.6928,-4.6883,0.0,0.0,0.0,0.0,0.0,0.0,0.0,0.0,-5.8578,-5.9301,-6.0709,-6.2352,-6.4225,-6.5228,-6.6182,-6.7467,-6.7687,-6.7687,-6.7687,-6.7687,-6.8164,-6.9486,-7.0477,-7.1578,-7.2863,-7.1982,-7.1146,-7.0881,-6.9633,-6.8568,-6.7724,-6.7687,-6.7687,-6.7687,-6.7834,-6.776,-6.7467,-6.699,-6.6512,-6.5999,-6.4714,-6.4016,-6.3796,-6.3135,-6.278,-6.278,-6.278,-6.2732,-6.2511,-6.1704,-6.0529,-5.9184,-5.9038,-5.8964,-5.8914,-5.8253,-5.7997,-5.7997,-5.7997,-5.7997,-5.785,-5.6895,-5.6124,-5.5427,-5.4473,-5.3702,-5.3203,-5.3203,-5.3203,-5.3203,-5.3203,-5.3203,-5.3203,-5.3203,-5.3203,-5.3203,-5.3203,-5.3203,-5.3203,-5.3203,-5.3203,-5.2747,-5.1279,-5.0912,-5.0251,-4.8563,-4.8306,-4.8306,-4.8306,-4.8306,-4.8306,-4.8306,-4.8306,-4.8287,-4.8267,-4.7507,-4.7004,-4.6961,-4.6243,-4.582,-4.582,-4.578,-4.6069,-4.6721,-4.6721,-4.7047,-4.7699,-4.7699,-4.772,-4.7762,-4.7911,-4.8052,-5.6543,-5.6097,-5.6469,-5.7043,-5.7823,-5.9303,0.0,0.0,-6.3067,-6.4389,-6.5396,-6.607,-6.6208,-6.688,-6.7467,-6.765,-6.7687,-6.7687,-6.7687,-6.7687,-6.776,-6.7944,-6.9302,-7.0293,-7.0477,-7.0991,-7.0734,-6.9302,-6.9009,-6.8568,-6.7724,-6.7687,-6.7687,-6.7687,-6.8385,-6.8091,-6.6659,-6.7247,-6.6476,-6.4347,-6.4163,-6.3686,-6.2952,-6.2842,-6.278,-6.278,-6.278,-6.2401,-6.1667,-6.086,-6.0015,-5.9111,-5.84,-5.8143,-5.8107,-5.8033,-5.7997,-5.7997,-5.7997,-5.7997,-5.774,-5.6235,-5.5647,-5.5317,-5.3812,-5.3298,-5.3203,-5.3203,-5.3203,-5.3203,-5.3203,-5.3203,-5.3203,-5.3203,-5.3203,-5.3203,-5.3203,-5.3203,-5.3203,-5.3203,-5.3203,-5.2931,-5.2013,-5.1279,-5.0251,-4.8563,-4.8306,-4.8306,-4.8306,-4.8306,-4.8306,-4.8306,-4.8306,-4.8267,-4.8207,-4.7999,-4.7846,-4.7882,-4.7688,-4.7627,-4.7627,-4.7487,-4.7461,-4.7554,-4.7591,-4.7627,-4.7699,-4.7699,-4.7804,-4.7972,-4.7992,-4.8012,-6.0444,-6.0221,0.0,0.0,-6.2041,-6.3297,-6.4369,-6.5157,-6.5801,-6.6235,-6.701,-6.7564,-6.7358,-6.76,-6.7794,0.0,-6.7687,-6.7687,-6.7687,-6.7687,-6.7687,-6.7687,-6.8274,-6.8898,-6.9376,-6.9265,-6.9119,-6.8935,-6.8458,-6.8054,-6.7724,-6.7687,-6.7907,-6.8385,-6.7834,-6.7393,-6.7173,-6.6145,-6.5081,-6.409,-6.3576,-6.3172,-6.278,-6.278,-6.278,-6.2743,-6.2291,-6.1667,-6.086,-6.0052,-5.9245,-5.8474,-5.8143,-5.7997,-5.7997,-5.7997,-5.7997,-5.7997,-5.7997,-5.7703,-5.7189,-5.6528,-5.5647,-5.4766,-5.4106,-5.3592,-5.3203,-5.3203,-5.3203,-5.3203,-5.3203,-5.3203,-5.3203,-5.3203,-5.3203,-5.3203,-5.3203,-5.3203,-5.3203,-5.3203,-5.3203,-5.2931,-5.2123,-5.172,-5.0949,-4.9297,-4.8636,-4.8306,-4.8306,-4.8306,-4.8306,-4.8306,-4.8306,-4.8287,-4.8248,-4.8187,-4.8072,-4.8012,-4.7927,-4.7861,-4.7798,-4.772,-4.7699,-4.7699,-4.7699,-4.7699,-4.7699,-4.7699,-4.7783,-4.7927,-4.7972,-4.8032,-6.2227,0.0,0.0,-6.3453,-6.5051,-6.6253,-6.5491,-6.654,-6.7579,-6.7321,-6.7827,-6.8234,-6.8004,-6.7926,-6.7873,-6.7767,-6.7714,-6.7687,-6.7687,-6.7687,-6.7687,-6.7687,-6.7687,-6.7907,-6.8495,-6.8017,-6.7944,-6.8531,-6.8017,-6.7687,-6.7687,-6.7687,-6.7944,-6.8568,-6.743,-6.688,-6.7026,-6.5301,-6.42,-6.3723,-6.3099,-6.278,-6.278,-6.278,-6.2695,-6.2438,-6.1851,-6.1006,-6.0015,-5.9441,-5.8731,-5.7997,-5.7997,-5.7997,-5.7997,-5.7997,-5.7997,-5.796,-5.774,-5.7299,-5.6748,-5.6271,-5.5354,-5.4363,-5.4142,-5.3665,-5.3203,-5.3203,-5.3203,-5.3203,-5.3203,-5.3203,-5.3203,-5.3203,-5.3203,-5.3203,-5.3203,-5.3203,-5.3203,-5.3203,-5.3203,-5.3004,-5.2417,-5.216,-5.1573,-5.0455,-4.9334,-4.8563,-4.8343,-4.8306,-4.8306,-4.8306,-4.8306,-4.8306,-4.8306,-4.8265,-4.8207,-4.8092,-4.7988,-4.7866,-4.7783,-4.772,-4.7699,-4.7741,-4.7699,-4.7699,-4.7777,-4.7699,-4.7777,-4.7902,-4.7988,-4.8198,0.0,0.0,-6.3565,-6.3602,-6.5459,-6.728,-6.7219,-6.785,-6.842,-6.8272,-6.8284,-6.8259,-6.8095,-6.8004,-6.7926,-6.7899,-6.7794,-6.7687,-6.7687,-6.7687,-6.7687,-6.7687,-6.7687,-6.7714,0.0,-6.7687,-6.7714,-6.7724,-6.7687,-6.7687,-6.7687,-6.7687,-6.7714,-6.7751,-6.7687,-6.6916,-6.5411,-6.5301,-6.4457,-6.2842,-6.278,-6.278,-6.278,-6.278,-6.2365,-6.163,-6.1594,-6.0713,-5.9221,-5.9184,-5.8731,-5.7997,-5.7997,-5.7997,-5.7997,-5.7997,-5.7997,-5.7886,-5.7116,-5.6822,-5.6565,-5.4987,-5.4436,-5.4252,-5.3482,-5.3203,-5.3203,-5.3203,-5.3203,-5.3203,-5.3203,-5.3203,-5.3203,-5.3203,-5.3203,-5.3203,-5.3203,-5.3203,-5.3203,-5.3203,-5.3203,-5.3167,-5.3167,-5.2527,-5.1977,-5.194,-5.0602,-4.928,-4.8416,-4.8306,-4.8306,-4.8306,-4.8306,-4.8306,-4.8306,-4.8287,-4.8287,-4.8287,-4.8111,-4.7992,-4.7992,-4.7804,-4.7777,-4.7881,-4.7777,-4.7741,-4.7881,-4.7741,-4.7777,-4.7902,-4.7988,-4.849,0.0,0.0,-6.4656,-6.5794,-6.7094,-6.8073,-6.8073,-6.8296,-6.8481,-6.8432,-6.8024,-6.7753,-6.8148,-6.7689,-6.7402,-6.7815,-6.7794,-6.7687,-6.7687,-6.7687,-6.7687,-6.7687,-6.7687,0.0,0.0,0.0,0.0,-6.7687,-6.7687,-6.7907,-6.8458,-6.7981,-6.7944,-6.8495,-6.6953,-6.5852,-6.5301,-6.42,-6.3356,-6.278,-6.278,-6.2511,-6.1998,-6.1998,-6.1557,-6.0786,-6.0236,-5.9698,-5.9148,-5.8621,-5.8253,-5.7997,-5.7997,-5.7997,-5.7997,-5.7997,-5.7666,-5.7189,-5.6895,-5.6124,-5.5133,-5.4583,-5.4032,-5.3555,-5.3277,-5.3203,-5.3203,-5.3203,-5.3203,-5.3203,-5.3203,-5.3203,-5.3203,-5.3203,-5.3203,-5.3203,-5.3203,-5.3203,-5.3203,-5.3203,-5.3203,-5.3203,-5.3203,-5.3004,-5.2637,-5.2087,-5.0639,-4.928,-4.8416,-4.8306,-4.8306,-4.8306,-4.8306,-4.8306,-4.8306,-4.8306,-4.8267,-4.8246,-4.8187,-4.8072,-4.8012,-4.7886,-4.7861,-4.7881,-4.7861,-4.7861,-4.7881,-4.7907,-4.8223,-4.8908,-4.8912,-4.9431,-6.3973,-6.4865,-6.5682,-6.7317,-6.8134,-6.8481,-6.8481,-6.8258,-6.8171,-6.8444,-6.7391,-6.6712,-6.7753,-6.6926,-6.6421,-6.7428,-6.7458,-6.7437,-6.7731,-6.7741,-6.7687,-6.7687,-6.7687,-6.7687,0.0,0.0,0.0,-6.7677,-6.7687,-6.7907,-6.8458,-6.7687,-6.7504,-6.8017,-6.5999,-6.4861,-6.4861,-6.3503,-6.278,-6.278,-6.2511,-6.2108,-6.1594,-6.13,-6.075,-5.9942,-5.9404,-5.9038,-5.8731,-5.8217,-5.7997,-5.7997,-5.7997,-5.7997,-5.796,-5.7666,-5.7042,-5.6381,-5.6381,-5.55,-5.4363,-5.4069,-5.3628,-5.3203,-5.3203,-5.3203,-5.3203,-5.3203,-5.3203,-5.3203,-5.3203,-5.3203,-5.3203,-5.3203,-5.3203,-5.3203,-5.3203,-5.3203,-5.3203,-5.3203,-5.3203,-5.3203,-5.3203,-5.3203,-5.2931,-5.2123,-5.1116,-5.0051,-4.8893,-4.8489,-4.8306,-4.8306,-4.8306,-4.8306,-4.8306,-4.8306,-4.8267,-4.8246,-4.8168,-4.8108,-4.8012,-4.7963,-4.7881,-4.7881,-4.7943,-4.7963,-4.7963,-4.8279,-4.8762,-4.9334,-4.9667,-5.0314,-6.5385,-6.6091,-6.6537,-6.8134,-6.8481,-6.8481,-6.8468,-6.7874,-6.7577,-6.8246,-6.6476,-6.5287,0.0,0.0,-6.5136,-6.6766,-6.69,-6.7016,-6.7815,-6.7794,-6.7687,0.0,0.0,0.0,0.0,0.0,0.0,-6.7614,0.0,-6.765,-6.7687,-6.6953,-6.6476,-6.6439,-6.4897,-6.4053,-6.4016,-6.3172,-6.2768,-6.2732,-6.1924,-6.152,-6.1447,-6.0676,-5.9905,-5.9148,-5.9148,-5.8731,-5.7997,-5.7997,-5.7997,-5.7997,-5.7997,-5.796,-5.785,-5.7079,-5.6271,-5.5559,-5.5559,-5.4987,-5.4216,-5.3445,-5.3203,-5.3203,-5.3203,-5.3203,-5.3203,-5.3203,-5.3203,-5.3203,-5.3203,-5.3203,-5.3203,-5.3203,-5.3203,-5.3203,-5.3203,-5.3203,-5.3203,-5.3203,-5.3203,-5.3203,-5.3203,-5.3203,-5.2931,-5.216,-5.2013,-5.1426,-4.9867,-4.893,-4.8416,-4.8379,-4.8379,-4.8343,-4.8306,-4.8306,-4.8343,-4.8379,-4.8168,-4.8048,-4.8085,-4.802,-4.7975,-4.7975,-4.8097,-4.8121,-4.8121,-4.8924,-4.9325,-4.9362,-5.0268,-5.1099,-6.4828,-6.6054,-6.7243,-6.8221,-6.8481,-6.8333,-6.7763,-6.7911,-6.7911,-6.6945,-6.5682,-6.4916,0.0,0.0,0.0,-6.5951,-6.6973,0.0,-6.7889,-6.7794,0.0,-6.7687,0.0,-6.7687,-6.7687,-6.7504,0.0,0.0,-6.7136,-6.7063,-6.765,-6.6953,-6.6219,-6.5632,-6.464,-6.3796,-6.3135,-6.2328,-6.1924,-6.1887,-6.108,-6.0382,-5.9795,-5.9588,-5.9098,-5.8327,-5.8327,-5.818,-5.7997,-5.7997,-5.7997,-5.7997,-5.7997,-5.7629,-5.7079,-5.6895,-5.5904,-5.4693,-5.4693,-5.4179,-5.3482,-5.3298,-5.3203,-5.3203,-5.3203,-5.3203,-5.3203,-5.3203,-5.3203,-5.3203,-5.3203,-5.3203,-5.3203,-5.3203,-5.3203,-5.3203,-5.3203,-5.3203,-5.3203,-5.3203,-5.3203,-5.3203,-5.3203,-5.3203,-5.3151,-5.2931,-5.238,-5.1646,-5.0618,-5.0288,-4.9921,-4.926,-4.9224,-4.9003,-4.8379,-4.8306,-4.86,-4.9224,-4.8634,-4.8522,-4.9165,-4.9082,-4.9021,-4.9021,-4.9626,-4.9939,-4.9939,-5.024,-5.0684,-5.1271,-5.1532,-5.2082,-6.6063,-6.7107,-6.7948,-6.8394,-6.8246,-6.7688,-6.6476,-6.6277,-6.5882,-6.427,-6.3267,0.0,0.0,0.0,0.0,0.0,0.0,0.0,-6.793,-6.782,-6.7687,0.0,-6.7687,0.0,-6.7687,-6.7357,-6.7173,0.0,-6.6769,-6.6696,-6.7136,-6.6072,-6.5228,-6.4787,-6.3943,-6.3135,-6.2291,-6.1814,-6.141,-6.1043,-6.0272,-5.9625,-5.9184,-5.8817,-5.8437,-5.7997,0.0,-5.7997,-5.7997,-5.7997,-5.7997,-5.7997,-5.7997,-5.7519,-5.6748,-5.6418,-5.5464,-5.4363,-5.3995,-5.3592,-5.3203,-5.3203,-5.3203,-5.3203,-5.3203,-5.3203,-5.3203,-5.3203,-5.3203,-5.3203,-5.3203,-5.3203,-5.3203,-5.3203,-5.3203,-5.3203,-5.3203,-5.3203,-5.3203,-5.3203,-5.3203,-5.3203,-5.3203,-5.3203,-5.3203,-5.3203,-5.2821,-5.238,-5.1903,-5.1242,-5.0618,-5.0105,-5.0105,-4.9921,-4.9444,-4.9407,-4.9627,-5.0105,-4.9625,-4.9531,-5.0008,-4.9984,-4.9887,-4.9846,-5.0403,-5.0664,-5.0602,-5.1092,-5.1573,-5.2013,-5.2344,-5.2784,-6.7882,-6.8431,-6.8481,-6.8481,-6.7961,-6.6982,-6.5065,-6.4196,-6.323,-6.1261,0.0,-5.9717,-5.9627,-6.1038,-6.2524,-6.3305,0.0,-6.7209,-6.7984,-6.7899,-6.7714,-6.7714,-6.7687,-6.7687,-6.7687,-6.7063,-6.6623,-6.6512,-6.6402,-6.6292,-6.6182,-6.4861,-6.4053,-6.3906,-6.3209,-6.2401,-6.1594,-6.1484,-6.1043,-6.0236,-5.9404,-5.9038,-5.9001,-5.8327,-5.7997,-5.7997,-5.7997,-5.7997,-5.7997,-5.7997,-5.7997,-5.7997,-5.7997,-5.7519,-5.6712,-5.5904,-5.5097,-5.4289,-5.3482,-5.3203,-5.3203,-5.3203,-5.3203,-5.3203,-5.3203,-5.3203,-5.3203,-5.3203,-5.3203,-5.3203,-5.3203,-5.3203,-5.3203,-5.3203,-5.3203,-5.3203,-5.3203,-5.3203,-5.3203,-5.3203,-5.3203,-5.3203,-5.3203,-5.3203,-5.3203,-5.3203,-5.3203,-5.3203,-5.3203,-5.1977,-5.1096,-5.0986,-5.0949,-5.0912,-5.0802,-5.0802,-5.0839,-5.0949,-5.0758,-5.0659,-5.0769,-5.0769,-5.0728,-5.0608,-5.0957,-5.1055,-5.0952,-5.1752,-5.216,-5.216,-5.2858,-5.3203,-6.7682,-6.7986,-6.8481,-6.8481,-6.8407,-6.7503,-6.4493,-6.4233,0.0,0.0,0.0,-5.8698,-5.8029,-5.985,-6.167,-6.2487,0.0,0.0,0.0,0.0,-6.782,0.0,0.0,0.0,0.0,0.0,0.0,0.0,0.0,-6.5228,-6.453,-6.4237,-6.3759,-6.3062,-6.2879,-6.2401,-6.1594,-6.0933,-6.0199,-5.9404,-5.8584,-5.8217,-5.8217,-5.807,-5.7997,-5.7997,-5.7997,0.0,-5.7997,-5.7997,-5.7997,-5.7997,-5.7997,-5.7519,-5.6712,-5.5904,-5.5097,-5.4289,-5.3482,-5.3203,-5.3203,-5.3203,-5.3203,-5.3203,-5.3203,-5.3203,-5.3203,-5.3203,-5.3203,-5.3203,-5.3203,-5.3203,-5.3203,-5.3203,-5.3203,-5.3203,-5.3203,-5.3203,-5.3203,-5.3203,-5.3203,-5.3203,-5.3203,-5.3203,-5.3203,-5.3203,-5.3203,-5.3203,-5.3203,-5.2947,-5.2527,-5.1867,-5.1793,-5.1499,-5.0875,-5.0802,-5.1096,-5.1756,-5.1149,-5.1075,-5.1736,-5.1773,-5.1773,-5.1715,-5.2433,-5.2763,-5.2742,-5.291,-5.3004,-5.3004,-5.3151,-5.3203,-6.8197,-6.8362,-6.8481,-6.8481,-6.7874,-6.6388,-6.3119,0.0,0.0,0.0,-5.684,-5.7063,-5.58,0.0,0.0,0.0,0.0,0.0,0.0,0.0,0.0,0.0,0.0,0.0,0.0,0.0,0.0,0.0,0.0,-6.4971,-6.4127,-6.3686,-6.3246,-6.278,-6.278,-6.2401,-6.1594,-6.0786,-6.0015,-5.9184,-5.84,-5.7997,-5.7997,-5.7997,-5.7997,-5.7997,-5.7997,0.0,-5.7997,-5.7997,-5.7997,-5.7997,-5.7997,-5.7519,-5.6748,-5.6381,-5.5721,-5.495,-5.4583,-5.4179,-5.3812,-5.3812,-5.3555,-5.3203,-5.3203,-5.3203,-5.3203,-5.3203,-5.3203,-5.3203,-5.3203,-5.3203,-5.3203,-5.3203,-5.3203,-5.3203,-5.3203,-5.3203,-5.3203,-5.3203,-5.3203,-5.3203,-5.3203,-5.3203,-5.3203,-5.3203,-5.3203,-5.3203,-5.3203,-5.3203,-5.3078,-5.2674,-5.2637,-5.2491,-5.2087,-5.205,-5.2234,-5.2601,-5.227,-5.2234,-5.2601,-5.2637,-5.2637,-5.2637,-5.3004,-5.3203,-5.3203,-5.3203,-5.3203,-5.3203,-5.3203,-5.3203,-6.8843,-6.8809,-6.8481,-6.8481,-6.7428,-6.5459,-6.2004,-6.0407,0.0,0.0,-5.4723,-5.5169,-5.4017,0.0,0.0,0.0,0.0,0.0,0.0,0.0,0.0,0.0,0.0,0.0,0.0,0.0,0.0,0.0,0.0,0.0,-6.387,-6.3172,-6.278,-6.278,-6.278,-6.2401,-6.1594,-6.0786,-6.0015,-5.9184,-5.84,-5.7997,-5.7997,-5.7997,-5.7997,-5.7997,-5.7997,0.0,0.0,-5.7997,-5.7997,-5.7997,-5.7997,-5.7593,-5.7042,-5.6859,-5.6418,-5.5831,-5.5669,-5.517,-5.4656,-5.4656,-5.3995,-5.3203,-5.3203,-5.3203,-5.3203,-5.3203,-5.3203,-5.3203,-5.3203,-5.3203,-5.3203,-5.3203,-5.3203,-5.3203,-5.3203,-5.3203,-5.3203,-5.3203,-5.3203,-5.3203,-5.3203,-5.3203,-5.3203,-5.3203,-5.3203,-5.3203,-5.3203,-5.3203,-5.3203,-5.3203,-5.3203,-5.3203,-5.3203,-5.3203,-5.3203,-5.3203,-5.3203,-5.3203,-5.3203,-5.3203,-5.3203,-5.3203,-5.3203,-5.3203,-5.3203,-5.3203,-5.3203,-5.3203,-5.3203,-5.3203,-6.9181,-6.8809,-6.8481,-6.8481,-6.7837,-6.6165,-6.2116,0.0,0.0,-5.45,-5.3348,-5.3125,-5.3683,-5.528,-5.7249,0.0,0.0,0.0,0.0,0.0,0.0,0.0,0.0,0.0,0.0,0.0,0.0,0.0,0.0,0.0,-6.289,-6.2842,-6.278,-6.278,-6.278,-6.2401,-6.1594,-6.0786,-6.0015,-5.9184,-5.84,-5.7997,-5.7997,-5.7997,-5.7997,-5.7997,-5.7997,0.0,0.0,-5.7997,-5.7997,-5.7997,-5.7997,-5.796,-5.7813,-5.7079,-5.6748,-5.6602,-5.5831,-5.5559,-5.5486,-5.5486,-5.4436,-5.3203,-5.3203,-5.3203,-5.3203,-5.3203,-5.3203,-5.3203,-5.3203,-5.3203,-5.3203,-5.3203,-5.3203,-5.3203,-5.3203,-5.3203,-5.3203,-5.3203,-5.3203,-5.3203,-5.3203,-5.3203,-5.3203,-5.3203,-5.3203,-5.3203,-5.3203,-5.3203,-5.3203,-5.3203,-5.3203,-5.3203,-5.3203,-5.3203,-5.3203,-5.3203,-5.3203,-5.3203,-5.3203,-5.3203,-5.3203,-5.3203,-5.3203,-5.3203,-5.3203,-5.3203,-5.3203,-5.3203,-5.3203,-5.3203,-6.9151,-6.9155,-6.8697,-6.7946,-6.7168,-6.5496,-6.1373,0.0,-5.7769,-5.45,-5.3162,-5.2865,-5.3645,-5.3571,-5.4463,0.0,-5.8178,-5.9229,0.0,0.0,0.0,0.0,0.0,0.0,0.0,0.0,0.0,0.0,0.0,0.0,-6.278,-6.278,-6.278,-6.278,-6.278,-6.2658,-6.2328,-6.1043,-6.0236,-5.9905,-5.8621,-5.7997,-5.7997,-5.7997,-5.7997,-5.7997,-5.7997,0.0,0.0,-5.7997,-5.7997,-5.7997,-5.7997,-5.7997,-5.796,-5.7629,-5.7519,-5.7483,-5.7152,-5.6712,-5.6308,-5.6308,-5.5574,-5.4546,-5.4069,-5.3592,-5.3203,-5.3203,-5.3203,-5.3203,-5.3203,-5.3203,-5.3203,-5.3203,-5.3203,-5.3203,-5.3203,-5.3203,-5.3203,-5.3203,-5.3203,-5.3203,-5.3203,-5.3203,-5.3203,-5.3203,-5.3203,-5.3203,-5.3203,-5.3203,-5.3203,-5.3203,-5.3203,-5.3203,-5.3203,-5.3203,-5.3203,-5.3203,-5.3203,-5.3203,-5.3203,-5.3203,-5.3203,-5.3203,-5.3203,-5.3203,-5.3203,-5.3203,-5.3203,-5.3203,-5.3203,-5.3203,-6.8809,-6.9011,-6.8547,-6.7844,-6.6871,-6.5088,0.0,0.0,-5.7472,-5.4426,-5.3162,-5.2791,-5.3348,-5.2717,-5.3125,0.0,-5.5986,-5.68,-6.0833,0.0,0.0,0.0,0.0,0.0,0.0,0.0,0.0,0.0,0.0,0.0,-6.278,-6.278,-6.278,-6.278,-6.278,-6.278,-6.278,-6.119,-6.0419,-6.0382,-5.8767,-5.7997,-5.7997,-5.7997,-5.7997,-5.7997,-5.7997,0.0,0.0,-5.7997,-5.7997,-5.7997,-5.7997,-5.7997,-5.7997,-5.7997,-5.7997,-5.7997,-5.7997,-5.7629,-5.7152,-5.7152,-5.6602,-5.5831,-5.528,-5.4216,-5.313,-5.2931,-5.2858,-5.2894,-5.3151,-5.3203,-5.3203,-5.3203,-5.3203,-5.3203,-5.3203,-5.3203,-5.3203,-5.3203,-5.3203,-5.3203,-5.3203,-5.3203,-5.3203,-5.3203,-5.3203,-5.3203,-5.3203,-5.3203,-5.3203,-5.3203,-5.3203,-5.3203,-5.3203,-5.3203,-5.3203,-5.3203,-5.3203,-5.3203,-5.3203,-5.3203,-5.3203,-5.3203,-5.3203,-5.3203,-5.3203,-5.3203,-5.3203,-5.3203,-5.3203,-5.3203,-6.807,-6.8103,-6.7926,-6.8366,-6.728,-6.5236,0.0,-5.9292,-5.6803,-5.4314,-5.3162,-5.2605,-5.2605,-5.3237,-5.4054,-5.4909,-5.5763,-5.7732,-6.1819,0.0,0.0,0.0,0.0,0.0,0.0,0.0,0.0,0.0,0.0,0.0,-6.278,-6.278,-6.278,-6.278,-6.278,-6.278,-6.278,-6.119,-6.0419,-6.0382,-5.8767,-5.7997,-5.7997,-5.7997,-5.7997,0.0,0.0,0.0,0.0,-5.7997,-5.7997,-5.7997,-5.7997,-5.7997,-5.7997,-5.7997,-5.7997,-5.7997,-5.7997,-5.7997,-5.7997,-5.7997,-5.7446,-5.6785,-5.6785,-5.5075,-5.3041,-5.2234,-5.2013,-5.2197,-5.3004,-5.3203,-5.3203,-5.3203,-5.3203,-5.3203,-5.3203,-5.3203,-5.3203,-5.3203,-5.3203,-5.3203,-5.3203,-5.3203,-5.3203,-5.3203,-5.3203,-5.3203,-5.3203,-5.3203,-5.3203,-5.3203,-5.3203,-5.3203,-5.3203,-5.3203,-5.3203,-5.3203,-5.3203,-5.3203,-5.3203,-5.3203,-5.3203,-5.3203,-5.3203,-5.3203,-5.3203,-5.3203,-5.3203,-5.3203,-5.3203,-5.3203,-6.4605,-6.5367,-6.5331,-6.3876,-6.3119,-6.2041,-5.9292,-5.7658,-5.6134,-5.4203,-5.3162,-5.2605,-5.2605,-5.1862,-5.2271,-5.5391,-5.5614,0.0,0.0,0.0,0.0,0.0,0.0,0.0,0.0,0.0,0.0,0.0,0.0,0.0,-6.278,-6.2291,-6.2218,-6.278,-6.2291,-6.1998,-6.1998,-6.0382,-5.9588,-5.9551,-5.851,-5.7997,-5.7997,-5.7997,-5.7997,0.0,0.0,0.0,0.0,-5.7997,-5.7997,-5.7997,-5.7997,-5.7997,-5.7997,-5.7997,-5.7997,-5.7997,-5.7997,-5.7997,-5.7997,-5.7997,-5.7813,-5.7519,-5.6969,-5.5868,-5.4766,-5.4509,-5.4069,-5.3702,-5.3959,-5.3628,-5.3203,-5.3203,-5.3203,-5.3203,-5.3203,-5.3203,-5.3203,-5.3203,-5.3203,-5.3203,-5.3203,-5.3203,-5.3203,-5.3203,-5.3203,-5.3203,-5.3203,-5.3203,-5.3203,-5.3203,-5.3203,-5.3203,-5.3203,-5.3203,-5.3203,-5.3203,-5.3203,-5.3203,-5.3203,-5.3203,-5.3203,-5.3203,-5.3203,-5.3203,-5.3203,-5.3203,-5.3203,-5.3203,-5.3203,-5.3203,0.0,-6.3145,-6.3352,-6.25,-6.1741,-6.063,-5.8438,-5.684,-5.5354,-5.3683,-5.2717,-5.2048,-5.1714,-5.1082,-5.1342,-5.3608,-5.4054,0.0,0.0,0.0,0.0,0.0,0.0,0.0,0.0,0.0,0.0,0.0,0.0,0.0,-6.278,-6.2034,-6.1814,-6.2328,-6.1557,-6.1153,-6.1153,-5.9869,-5.9184,-5.9184,-5.84,-5.7997,-5.7997,-5.7997,-5.7997,0.0,0.0,0.0,0.0,-5.7997,-5.7997,-5.7997,-5.7997,-5.7997,-5.7997,-5.7997,-5.7997,-5.7997,-5.7997,-5.7997,-5.7997,-5.7997,-5.7997,-5.7923,-5.7409,-5.6271,-5.5133,-5.5133,-5.4803,-5.4473,-5.4766,-5.4252,-5.3592,-5.3298,-5.2968,-5.2674,-5.238,-5.2307,-5.2307,-5.2307,-5.2307,-5.2307,-5.2307,-5.2307,-5.2307,-5.2307,-5.2564,-5.2747,-5.2747,-5.3004,-5.3203,-5.3203,-5.3203,-5.3203,-5.3203,-5.3203,-5.3203,-5.3203,-5.3203,-5.3203,-5.3203,-5.3203,-5.3203,-5.3203,-5.3203,-5.3203,-5.3203,-5.3203,-5.3203,-5.3203,-5.3203,-5.3203,0.0,-6.1006,-6.1506,-6.2928,-6.1931,-6.0184,-5.8624,-5.6432,0.0,-5.2828,-5.1936,-5.1156,-5.0413,-5.0859,-5.1156,-5.0636,-5.1788,0.0,0.0,0.0,0.0,0.0,0.0,0.0,0.0,0.0,0.0,0.0,0.0,0.0,-6.2707,-6.1961,-6.1484,-6.141,-6.0639,-6.0272,-6.0309,-5.9538,-5.9111,-5.9111,-5.8364,-5.7997,-5.7997,-5.7997,-5.7997,0.0,0.0,0.0,0.0,-5.7997,-5.7997,-5.7997,-5.7997,-5.7997,-5.7997,-5.7997,-5.7997,-5.7997,-5.7997,-5.7997,-5.7997,-5.7997,-5.7997,-5.7997,-5.7997,-5.6418,-5.4656,-5.4656,-5.462,-5.473,-5.5464,-5.5097,-5.4289,-5.3555,-5.2747,-5.194,-5.1132,-5.0949,-5.0875,-5.0875,-5.0875,-5.0912,-5.0949,-5.0986,-5.0986,-5.0986,-5.1573,-5.1977,-5.1977,-5.2601,-5.302,-5.302,-5.302,-5.302,-5.302,-5.313,-5.3203,-5.3203,-5.3203,-5.3203,-5.3203,-5.3203,-5.3203,-5.3203,-5.3203,-5.3203,-5.3203,-5.3203,-5.3167,-5.3115,-5.3115,-5.3078,-5.4206,0.0,-5.5913,-5.5436,-5.4949,-5.4537,0.0,-5.3125,-5.2159,-5.1751,0.0,-5.1528,-5.1936,-5.1119,-5.1379,-5.4351,-5.4611,-5.5577,-5.8884,0.0,0.0,-6.3861,-6.4611,0.0,0.0,0.0,0.0,0.0,0.0,-6.2548,-6.1924,-6.1117,-6.0419,-5.9795,-5.8988,-5.8877,-5.9478,-5.8694,-5.829,-5.829,-5.8107,-5.7997,-5.7997,-5.7997,-5.7997,0.0,0.0,0.0,-5.7997,-5.7997,-5.7997,-5.7997,-5.7997,-5.7997,-5.7997,-5.7997,-5.7997,-5.7997,-5.7997,-5.7997,-5.7997,-5.7997,-5.7997,-5.7997,-5.7997,-5.7593,-5.7152,-5.7152,-5.6712,-5.6271,-5.6492,-5.5904,-5.5244,-5.506,-5.4399,-5.3628,-5.2821,-5.216,-5.172,-5.172,-5.172,-5.1903,-5.2527,-5.2637,-5.2637,-5.2637,-5.227,-5.1977,-5.1977,-5.1646,-5.1353,-5.1353,-5.1353,-5.1353,-5.1353,-5.2491,-5.3203,-5.3203,-5.3203,-5.3203,-5.3203,-5.3203,-5.3203,-5.3203,-5.3203,-5.3203,-5.3203,-5.3203,-5.2894,-5.227,-5.227,-5.194,-5.1268,-5.3006,-5.4613,-5.4539,-5.4131,-5.372,-5.372,0.0,0.0,0.0,0.0,-5.0376,-5.0822,-5.0785,-5.1416,-5.3683,-5.4611,0.0,0.0,0.0,0.0,0.0,0.0,0.0,0.0,0.0,0.0,0.0,0.0,-6.2071,-6.163,-6.0493,-5.9625,-5.9184,-5.8437,-5.8217,-5.8657,-5.8217,-5.7997,-5.7997,-5.7997,-5.7997,-5.7997,-5.7997,-5.7997,0.0,0.0,0.0,-5.7997,-5.7997,-5.7997,-5.7997,-5.7997,-5.7997,-5.7997,-5.7997,-5.7997,-5.7997,-5.7997,-5.7997,-5.7997,-5.7997,-5.7997,-5.7997,-5.7997,-5.7997,-5.7997,-5.7997,-5.7703,-5.7336,-5.7336,-5.6748,-5.6051,-5.5684,-5.4987,-5.4179,-5.335,-5.2858,-5.2564,-5.2564,-5.2564,-5.2711,-5.3093,-5.3203,-5.3203,-5.3203,-5.3151,-5.2968,-5.2601,-5.2491,-5.216,-5.1426,-5.1353,-5.1206,-5.0839,-5.161,-5.227,-5.2637,-5.2637,-5.2821,-5.3167,-5.3203,-5.3203,-5.3203,-5.3203,-5.3041,-5.2637,-5.2637,-5.2234,-5.1463,-5.1463,-5.1206,-5.0258,-5.2611,-5.5097,-5.5507,-5.5025,-5.4388,-5.4128,0.0,0.0,0.0,0.0,0.0,0.0,-5.0711,0.0,0.0,0.0,0.0,-6.0848,-6.3752,0.0,0.0,0.0,0.0,0.0,0.0,0.0,0.0,0.0,-6.1557,-6.141,-6.0015,-5.9148,-5.9001,-5.8364,-5.7997,-5.7997,-5.7997,-5.7997,-5.7997,-5.7997,-5.7997,-5.7997,-5.7997,-5.7997,-5.7997,0.0,0.0,-5.7997,-5.7997,-5.7997,-5.7997,-5.7997,-5.7997,-5.7997,-5.7997,-5.7997,-5.7997,-5.7997,-5.7997,-5.7997,-5.7997,-5.7997,-5.7997,-5.7997,-5.7997,-5.7997,-5.7997,-5.7997,-5.7997,-5.7997,-5.7483,-5.6822,-5.6124,-5.5354,-5.4546,-5.3739,-5.3482,-5.3408,-5.3408,-5.3408,-5.3445,-5.3555,-5.3592,-5.3592,-5.3592,-5.4032,-5.4142,-5.3482,-5.3885,-5.3665,-5.216,-5.1867,-5.1499,-5.0692,-5.0508,-5.0765,-5.1573,-5.1756,-5.2123,-5.2821,-5.2858,-5.2858,-5.2858,-5.2858,-5.2491,-5.183,-5.183,-5.1389,-5.0618,-5.0618,-5.0545,-5.2376,-5.3962,-5.4203,-5.0948,-5.1062,-5.1565,-5.0153,0.0,0.0,0.0,0.0,0.0,0.0,0.0,-5.3571,0.0,0.0,-6.0088,0.0,0.0,-6.4105,0.0,0.0,0.0,0.0,0.0,0.0,0.0,0.0,-6.13,-6.0639,-5.9698,-5.8914,-5.8217,-5.807,-5.7997,-5.7997,-5.7997,-5.7997,-5.7997,-5.7997,-5.7997,-5.7997,-5.7997,-5.7997,-5.7997,0.0,-5.7997,-5.7997,-5.7997,-5.7997,-5.7997,-5.7997,-5.7997,-5.7997,-5.7997,-5.7997,-5.7997,-5.7997,-5.7997,-5.7997,-5.7997,-5.7997,-5.7997,-5.7997,-5.7997,-5.7997,-5.7997,-5.7997,-5.7997,-5.7997,-5.7923,-5.7776,-5.7666,-5.7005,-5.6198,-5.539,-5.4693,-5.4216,-5.4216,-5.4216,-5.4436,-5.5097,-5.5207,-5.5207,-5.5207,-5.4766,-5.4363,-5.4216,-5.3739,-5.3041,-5.2087,-5.1389,-5.0655,-4.9867,-4.9114,-4.904,-4.9904,-5.0618,-5.1059,-5.1169,-5.1169,-5.1169,-5.1169,-5.1169,-5.1096,-5.0986,-5.0986,-5.0582,-4.9794,-4.9794,-4.937,-5.1233,-5.2381,-5.2768,-5.0764,-5.2494,-5.4388,-5.3162,0.0,0.0,0.0,0.0,0.0,0.0,0.0,-5.6432,-6.011,0.0,-6.2301,-6.3453,-6.3905,-6.4095,0.0,0.0,0.0,0.0,0.0,0.0,0.0,0.0,0.0,-5.9771,-5.8988,-5.84,-5.7997,-5.7997,-5.7997,-5.7997,-5.7997,-5.7997,-5.7997,-5.7997,-5.7997,-5.7997,-5.7997,-5.7997,-5.7997,0.0,-5.7997,-5.7997,-5.7997,-5.7997,-5.7997,-5.7997,-5.7997,-5.7997,-5.7997,-5.7997,-5.7997,-5.7997,-5.7997,-5.7997,-5.7997,-5.7997,-5.7997,-5.7997,-5.7997,-5.7997,-5.7997,-5.7997,-5.7997,-5.7997,-5.7997,-5.7997,-5.7997,-5.7703,-5.7336,-5.6969,-5.6602,-5.6345,-5.6345,-5.6345,-5.6455,-5.6822,-5.6895,-5.6895,-5.6895,-5.6565,-5.6198,-5.5757,-5.539,-5.4693,-5.3445,-5.2601,-5.1756,-5.0969,-5.0141,-4.9627,-4.961,-5.0362,-5.0802,-5.0802,-5.0802,-5.0802,-5.0802,-5.0802,-5.0582,-5.0141,-5.0141,-4.9701,-4.8893,-4.8893,-4.8673,-5.1174,-5.1677,-5.2115,-5.2214,-5.4166,-5.606,-5.6023,0.0,0.0,0.0,0.0,0.0,0.0,-5.6692,0.0,-6.1967,-6.3082,-6.3676,-6.3862,-6.4179,-6.422,-6.3799,-6.3859,0.0,0.0,0.0,0.0,0.0,0.0,0.0,-5.9221,-5.8437,-5.7997,-5.7997,-5.7997,-5.7997,-5.7997,-5.7997,-5.7997,-5.7997,-5.7997,-5.7997,-5.7997,-5.7997,-5.7997,-5.7997,-5.7813,-5.7813,-5.7997,-5.7813,-5.7813,-5.7997,-5.7997,-5.7997,-5.7997,-5.7997,-5.7997,-5.7997,-5.7997,-5.7997,-5.7997,-5.7997,-5.7997,-5.7997,-5.7997,-5.7997,-5.7997,-5.7997,-5.7997,-5.7997,-5.7997,-5.7997,-5.7997,-5.7997,-5.7997,-5.7997,-5.7997,-5.7997,-5.7997,-5.7997,-5.7997,-5.7997,-5.7997,-5.7997,-5.7997,-5.7997,-5.7997,-5.7776,-5.7152,-5.7079,-5.6528,-5.5097,-5.4252,-5.3371,-5.238,-5.1536,-5.0802,-5.0198,-5.0178,-5.0215,-5.0215,-5.0215,-5.0215,-5.0215,-5.0215,-4.9921,-4.9317,-4.9317,-4.893,-4.8306,-4.8526,-4.86,-5.5017,-5.428,-5.3202,-5.4447,-5.3274,0.0,-5.4611,-5.3868,0.0,-5.5652,0.0,0.0,0.0,-5.9255,-6.1261,-6.2264,-6.3082,-6.3839,-6.4619,0.0,-6.3951,-6.4619,-6.383,0.0,0.0,0.0,0.0,0.0,0.0,0.0,-5.9184,-5.8437,-5.7997,-5.7997,-5.7997,-5.7997,-5.7997,-5.7997,-5.7997,-5.7997,-5.7997,-5.7997,-5.7997,-5.7997,-5.7997,-5.796,-5.7226,-5.7299,-5.7923,-5.7189,-5.7336,-5.7997,-5.7997,-5.7997,-5.7997,-5.7997,-5.7997,-5.7997,-5.7997,-5.7997,-5.7997,-5.7997,-5.7997,-5.7997,-5.7997,-5.7997,-5.7997,-5.7997,-5.7997,-5.7997,-5.7997,-5.7997,-5.7997,-5.7997,-5.7997,-5.7997,-5.7997,-5.7997,-5.7997,-5.7997,-5.7997,-5.7997,-5.7997,-5.7997,-5.7997,-5.7997,-5.7997,-5.796,-5.7923,-5.7923,-5.7593,-5.6712,-5.5904,-5.4803,-5.3261,-5.238,-5.1867,-5.183,-4.9738,-4.8489,-4.8489,-4.8489,-4.8489,-4.8489,-4.8489,-4.8453,-4.8379,-4.8379,-4.8379,-4.8343,-4.9114,-4.95,-5.2824,-5.2733,-5.2677,-5.3348,-5.32,0.0,0.0,-5.6469,-5.6952,-5.8958,-5.9107,0.0,0.0,0.0,-6.2227,-6.3044,-6.3825,-6.4433,-6.4768,-6.4099,-6.3691,-6.4025,0.0,0.0,0.0,0.0,0.0,0.0,0.0,0.0,-5.8474,-5.818,-5.7997,-5.7997,-5.7997,-5.7997,-5.7997,-5.7997,-5.7997,-5.7997,-5.7997,-5.7997,-5.7997,-5.7997,-5.774,-5.7262,-5.6932,-5.6969,-5.7226,-5.6932,-5.7262,-5.7997,-5.7997,-5.7997,-5.7997,-5.7997,-5.7997,-5.7997,-5.7997,-5.7997,-5.7997,-5.7997,-5.7997,-5.7997,-5.7997,-5.7997,-5.7997,-5.7997,-5.7997,-5.7997,-5.7997,-5.7997,-5.7997,-5.7997,-5.7997,-5.7997,-5.7997,-5.7997,-5.7997,-5.7997,-5.7997,-5.7997,-5.7997,-5.7997,-5.7813,-5.7336,-5.7262,-5.7262,-5.7262,-5.7262,-5.7336,-5.7519,-5.6822,-5.5904,-5.4803,-5.3959,-5.3482,-5.3482,-5.1206,-4.9848,-4.9848,-4.9848,-4.9848,-4.9848,-4.9848,-4.9848,-4.9848,-4.9848,-4.9848,-4.9848,-5.0178,-5.0362,-5.2104,-5.192,-5.2096,-5.2526,0.0,0.0,-5.7232,-5.8326,0.0,0.0,0.0,0.0,0.0,0.0,0.0,0.0,-6.375,-6.4419,-6.4419,-6.3951,0.0,0.0,0.0,0.0,0.0,0.0,0.0,0.0,0.0,0.0,0.0,-5.7997,-5.7997,-5.7997,-5.7997,-5.7997,-5.7997,-5.7997,-5.7997,-5.7997,-5.7997,-5.7997,-5.7997,-5.7997,-5.7703,-5.7152,-5.6638,-5.6712,-5.7152,-5.6638,-5.7042,-5.7997,-5.7997,-5.7997,-5.7997,-5.7997,-5.7997,-5.7997,-5.7997,-5.7997,-5.7997,-5.7997,-5.7997,-5.7997,-5.7997,-5.7997,-5.7997,-5.7997,-5.7997,-5.7997,-5.7997,-5.7997,-5.7997,-5.7997,-5.7997,-5.7923,-5.7666,-5.7629,-5.7556,-5.7299,-5.7226,-5.7226,-5.7226,-5.7226,-5.7042,-5.6492,-5.6418,-5.6418,-5.6418,-5.6418,-5.6748,-5.7556,-5.7373,-5.6969,-5.6381,-5.5611,-5.517,-5.517,-5.3371,-5.2087,-5.1573,-5.1316,-5.1169,-5.1169,-5.0949,-5.0802,-5.0802,-5.0802,-5.0802,-5.0802,-5.1059,-5.1169,-5.3968,-5.2563,-5.1687,0.0,0.0,0.0,0.0,0.0,0.0,0.0,0.0,0.0,0.0,0.0,0.0,-6.1224,-6.2562,-6.3602,0.0,0.0,0.0,0.0,0.0,0.0,0.0,0.0,0.0,0.0,0.0,0.0,0.0,-5.7997,-5.7997,-5.7997,-5.7997,-5.7997,-5.7997,-5.7997,-5.7997,-5.7997,-5.7997,-5.7997,-5.7997,-5.7997,-5.7997,-5.7886,-5.6308,-5.6492,-5.785,-5.6271,-5.6565,-5.7997,-5.7997,-5.7997,-5.7997,-5.7997,-5.7997,-5.7997,-5.7997,-5.7997,-5.7997,-5.7997,-5.7997,-5.7997,-5.7997,-5.7997,-5.7997,-5.7997,-5.7997,-5.7997,-5.7997,-5.7997,-5.7997,-5.7997,-5.7997,-5.7776,-5.6969,-5.6822,-5.6602,-5.5757,-5.5633,-5.5633,-5.5611,-5.5633,-5.5633,-5.5574,-5.5574,-5.5574,-5.5574,-5.5596,-5.5904,-5.6712,-5.7483,-5.796,-5.796,-5.7262,-5.6822,-5.6822,-5.6051,-5.4913,-5.3277,-5.2454,-5.2013,-5.2013,-5.1242,-5.0839,-5.0839,-5.0839,-5.0839,-5.0875,-5.1646,-5.2013,-5.1558,-5.1585,0.0,-5.2744,0.0,0.0,0.0,0.0,0.0,0.0,0.0,0.0,0.0,0.0,0.0,-6.2041,-6.2933,-6.3602,0.0,0.0,0.0,0.0,0.0,0.0,0.0,0.0,0.0,0.0,0.0,0.0,0.0,-5.7997,-5.7997,-5.7997,-5.7997,-5.7997,-5.7997,-5.7997,-5.7997,-5.7997,-5.7997,-5.7997,-5.7997,-5.7997,-5.7703,-5.7116,-5.6051,-5.6198,-5.7152,-5.7262,-5.7556,-5.7997,-5.7997,-5.7997,-5.7997,-5.7997,-5.7997,-5.7997,-5.7997,-5.7997,-5.7997,-5.7997,-5.7997,-5.7997,-5.7997,-5.7997,-5.7997,-5.7997,-5.7997,-5.8143,-5.8694,-5.8437,-5.7997,-5.7997,-5.7556,-5.7262,-5.7556,-5.7629,-5.7556,-5.7336,-5.774,-5.7776,-5.6638,-5.6455,-5.6051,-5.4913,-5.4766,-5.4766,-5.4766,-5.5244,-5.5684,-5.5941,-5.6161,-5.6308,-5.6308,-5.6602,-5.6822,-5.6822,-5.7116,-5.6565,-5.495,-5.4656,-5.4531,-5.4531,-5.4289,-5.4179,-5.4179,-5.4179,-5.4179,-5.4179,-5.3849,-5.3702,-5.1585,-5.218,0.0,-5.4455,-5.6593,-5.8845,-6.0503,0.0,0.0,0.0,0.0,0.0,0.0,0.0,0.0,-6.2413,-6.3082,-6.3602,0.0,0.0,0.0,0.0,0.0,0.0,0.0,0.0,0.0,0.0,0.0,0.0,0.0,-5.7997,-5.7997,-5.7997,-5.7997,-5.7997,-5.7997,-5.7997,-5.7997,-5.7997,-5.7997,-5.7997,-5.7997,-5.7997,-5.774,-5.7262,-5.6748,-5.6638,-5.6859,-5.7666,-5.7997,-5.7997,-5.7997,-5.7997,-5.7997,-5.7997,-5.7997,-5.7997,-5.7997,-5.7997,-5.7997,-5.7997,-5.7997,-5.7997,-5.7997,-5.7997,-5.7997,-5.7997,-5.8217,-5.8584,-5.9074,-5.9098,-5.8951,-5.8951,-5.8327,-5.7886,-5.8364,-5.8474,-5.84,-5.807,-5.84,-5.8327,-5.7042,-5.6822,-5.6381,-5.506,-5.4583,-5.4289,-5.3959,-5.462,-5.5097,-5.5097,-5.539,-5.5596,-5.5596,-5.6051,-5.6308,-5.6308,-5.7079,-5.7079,-5.6124,-5.6088,-5.6088,-5.6088,-5.5757,-5.5596,-5.5596,-5.5596,-5.5596,-5.5574,-5.5097,-5.4693,-5.3082,0.0,0.0,-5.6968,-5.7956,0.0,-6.1847,0.0,-6.3602,0.0,0.0,0.0,0.0,0.0,-6.2524,-6.2524,0.0,0.0,0.0,0.0,0.0,0.0,0.0,0.0,0.0,0.0,0.0,0.0,0.0,0.0,0.0,-5.7997,-5.7997,-5.7997,-5.7997,-5.7997,-5.7997,-5.7997,-5.7997,-5.7997,-5.7997,-5.7997,-5.7997,-5.7997,-5.796,-5.7886,-5.796,-5.7556,-5.6859,-5.7666,-5.7997,-5.7997,-5.7997,-5.7997,-5.7997,-5.7997,-5.7997,-5.7997,-5.7997,-5.7997,-5.7997,-5.7997,-5.7997,-5.7997,-5.7997,-5.7997,-5.8033,-5.8107,-5.8657,-5.9221,-5.9368,-5.9905,-6.0456,-6.0603,-5.9881,-5.9221,-5.9294,-5.9294,-5.9074,-5.8364,-5.829,-5.8033,-5.7189,-5.7042,-5.6712,-5.5721,-5.4913,-5.4106,-5.3298,-5.3849,-5.4289,-5.4289,-5.495,-5.5354,-5.5354,-5.5427,-5.5486,-5.5486,-5.6235,-5.6712,-5.6712,-5.6822,-5.6932,-5.6932,-5.6198,-5.5816,-5.5816,-5.5816,-5.5816,-5.5816,-5.5721,-5.5317,0.0,-5.2883,0.0,0.0,0.0,0.0,0.0,0.0,0.0,0.0,0.0,0.0,0.0,0.0,0.0,0.0,0.0,0.0,0.0,0.0,0.0,0.0,0.0,0.0,0.0,0.0,0.0,0.0,0.0,0.0,-5.7997,-5.7997,-5.7997,-5.7997,-5.7997,-5.7997,-5.7997,-5.7997,-5.7997,-5.7997,-5.7997,-5.7997,-5.7997,-5.7997,-5.7666,-5.7079,-5.774,-5.7556,-5.6859,-5.7666,-5.7997,-5.7997,-5.7997,-5.7997,-5.7997,-5.7997,-5.7997,-5.7997,-5.7997,-5.7997,-5.7997,-5.7997,-5.7997,-5.7997,-5.7997,-5.7997,-5.8143,-5.8767,-5.9074,-5.9478,-6.075,-6.075,-6.0713,-6.1998,-6.0689,-5.9368,-6.0015,-6.0162,-6.0089,-5.9905,-6.0382,-6.0382,-5.8927,-5.8671,-5.7997,-5.5904,-5.4913,-5.4106,-5.3298,-5.3371,-5.3482,-5.3482,-5.3628,-5.3739,-5.3739,-5.4289,-5.4656,-5.4656,-5.539,-5.5868,-5.5868,-5.7079,-5.774,-5.774,-5.7556,-5.7483,-5.7483,-5.7483,-5.7483,-5.7483,-5.6859,-5.6455,0.0,0.0,0.0,0.0,0.0,0.0,0.0,0.0,0.0,0.0,0.0,0.0,0.0,0.0,0.0,0.0,0.0,0.0,0.0,0.0,0.0,0.0,0.0,0.0,0.0,0.0,0.0,0.0,0.0,-5.7997,-5.7997,-5.7629,-5.7593,-5.7997,-5.7629,-5.7593,-5.7997,-5.7997,-5.7997,-5.7997,-5.7997,-5.7997,-5.7997,-5.7997,-5.7776,-5.7409,-5.7813,-5.7776,-5.7409,-5.7813,-5.7997,-5.7997,-5.7997,-5.7997,-5.7997,-5.7997,-5.7997,-5.7997,-5.7997,-5.8042,-5.8088,-5.8088,-5.8133,-5.8156,-5.8111,-5.8088,-5.8249,-5.8988,-5.9478,-6.0052,-6.1263,-6.1557,-6.1777,-6.2597,-6.1557,-6.0566,-6.1374,-6.1557,-6.1557,-6.1557,-6.1887,-6.1777,-6.0566,-6.0052,-5.9098,-5.7042,-5.6381,-5.5684,-5.4509,-5.4363,-5.4363,-5.4363,-5.4363,-5.4179,-5.3812,-5.4179,-5.4252,-5.3849,-5.4583,-5.5023,-5.5023,-5.6198,-5.7042,-5.7409,-5.7813,-5.7997,-5.7997,-5.7997,-5.7997,-5.7997,-5.7556,-5.7189,0.0,0.0,0.0,0.0,0.0,0.0,0.0,0.0,0.0,0.0,0.0,0.0,0.0,0.0,0.0,0.0,0.0,0.0,0.0,0.0,0.0,0.0,0.0,0.0,0.0,0.0,0.0,0.0,0.0,-5.7923,-5.7813,-5.7152,-5.7116,-5.7776,-5.7152,-5.7189,-5.7997,-5.7997,-5.7997,-5.7997,-5.7997,-5.7997,-5.7997,-5.7997,-5.7997,-5.7997,-5.7997,-5.7997,-5.7997,-5.7997,-5.7997,-5.7997,-5.7997,-5.7997,-5.7997,-5.7997,-5.7997,-5.7997,-5.802,-5.8088,-5.8179,-5.8238,-5.8305,-5.8371,-5.826,-5.8289,-5.8561,-5.9231,-6.0015,-6.0786,-6.1594,-6.2291,-6.278,-6.278,-6.2291,-6.1998,-6.2658,-6.278,-6.278,-6.278,-6.278,-6.2585,-6.1924,-6.1153,-6.0126,-5.8621,-5.818,-5.7483,-5.5978,-5.5684,-5.5596,-5.5596,-5.5596,-5.5317,-5.4656,-5.4473,-5.4106,-5.3445,-5.3922,-5.4179,-5.4179,-5.495,-5.5721,-5.6381,-5.7299,-5.785,-5.7997,-5.7997,-5.7997,-5.7997,-5.7997,-5.7629,0.0,0.0,0.0,0.0,0.0,0.0,0.0,0.0,0.0,0.0,0.0,0.0,0.0,0.0,0.0,0.0,0.0,0.0,0.0,0.0,0.0,0.0,0.0,0.0,0.0,0.0,0.0,0.0,-5.8065,-5.7703,-5.7005,-5.6859,-5.6859,-5.6969,-5.6859,-5.7189,-5.7997,-5.7997,-5.7997,-5.7997,-5.7997,-5.7997,-5.7997,-5.7997,-5.7997,-5.7997,-5.7997,-5.7997,-5.7997,-5.7997,-5.7997,-5.7997,-5.7997,-5.7997,-5.7997,-5.7997,-5.7997,-5.802,-5.8111,-5.8215,-5.8238,-5.8349,-5.8393,-5.8371,-5.826,-5.8694,-5.9371,-6.0039,-6.0823,-6.163,-6.2438,-6.2707,-6.278,-6.278,-6.2707,-6.267,-6.278,-6.278,-6.278,-6.278,-6.278,-6.2743,-6.2658,-6.1961,-6.1117,-6.0236,-5.8877,-5.7666,-5.6748,-5.6014,-5.5596,-5.5596,-5.5596,-5.5537,-5.5427,-5.4803,-5.4363,-5.4252,-5.3702,-5.3371,-5.3371,-5.4142,-5.462,-5.473,-5.6198,-5.7299,-5.7997,-5.7997,-5.7997,-5.7997,-5.7997,-5.7923,0.0,0.0,0.0,0.0,0.0,0.0,0.0,0.0,0.0,0.0,0.0,0.0,0.0,0.0,0.0,0.0,0.0,0.0,0.0,0.0,0.0,0.0,0.0,0.0,0.0,0.0,0.0,0.0,-5.8065,-5.7666,-5.6859,-5.6381,-5.6124,-5.6124,-5.5684,-5.6051,-5.7336,-5.7336,-5.7556,-5.7997,-5.7997,-5.7997,-5.7997,-5.7997,-5.7997,-5.7997,-5.7997,-5.7997,-5.7997,-5.7997,-5.7997,-5.7997,-5.7997,-5.7997,-5.7997,-5.7997,-5.8042,-5.8111,-5.8156,-5.8268,-5.8378,-5.8443,-5.8486,-5.8545,-5.8371,-5.888,-5.9646,-6.021,-6.097,-6.1777,-6.2585,-6.278,-6.278,-6.278,-6.278,-6.278,-6.278,-6.278,-6.278,-6.278,-6.278,-6.278,-6.278,-6.2511,-6.1998,-6.119,-6.0456,-5.9575,-5.8304,-5.785,-5.7446,-5.6969,-5.6932,-5.6748,-5.6308,-5.5941,-5.5537,-5.5097,-5.4326,-5.3885,-5.3885,-5.3775,-5.3959,-5.4399,-5.5978,-5.6969,-5.7336,-5.7776,-5.7997,-5.7997,-5.7997,-5.7997,0.0,0.0,0.0,0.0,0.0,0.0,0.0,0.0,0.0,0.0,0.0,0.0,0.0,0.0,0.0,0.0,0.0,0.0,0.0,0.0,0.0,0.0,0.0,0.0,0.0,0.0,0.0,0.0,-5.7817,-5.7285,-5.6271,-5.5611,-5.528,-5.528,-5.4693,-5.517,-5.6785,-5.7005,-5.7409,-5.7997,-5.7997,-5.7997,-5.7997,-5.7997,-5.7997,-5.7997,-5.7997,-5.7997,-5.7997,-5.7997,-5.7997,-5.7997,-5.7997,-5.7997,-5.7997,-5.7997,-5.8065,-5.8179,-5.826,-5.8356,-5.8529,-5.8551,-5.8614,-5.8693,-5.8761,-5.9302,-6.001,-6.0612,-6.1324,-6.2034,-6.2633,-6.278,-6.278,-6.278,-6.278,-6.278,-6.278,-6.278,-6.278,-6.278,-6.278,-6.278,-6.278,-6.278,-6.2622,-6.1998,-6.1741,-6.1153,-5.9979,-5.9648,-5.9208,-5.84,-5.829,-5.7997,-5.7189,-5.6932,-5.6528,-5.5941,-5.5133,-5.462,-5.4399,-5.3812,-5.3702,-5.4106,-5.5464,-5.6381,-5.6822,-5.7409,-5.7813,-5.7997,-5.7997,-5.7997,0.0,0.0,0.0,0.0,0.0,0.0,0.0,0.0,0.0,0.0,0.0,0.0,0.0,0.0,0.0,0.0,0.0,0.0,0.0,0.0,0.0,0.0,0.0,0.0,0.0,0.0,0.0,0.0,-5.7118,-5.6309,-5.462,-5.4473,-5.4473,-5.4473,-5.4436,-5.517,-5.6785,-5.7556,-5.796,-5.7997,-5.7997,-5.7997,-5.7997,-5.7997,-5.7997,-5.7997,-5.7997,-5.7997,-5.7997,-5.7997,-5.7997,-5.7997,-5.7997,-5.7997,-5.7997,-5.7997,-5.8065,-5.8238,-5.8349,-5.8422,-5.8492,-5.8656,-5.8677,-5.8826,-5.9514,-6.0219,-6.0859,-6.1553,-6.2242,-6.2743,-6.278,-6.278,-6.278,-6.278,-6.278,-6.278,-6.278,-6.278,-6.278,-6.278,-6.278,-6.278,-6.278,-6.278,-6.2805,-6.2743,-6.2108,-6.1557,-6.1484,-6.0823,-6.0052,-5.9221,-5.9148,-5.8804,-5.7997,-5.7262,-5.6785,-5.6748,-5.5978,-5.5207,-5.4436,-5.4363,-5.3995,-5.3277,-5.4106,-5.528,-5.6822,-5.6859,-5.7262,-5.7997,-5.7997,-5.7997,0.0,0.0,0.0,0.0,0.0,0.0,0.0,0.0,0.0,0.0,0.0,0.0,0.0,0.0,0.0,0.0,0.0,0.0,0.0,0.0,0.0,0.0,0.0,0.0,0.0,0.0,0.0,0.0,0.0,-5.5683,-5.4473,-5.4399,-5.4179,-5.3665,-5.3628,-5.4142,-5.5244,-5.6565,-5.7226,-5.7262,-5.774,-5.7997,-5.7997,-5.7997,-5.7997,-5.7997,-5.7997,-5.7997,-5.7997,-5.7997,-5.7997,-5.7997,-5.7997,-5.7997,-5.7997,-5.7997,-5.8133,-5.8349,-5.8371,-5.8523,-5.8635,-5.8677,-5.9069,-5.9531,-5.9721,-6.0626,-6.1597,-6.1737,-6.2279,-6.278,-6.278,-6.278,-6.278,-6.278,-6.278,-6.278,-6.278,-6.278,-6.278,-6.278,-6.278,-6.278,-6.278,-6.278,-6.278,-6.278,-6.2548,-6.2181,-6.1667,-6.1337,-6.0676,-5.9331,-5.9184,-5.8877,-5.807,-5.774,-5.7556,-5.7556,-5.6822,-5.6235,-5.5941,-5.495,-5.4252,-5.3995,-5.3739,-5.4179,-5.528,-5.6308,-5.6969,-5.7262,-5.7776,-5.7997,-4.3925,0.0,0.0,0.0,0.0,0.0,0.0,0.0,0.0,0.0,0.0,0.0,0.0,0.0,0.0,0.0,0.0,0.0,0.0,0.0,0.0,0.0,0.0,0.0,0.0,0.0,0.0,0.0,0.0,0.0,-5.4096,-5.4017,-5.3739,-5.3203,-5.3482,-5.3849,-5.4399,-5.6014,-5.6822,-5.6822,-5.7629,-5.7997,-5.7997,-5.7997,-5.7997,-5.7997,-5.7997,-5.7997,-5.7997,-5.7997,-5.7997,-5.7997,-5.7997,-5.7997,-5.7997,-5.8042,-5.8215,-5.8393,-5.8437,-5.8529,-5.8698,-5.8698,-5.9255,-5.994,-6.0209,-6.1092,-6.2063,-6.2227,-6.2524,-6.278,-6.278,-6.278,-6.278,-6.278,-6.278,-6.278,-6.278,-6.278,-6.278,-6.278,-6.278,-6.278,-6.278,-6.278,-6.278,-6.278,-6.278,-6.2622,-6.2071,-6.1998,-6.1484,-6.0162,-5.9735,-5.9281,-5.8474,-5.8143,-5.7997,-5.7997,-5.7483,-5.7079,-5.6822,-5.5794,-5.495,-5.4399,-5.3885,-5.3739,-5.3995,-5.5354,-5.6124,-5.6418,-5.6932,-5.7336,0.0,0.0,0.0,0.0,0.0,0.0,0.0,0.0,0.0,0.0,0.0,0.0,0.0,0.0,0.0,0.0,0.0,0.0,0.0,0.0,0.0,0.0,0.0,0.0,0.0,0.0,0.0,0.0,-5.5225,-5.4289,-5.3355,-5.323,-5.3203,-5.3225,-5.3959,-5.4363,-5.4363,-5.5978,-5.6785,-5.6785,-5.7593,-5.7997,-5.7997,-5.7997,-5.7997,-5.7997,-5.7997,-5.7997,-5.7997,-5.7997,-5.7997,-5.7997,-5.7997,-5.7997,-5.802,-5.8133,-5.8282,-5.8415,-5.8486,-5.8593,-5.8698,-5.8698,-5.9255,-6.011,-6.0964,-6.1604,-6.2197,-6.2973,-6.3002,-6.2805,-6.278,-6.278,-6.278,-6.278,-6.278,-6.278,-6.278,-6.278,-6.278,-6.278,-6.278,-6.278,-6.278,-6.278,-6.278,-6.278,-6.278,-6.278,-6.278,-6.278,-6.2511,-6.1704,-6.0896,-6.0089,-5.9258,-5.8474,-5.7997,-5.7997,-5.7997,-5.7666,-5.6859,-5.6822,-5.6051,-5.4473,-5.4399,-5.3995,-5.3203,-5.3995,-5.4803,-5.5596,-5.5574,-5.6014,-4.2218,0.0,0.0,0.0,0.0,0.0,0.0,0.0,0.0,0.0,0.0,0.0,0.0,0.0,0.0,0.0,0.0,0.0,0.0,0.0,0.0,0.0,0.0,0.0,0.0,0.0,0.0,0.0,-5.5323,-5.4408,-5.3355,-5.323,-5.3209,-5.3256,-5.345,-5.3555,-5.3555,-5.5133,-5.5941,-5.5941,-5.7336,-5.7997,-5.7997,-5.7997,-5.7997,-5.7997,-5.7997,-5.7997,-5.7997,-5.7997,-5.7997,-5.7997,-5.7997,-5.7997,-5.802,-5.8133,-5.8282,-5.8415,-5.8486,-5.8593,-5.8698,-5.8698,-5.9664,-6.089,-6.115,-6.2042,-6.3053,-6.3181,-6.3075,-6.2929,-6.283,-6.278,-6.278,-6.278,-6.278,-6.278,-6.278,-6.278,-6.278,-6.278,-6.278,-6.278,-6.278,-6.278,-6.278,-6.278,-6.278,-6.278,-6.278,-6.278,-6.2511,-6.1704,-6.0896,-6.0089,-5.9258,-5.8474,-5.7997,-5.7997,-5.7997,-5.7886,-5.7666,-5.7116,-5.6308,-5.528,-5.4693,-5.3995,-5.3203,-5.3995,-5.4509,-5.473,-5.5317,-5.5721,0.0,0.0,0.0,0.0,0.0,0.0,0.0,-4.8894,0.0,0.0,0.0,0.0,0.0,0.0,0.0,0.0,0.0,0.0,0.0,0.0,0.0,0.0,0.0,0.0,0.0,-5.7992,-5.7266,-5.6722,-5.5586,-5.4448,-5.3437,-5.3272,-5.323,-5.3297,-5.323,-5.3203,-5.3203,-5.4803,-5.5596,-5.5611,-5.7226,-5.7997,-5.7997,-5.7997,-5.7997,-5.7997,-5.7997,-5.7997,-5.7997,-5.7997,-5.7997,-5.7997,-5.7997,-5.8042,-5.8088,-5.8238,-5.8371,-5.8443,-5.8551,-5.8635,-5.8772,-5.9107,-6.011,-6.1261,-6.1596,-6.2509,-6.3359,-6.3255,-6.3051,-6.2904,-6.288,-6.283,-6.278,-6.278,-6.278,-6.278,-6.278,-6.278,-6.278,-6.278,-6.278,-6.278,-6.278,-6.278,-6.278,-6.278,-6.278,-6.278,-6.278,-6.278,-6.2622,-6.2144,-6.1374,-6.0566,-5.9795,-5.8988,-5.8364,-5.8033,-5.7997,-5.7997,-5.7997,-5.7556,-5.6748,-5.5611,-5.5133,-5.4326,-5.3203,-5.3665,-5.3922,-5.3922,-5.473,-5.5097,0.0,0.0,0.0,0.0,0.0,0.0,-4.7853,-4.7971,-4.8406,0.0,0.0,0.0,0.0,0.0,0.0,0.0,0.0,0.0,0.0,0.0,0.0,0.0,0.0,0.0,-5.8698,-5.8066,-5.7621,-5.7509,-5.5886,-5.4489,-5.3575,-5.3334,-5.3251,-5.3297,-5.3251,-5.3261,-5.3335,-5.484,-5.5647,-5.5757,-5.7262,-5.7997,-5.7997,-5.7997,-5.7997,-5.7997,-5.7997,-5.7997,-5.7997,-5.7997,-5.7997,-5.7997,-5.7997,-5.8065,-5.8238,-5.8349,-5.8422,-5.8492,-5.8656,-5.8698,-5.8846,-5.9664,-6.0481,-6.1373,-6.2153,-6.288,-6.3382,-6.3242,-6.3026,-6.2855,-6.2978,-6.2904,-6.278,-6.278,-6.278,-6.278,-6.278,-6.278,-6.278,-6.278,-6.278,-6.278,-6.278,-6.278,-6.278,-6.278,-6.278,-6.278,-6.278,-6.278,-6.278,-6.278,-6.2071,-6.13,-6.0603,-5.9698,-5.8914,-5.818,-5.8033,-5.7997,-5.7997,-5.7997,-5.7226,-5.5633,-5.5427,-5.462,-5.3203,-5.3203,-5.3203,-5.3203,-5.3922,-5.4289,0.0,0.0,0.0,0.0,0.0,0.0,-4.3266,-4.3131,-4.407,0.0,0.0,0.0,0.0,0.0,0.0,0.0,0.0,0.0,0.0,0.0,0.0,0.0,0.0,0.0,-5.8698,-5.8549,-5.8215,-5.7546,-5.5886,-5.4546,-5.3711,-5.3518,-5.338,-5.3318,-5.3297,-5.3566,-5.4179,-5.5097,-5.5941,-5.6602,-5.7556,-5.7997,-5.7997,-5.7997,-5.7997,-5.7997,-5.7997,-5.7997,-5.7997,-5.7997,-5.7997,-5.7997,-5.7997,-5.8065,-5.8238,-5.8349,-5.8422,-5.8492,-5.8656,-5.8698,-5.8846,-5.9664,-6.0481,-6.1373,-6.2153,-6.2948,-6.3534,-6.3419,-6.3171,-6.2978,-6.3002,-6.2904,-6.278,-6.278,-6.278,-6.278,-6.278,-6.278,-6.278,-6.278,-6.278,-6.278,-6.278,-6.278,-6.278,-6.278,-6.278,-6.278,-6.278,-6.278,-6.278,-6.278,-6.2071,-6.152,-6.1374,-6.0052,-5.9111,-5.8964,-5.8364,-5.7997,-5.7997,-5.7997,-5.7226,-5.5633,-5.4326,-5.3518,-5.3203,-5.3203,-5.3203,-5.3203,-5.3371,-5.3424,0.0,0.0,0.0,-4.5606,0.0,0.0,0.0,-4.2462,-4.2948,-4.6437,0.0,0.0,0.0,0.0,0.0,0.0,0.0,0.0,0.0,0.0,0.0,0.0,0.0,0.0,-5.889,-5.8784,-5.8215,-5.6989,-5.6034,-5.4973,-5.3788,-5.3578,-5.344,-5.3318,-5.3686,-5.4065,-5.4399,-5.5611,-5.6418,-5.6822,-5.7629,-5.7997,-5.7997,-5.7997,-5.7997,-5.7997,-5.7997,-5.7997,-5.7997,-5.7997,-5.8042,-5.8088,-5.8088,-5.8156,-5.8327,-5.84,-5.8508,-5.8614,-5.8677,-5.8958,-5.9441,-6.0295,-6.1113,-6.1967,-6.2747,-6.3222,-6.3511,-6.3511,-6.3242,-6.3026,-6.3075,-6.2953,-6.278,-6.278,-6.278,-6.278,-6.278,-6.278,-6.278,-6.278,-6.278,-6.278,-6.278,-6.278,-6.278,-6.278,-6.278,-6.278,-6.278,-6.278,-6.278,-6.278,-6.2438,-6.2034,-6.163,-6.0493,-5.9648,-5.9221,-5.8437,-5.7997,-5.7997,-5.7997,-5.7226,-5.5633,-5.4399,-5.3592,-5.3203,-5.3203,-5.3203,-5.3203,-5.3203,-5.3203,0.0,0.0,0.0,0.0,0.0,-4.3505,0.0,0.0,0.0,-4.5419,0.0,0.0,0.0,0.0,0.0,0.0,0.0,0.0,0.0,0.0,0.0,0.0,0.0,0.0,-5.8408,-5.8106,-5.7424,-5.6476,-5.584,-5.4961,-5.3751,-5.3617,-5.3555,-5.358,-5.4186,-5.4659,-5.492,-5.6161,-5.6895,-5.7042,-5.7703,-5.802,-5.8042,-5.802,-5.802,-5.8042,-5.802,-5.7997,-5.7997,-5.7997,-5.8065,-5.8179,-5.8179,-5.8305,-5.8437,-5.8486,-5.8593,-5.8698,-5.8698,-5.9255,-6.0035,-6.0927,-6.1856,-6.2747,-6.3416,-6.3534,-6.3465,-6.3557,-6.3349,-6.3051,-6.3147,-6.2978,-6.278,-6.278,-6.278,-6.278,-6.278,-6.278,-6.278,-6.278,-6.278,-6.278,-6.278,-6.278,-6.278,-6.278,-6.278,-6.278,-6.278,-6.278,-6.278,-6.278,-6.278,-6.2548,-6.1887,-6.097,-6.0126,-5.9478,-5.8547,-5.7997,-5.7997,-5.785,-5.7152,-5.5868,-5.4876,-5.4069,-5.3424,-5.3277,-5.3203,-5.3203,-5.3203,-5.3203,0.0,0.0,0.0,0.0,-4.5455,0.0,0.0,0.0,-4.157,-4.1255,0.0,0.0,0.0,0.0,0.0,0.0,0.0,0.0,0.0,0.0,0.0,0.0,0.0,0.0,0.0,-5.5205,-5.5262,-5.6646,-5.4643,-5.3457,-5.3696,-5.3754,-5.3992,-5.4515,-5.4642,-5.5318,-5.6684,-5.6757,-5.7152,-5.785,-5.796,-5.8065,-5.8156,-5.8042,-5.8065,-5.8156,-5.8042,-5.7997,-5.7997,-5.7997,-5.8065,-5.8179,-5.8179,-5.8312,-5.8508,-5.8508,-5.8593,-5.8698,-5.8698,-5.9255,-6.0035,-6.0927,-6.2227,-6.349,-6.3565,-6.3579,-6.3579,-6.3579,-6.3396,-6.3171,-6.3208,-6.2978,-6.278,-6.278,-6.278,-6.278,-6.278,-6.278,-6.278,-6.278,-6.278,-6.278,-6.278,-6.278,-6.278,-6.278,-6.278,-6.278,-6.278,-6.278,-6.278,-6.278,-6.278,-6.2768,-6.267,-6.1263,-6.0382,-6.0272,-5.8841,-5.7997,-5.7997,-5.7336,-5.6859,-5.6675,-5.517,-5.4363,-5.4252,-5.3555,-5.3203,-5.3203,-5.3203,-5.3203,0.0,0.0,0.0,0.0,0.0,0.0,-4.1384,0.0,-4.0365,0.0,0.0,0.0,0.0,0.0,0.0,0.0,0.0,0.0,0.0,0.0,0.0,0.0,0.0,0.0,0.0,0.0,0.0,0.0,-5.3907,-5.3212,-5.3659,-5.4219,-5.4551,-5.472,-5.5685,-5.6472,-5.7,-5.7398,-5.7735,-5.7997,-5.7997,-5.8065,-5.8179,-5.8133,-5.8133,-5.8179,-5.8201,-5.8215,-5.8111,-5.8179,-5.829,-5.8378,-5.8378,-5.8443,-5.8566,-5.9112,-5.9361,-5.9478,-5.9998,-6.0704,-6.1484,-6.2339,-6.3044,-6.3602,-6.3602,-6.3602,-6.3602,-6.3602,-6.3419,-6.3194,-6.3194,-6.2978,-6.278,-6.278,-6.278,-6.278,-6.278,-6.278,-6.278,-6.278,-6.278,-6.278,-6.278,-6.278,-6.278,-6.278,-6.278,-6.278,-6.278,-6.278,-6.278,-6.278,-6.278,-6.278,-6.278,-6.1741,-6.0896,-6.0419,-5.8877,-5.7997,-5.7997,-5.7666,-5.7042,-5.6124,-5.5904,-5.5097,-5.3702,-5.3849,-5.3665,-5.3203,-5.3203,-5.3203,-5.0259,0.0,0.0,0.0,0.0,0.0,0.0,0.0,0.0,0.0,0.0,0.0,0.0,0.0,0.0,0.0,0.0,0.0,0.0,0.0,0.0,0.0,0.0,0.0,0.0,0.0,0.0,0.0,0.0,-5.2231,-5.3327,-5.4219,-5.4793,-5.5135,-5.6545,-5.7312,-5.7376,-5.7943,-5.8111,-5.7997,-5.7997,-5.8065,-5.8179,-5.8179,-5.8238,-5.8282,-5.8349,-5.8349,-5.8282,-5.8371,-5.8422,-5.8492,-5.8492,-5.8513,-5.8646,-5.9584,-5.9903,-6.0014,-6.089,-6.1744,-6.2524,-6.3342,-6.3602,-6.3602,-6.3602,-6.3602,-6.3602,-6.3602,-6.3419,-6.3194,-6.3194,-6.2978,-6.278,-6.278,-6.278,-6.278,-6.278,-6.278,-6.278,-6.278,-6.278,-6.278,-6.278,-6.278,-6.278,-6.278,-6.278,-6.278,-6.278,-6.278,-6.278,-6.278,-6.278,-6.278,-6.278,-6.2071,-6.1263,-6.0456,-5.9098,-5.8327,-5.8327,-5.8107,-5.7446,-5.6271,-5.6381,-5.5611,-5.3849,-5.3995,-5.3775,-5.3203,-5.3203,-5.3203,0.0,0.0,0.0,-4.5687,0.0,0.0,0.0,0.0,-4.1549,0.0,0.0,0.0,0.0,0.0,0.0,0.0,0.0,0.0,0.0,0.0,0.0,0.0,0.0,0.0,0.0,0.0,0.0,0.0,-5.0544,0.0,-5.2494,-5.3423,-5.4574,-5.6189,-5.6941,-5.7651,-5.8356,-5.8246,-5.8111,-5.7997,-5.7997,-5.8065,-5.8179,-5.8179,-5.8282,-5.8393,-5.8393,-5.8393,-5.8393,-5.8393,-5.8422,-5.8492,-5.8492,-5.8593,-5.8788,-5.9605,-5.9903,-6.0014,-6.089,-6.1744,-6.2524,-6.3342,-6.3602,-6.3602,-6.3602,-6.3602,-6.3602,-6.3602,-6.3419,-6.3194,-6.3194,-6.2978,-6.278,-6.278,-6.278,-6.278,-6.278,-6.278,-6.278,-6.278,-6.278,-6.278,-6.278,-6.278,-6.278,-6.278,-6.278,-6.278,-6.278,-6.278,-6.278,-6.278,-6.278,-6.278,-6.278,-6.2071,-6.1263,-6.0456,-5.9625,-5.9148,-5.9148,-5.84,-5.796,-5.7923,-5.6418,-5.5596,-5.5522,-5.3995,-5.3203,-5.3203,-5.3203,-5.3203,0.0,0.0,-5.2361,-4.8187,0.0,0.0,0.0,0.0,0.0,0.0,0.0,0.0,0.0,0.0,0.0,0.0,0.0,0.0,0.0,0.0,0.0,0.0,0.0,0.0,0.0,0.0,0.0,0.0,-5.0279,0.0,0.0,-5.4163,-5.5361,-5.6246,-5.7023,-5.7756,-5.8465,-5.8393,-5.8282,-5.8111,-5.8042,-5.8065,-5.8179,-5.8305,-5.8349,-5.8393,-5.8545,-5.8529,-5.8465,-5.8551,-5.8593,-5.8635,-5.8635,-5.899,-5.9627,-6.0444,-6.0778,-6.0964,-6.2339,-6.297,-6.3267,-6.3527,-6.3602,-6.3602,-6.3602,-6.3602,-6.3579,-6.3511,-6.3349,-6.3171,-6.3099,-6.2929,-6.278,-6.278,-6.278,-6.278,-6.278,-6.278,-6.278,-6.278,-6.278,-6.278,-6.278,-6.278,-6.278,-6.278,-6.278,-6.278,-6.278,-6.278,-6.278,-6.278,-6.278,-6.278,-6.278,-6.2071,-6.1484,-6.119,-5.9942,-5.9184,-5.9184,-5.8437,-5.774,-5.7226,-5.7189,-5.6381,-5.4803,-5.4803,-5.4252,-5.3203,-5.3203,-5.3203,-5.2454,-5.3446,0.0,-5.0011,-4.9034,0.0,-4.3938,0.0,-4.4588,0.0,0.0,0.0,0.0,0.0,0.0,0.0,0.0,0.0,0.0,0.0,0.0,0.0,0.0,0.0,0.0,0.0,-4.8029,-5.0054,0.0,0.0,0.0,0.0,-5.5452,-5.6246,-5.736,-5.8116,-5.8492,-5.8443,-5.8371,-5.8179,-5.8111,-5.8088,-5.8133,-5.8327,-5.8393,-5.8415,-5.8593,-5.8656,-5.8593,-5.8614,-5.8656,-5.8677,-5.8656,-5.9139,-6.0035,-6.089,-6.1558,-6.219,-6.3267,-6.3602,-6.3602,-6.3602,-6.3602,-6.3602,-6.3602,-6.3602,-6.3579,-6.3465,-6.3289,-6.3147,-6.3026,-6.2904,-6.278,-6.278,-6.278,-6.278,-6.278,-6.278,-6.278,-6.278,-6.278,-6.278,-6.278,-6.278,-6.278,-6.278,-6.278,-6.278,-6.278,-6.278,-6.278,-6.278,-6.278,-6.278,-6.278,-6.2328,-6.2034,-6.2034,-6.0529,-5.9648,-5.9648,-5.8584,-5.7776,-5.7262,-5.7446,-5.6675,-5.484,-5.506,-5.4473,-5.3203,-5.3203,-5.3203]},{"header":{"parameterUnit":"m.s-1","parameterCategory":1,"la1":30.6,"la2":29.2853,"lo1":-89.7004,"lo2":-87.6739,"dy":0.0162,"dx":0.0183,"nx":112,"ny":82,"refTime":"2025-03-07T06:00:00:Z","depth":0,"parameterNumber":3,"parameterNumberName":"V-component_of_WINDS"},"data":[0.0,0.0,0.0,0.0,0.0,0.0,0.0,0.0,0.0,0.0,0.0,0.0,0.0,0.0,0.0,0.0,0.0,0.0,0.0,0.0,0.0,0.0,0.0,0.0,0.0,0.0,0.0,0.0,0.0,0.0,0.0,0.0,0.0,0.0,0.0,0.0,0.0,0.0,0.0,0.0,0.0,0.0,0.0,0.0,0.0,0.0,0.0,0.0,0.0,0.0,0.0,0.0,0.0,0.0,0.0,0.0,0.0,0.0,0.0,0.0,0.0,0.0,0.0,0.0,0.0,0.0,0.0,0.0,0.0,0.0,0.0,0.0,0.0,0.0,0.0,0.0,0.0,0.0,0.0,0.0,0.0,0.0,0.0,0.0,0.0,0.0,0.0,0.0,0.0,0.0,1.417,1.3716,1.4319,1.4685,1.4511,1.3924,1.3124,1.2031,0.0,0.0,0.0,0.0,0.0,0.0,0.0,0.0,0.0,0.0,0.0,0.0,0.0,0.0,0.0,0.0,0.0,0.0,0.0,0.0,0.0,0.0,0.0,0.0,0.0,0.0,0.0,0.0,0.0,0.0,0.0,0.0,0.0,0.0,0.0,0.0,0.0,0.0,0.0,0.0,0.0,0.0,0.0,0.0,0.0,0.0,0.0,0.0,0.0,0.0,0.0,0.0,0.0,0.0,0.0,0.0,0.0,0.0,0.0,0.0,0.0,0.0,0.0,0.0,0.0,0.0,0.0,0.0,0.0,0.0,0.0,0.0,0.0,0.0,0.0,0.0,0.0,0.0,0.0,0.0,0.0,0.0,0.0,0.0,0.0,0.0,0.0,0.0,0.0,0.0,0.0,0.0,0.0,0.0,0.0,0.0,0.0,0.0,0.0,0.0,0.0,0.0,0.0,0.0,1.5908,1.7375,1.671,1.5993,1.5799,1.4225,1.2848,1.2077,0.0,0.0,0.0,0.0,0.0,0.0,0.0,0.0,0.0,0.0,0.0,0.0,0.0,0.0,0.0,0.0,0.0,0.0,0.0,0.0,0.0,0.0,0.0,0.0,0.0,0.0,0.0,0.0,0.0,0.0,0.0,0.0,0.0,0.0,0.0,0.0,0.0,0.0,0.0,0.0,0.0,0.0,0.0,0.0,0.0,0.0,0.0,0.0,0.0,0.0,0.0,0.0,0.0,0.0,0.0,0.0,0.0,0.0,0.0,0.0,0.0,0.0,0.0,0.0,0.0,0.0,0.0,0.0,0.0,0.0,0.0,0.0,0.0,0.0,0.0,0.0,0.0,0.0,0.0,0.0,0.0,0.0,0.0,0.0,0.0,0.0,0.0,0.0,0.0,0.0,0.0,0.0,0.0,0.0,0.0,0.0,0.0,0.0,0.0,0.0,0.0,0.0,0.0,1.5731,1.6422,1.7863,1.7524,1.6797,1.5829,1.4742,1.3457,1.2069,1.1435,0.0,0.0,0.0,0.0,0.0,0.0,0.0,0.0,0.0,0.0,0.0,0.0,0.0,0.0,0.0,0.0,0.0,0.0,0.0,0.0,0.0,0.0,0.0,0.0,0.0,0.0,0.0,0.0,0.0,0.0,0.0,0.0,0.0,0.0,0.0,0.0,0.0,0.0,0.0,0.0,0.0,0.0,0.0,0.0,0.0,0.0,0.0,0.0,0.0,0.0,0.0,0.0,0.0,0.0,0.0,0.0,0.0,0.0,0.0,0.0,0.0,0.0,0.0,0.0,0.0,0.0,0.0,0.0,0.0,0.0,0.0,0.0,0.0,0.0,0.0,0.0,0.0,0.0,0.0,0.0,0.0,0.0,0.0,0.0,0.0,0.0,0.0,0.0,0.0,0.0,0.0,0.0,0.0,0.0,0.0,0.0,0.0,0.0,0.0,0.0,0.0,0.0,1.7749,1.7655,1.8606,1.8519,1.7784,1.6473,1.542,1.4116,1.2481,1.1364,0.0,0.0,0.0,0.0,0.0,0.0,0.0,0.0,0.0,0.0,0.0,0.0,0.0,0.0,0.0,0.0,0.0,0.0,0.0,0.0,0.0,0.0,0.0,0.0,0.0,0.0,0.0,0.0,0.0,0.0,0.0,0.0,0.0,0.0,0.0,0.0,0.0,0.0,0.0,0.0,0.0,0.0,0.0,0.0,0.0,0.0,0.0,0.0,0.0,0.0,0.0,0.0,0.0,0.0,0.0,0.0,0.0,0.0,0.0,0.0,0.0,0.0,0.0,0.0,0.0,0.0,0.0,0.0,0.0,0.0,0.0,0.0,0.0,0.0,0.0,0.0,0.0,0.0,0.0,0.0,0.0,0.0,0.0,0.0,0.0,0.0,0.0,0.0,0.0,0.0,0.0,0.0,0.0,0.0,0.0,0.0,0.0,0.0,0.0,0.0,0.0,0.0,1.9958,2.0963,2.1648,2.0468,1.9561,1.9221,1.6275,1.4133,1.3556,1.1463,0.0,0.0,0.0,0.0,0.0,0.0,0.0,0.0,0.0,0.0,0.0,0.0,0.0,0.0,0.0,0.0,0.0,0.0,0.0,0.0,0.0,0.0,0.0,0.0,0.0,0.0,0.0,0.0,0.0,0.0,0.0,0.0,0.0,0.0,0.0,0.0,0.0,0.0,0.0,0.0,0.0,0.0,0.0,0.0,0.0,0.0,0.0,0.0,0.0,0.0,0.0,0.0,0.0,0.0,0.0,0.0,0.0,0.0,0.0,0.0,0.0,0.0,0.0,0.0,0.0,0.0,0.0,0.0,0.0,0.0,0.0,0.0,0.0,0.0,0.0,0.0,0.0,0.0,0.0,0.0,0.0,0.0,0.0,0.0,0.0,0.0,0.0,0.0,0.0,0.0,0.0,0.0,0.0,0.0,0.0,0.0,0.0,0.0,0.0,0.0,0.0,0.0,1.972,2.0655,0.0,2.1254,2.041,1.9051,1.7782,1.5939,1.3307,0.0,0.0,0.0,0.0,0.0,0.0,0.0,0.0,0.0,0.0,0.0,0.0,0.0,0.0,0.0,0.0,0.0,0.0,0.0,0.0,0.0,0.0,0.0,0.0,0.0,0.0,0.0,0.0,0.0,0.0,0.0,0.0,0.0,0.0,0.0,0.0,0.0,0.0,0.0,0.0,0.0,0.0,0.0,0.0,0.0,0.0,0.0,0.0,0.0,0.0,0.0,0.0,0.0,0.0,0.0,0.0,0.0,0.0,0.0,0.0,0.0,0.0,0.0,0.0,0.0,0.0,0.0,0.0,0.0,0.0,0.0,0.0,0.0,0.0,0.0,0.0,0.0,0.0,0.0,0.0,0.0,0.0,0.0,0.0,0.0,0.0,0.0,0.0,0.0,0.0,0.0,0.0,0.0,0.0,0.0,0.0,0.0,0.0,0.0,0.0,0.0,0.0,1.8597,1.9546,2.0414,0.0,2.14,2.0779,1.9375,1.8643,1.6973,1.4075,0.0,0.0,0.0,0.0,0.0,0.0,0.0,0.0,0.0,0.0,0.0,0.0,0.0,0.0,0.0,0.0,0.0,0.0,0.0,0.0,0.0,0.0,0.0,0.0,0.0,0.0,0.0,0.0,0.0,0.0,0.0,0.0,0.0,0.0,0.0,0.0,0.0,0.0,0.0,0.0,0.0,0.0,0.0,0.0,0.0,0.0,0.0,0.0,0.0,0.0,0.0,0.0,0.0,0.0,0.0,0.0,0.0,0.0,0.0,0.0,0.0,0.0,0.0,0.0,0.0,0.0,0.0,0.0,0.0,0.0,0.0,0.0,0.0,0.0,0.0,0.0,0.0,0.0,0.0,0.0,0.0,0.0,0.0,0.0,0.0,0.0,0.0,0.0,0.0,0.0,0.0,0.0,0.0,0.0,0.0,0.0,0.0,0.0,0.0,0.0,0.0,0.0,1.837,1.976,2.0775,2.1069,2.0842,2.0668,2.0668,1.869,1.7011,0.0,0.0,0.0,0.0,0.0,0.0,0.0,0.0,0.0,0.0,0.0,0.0,0.0,0.0,0.0,0.0,0.0,0.0,0.0,0.0,0.0,0.0,0.0,0.0,0.0,0.0,0.0,0.0,0.0,0.0,0.0,0.0,0.0,0.0,0.0,0.0,0.0,0.0,0.0,0.0,0.0,0.0,0.0,0.0,0.0,0.0,0.0,0.0,0.0,0.0,0.0,0.0,0.0,0.0,0.0,0.0,0.0,0.0,0.0,0.0,0.0,0.0,0.0,0.0,0.0,0.0,0.0,0.0,0.0,0.0,0.0,0.0,0.0,0.0,0.0,0.0,0.0,0.0,0.0,0.0,0.0,0.0,0.0,0.0,0.0,0.0,0.0,0.0,0.0,0.0,0.0,0.0,0.0,0.0,0.0,0.0,0.0,0.0,0.0,0.0,0.0,0.0,0.0,1.8317,1.9586,2.0481,2.0775,2.0722,2.0508,2.0094,1.9496,1.8051,1.5661,0.0,0.0,0.0,0.0,0.0,0.0,0.0,0.0,0.0,0.0,0.0,0.0,0.0,0.0,0.0,0.0,0.0,0.0,0.0,0.0,0.0,0.0,0.0,0.0,0.0,0.0,0.0,0.0,0.0,0.0,0.0,0.0,0.0,0.0,0.0,0.0,0.0,0.0,0.0,0.0,0.0,0.0,0.0,0.0,0.0,0.0,0.0,0.0,0.0,0.0,0.0,0.0,0.0,0.0,0.0,0.0,0.0,0.0,0.0,0.0,0.0,0.0,0.0,0.0,0.0,0.0,0.0,0.0,0.0,0.0,0.0,0.0,0.0,0.0,0.0,0.0,0.0,0.0,0.0,0.0,0.0,0.0,0.0,0.0,0.0,0.0,0.0,0.0,0.0,0.0,0.0,0.0,0.0,0.0,0.0,0.0,0.0,0.0,0.0,0.0,0.0,0.0,1.813,1.9332,2.0174,2.0468,2.0388,2.0187,1.9826,1.9811,1.8768,1.6317,0.0,0.0,0.0,0.0,0.0,0.0,0.0,0.0,0.0,0.0,0.0,0.0,0.0,0.0,0.0,0.0,0.0,0.0,0.0,0.0,0.0,0.0,0.0,0.0,0.0,0.0,0.0,0.0,0.0,0.0,0.0,0.0,0.0,0.0,0.0,0.0,0.0,0.0,0.0,0.0,0.0,0.0,0.0,0.0,0.0,0.0,0.0,0.0,0.0,0.0,0.0,0.0,0.0,0.0,0.0,0.0,0.0,0.0,0.0,0.0,0.0,0.0,0.0,0.0,0.0,0.0,0.0,0.0,0.0,0.0,0.0,0.0,0.0,0.0,0.0,0.0,0.0,0.0,0.0,0.0,0.0,0.0,0.0,0.0,0.0,0.0,0.0,0.0,0.0,0.0,0.0,0.0,0.0,0.0,0.0,0.0,0.0,0.0,0.0,0.0,0.0,0.0,1.7862,1.9038,1.9867,2.016,1.996,1.9786,1.976,1.9739,1.9123,1.765,0.0,0.0,0.0,0.0,0.0,0.0,0.0,0.0,0.0,0.0,0.0,0.0,0.0,0.0,0.0,0.0,0.0,0.0,0.0,0.0,0.0,0.0,0.0,0.0,0.0,0.0,0.0,0.0,0.0,0.0,0.0,0.0,0.0,0.0,0.0,0.0,0.0,0.0,0.0,0.0,0.0,0.0,0.0,0.0,0.0,0.0,0.0,0.0,0.0,0.0,0.0,0.0,0.0,0.0,0.0,0.0,0.0,0.0,0.0,0.0,1.7835,0.0,0.0,0.0,0.0,0.0,0.0,0.0,0.0,0.0,0.0,0.0,0.0,0.0,0.0,0.0,0.0,0.0,0.0,0.0,0.0,0.0,0.0,0.0,0.0,0.0,0.0,0.0,0.0,0.0,0.0,0.0,0.0,0.0,0.0,0.0,0.0,0.0,0.0,0.0,0.0,0.0,1.7769,1.8878,1.9573,1.9867,1.984,1.9706,1.9479,1.9515,1.9007,1.795,1.6855,0.0,0.0,0.0,0.0,0.0,0.0,0.0,0.0,0.0,0.0,0.0,0.0,0.0,0.0,0.0,0.0,0.0,0.0,0.0,0.0,0.0,0.0,0.0,0.0,0.0,0.0,0.0,0.0,0.0,0.0,0.0,0.0,0.0,0.0,0.0,0.0,0.0,0.0,0.0,0.0,0.0,0.0,0.0,0.0,0.0,0.0,0.0,0.0,0.0,0.0,0.0,0.0,0.0,0.0,0.0,0.0,0.0,0.0,0.0,0.0,1.8448,0.0,0.0,0.0,0.0,0.0,0.0,0.0,0.0,0.0,0.0,0.0,0.0,0.0,0.0,0.0,0.0,0.0,0.0,0.0,0.0,0.0,0.0,0.0,0.0,0.0,0.0,0.0,0.0,0.0,0.0,0.0,0.0,0.0,0.0,0.0,0.0,0.0,0.0,0.0,0.0,1.7609,1.8597,1.9265,1.9559,1.9586,1.9533,1.9386,1.9649,1.9414,1.845,1.7778,0.0,0.0,0.0,0.0,0.0,0.0,0.0,0.0,0.0,0.0,0.0,0.0,0.0,0.0,0.0,0.0,0.0,0.0,0.0,0.0,0.0,0.0,0.0,0.0,0.0,0.0,0.0,0.0,0.0,0.0,0.0,0.0,0.0,0.0,0.0,0.0,0.0,0.0,0.0,0.0,0.0,0.0,0.0,0.0,0.0,0.0,0.0,0.0,0.0,0.0,0.0,0.0,0.0,2.1256,2.1563,2.2205,2.1977,2.2017,2.2231,2.0962,2.0428,2.0401,1.9573,0.0,0.0,0.0,0.0,0.0,0.0,0.0,0.0,0.0,0.0,0.0,0.0,0.0,0.0,0.0,0.0,0.0,0.0,0.0,0.0,0.0,0.0,0.0,0.0,1.7943,1.7729,0.0,0.0,0.0,0.0,0.0,0.0,0.0,0.0,0.0,0.0,0.0,0.0,1.7462,1.8357,1.8985,1.9448,1.9488,1.9475,1.9533,1.994,1.9836,1.901,1.8562,1.7737,0.0,0.0,0.0,0.0,0.0,0.0,0.0,0.0,0.0,0.0,0.0,0.0,0.0,0.0,0.0,0.0,0.0,0.0,0.0,0.0,0.0,0.0,0.0,0.0,0.0,0.0,0.0,0.0,0.0,0.0,0.0,0.0,2.1413,2.1494,0.0,0.0,0.0,0.0,0.0,0.0,0.0,0.0,0.0,0.0,0.0,0.0,0.0,2.1216,2.1697,2.2245,2.2432,2.2258,2.3006,2.3287,2.3153,2.3113,2.326,2.3514,2.306,0.0,2.14,2.0708,0.0,0.0,0.0,0.0,0.0,0.0,0.0,0.0,0.0,0.0,0.0,0.0,0.0,0.0,0.0,0.0,0.0,0.0,0.0,0.0,0.0,0.0,1.8637,1.8424,1.8397,1.8384,0.0,1.7355,1.6366,1.5404,1.5057,0.0,0.0,0.0,0.0,0.0,0.0,0.0,1.7729,1.8303,1.887,1.9639,1.9764,1.988,2.0155,1.9961,1.9822,1.9661,1.8803,1.8225,1.8023,1.6386,0.0,0.0,0.0,0.0,0.0,0.0,0.0,0.0,0.0,0.0,0.0,0.0,0.0,0.0,0.0,0.0,0.0,0.0,0.0,0.0,0.0,0.0,0.0,0.0,0.0,0.0,0.0,0.0,0.0,2.1403,2.2044,2.2044,2.2151,2.1937,0.0,0.0,0.0,0.0,0.0,0.0,0.0,0.0,0.0,2.1643,2.1937,2.2298,2.2739,2.3166,2.3394,2.3434,2.3821,2.4035,2.4062,2.4062,2.4142,2.4249,2.4115,2.3674,2.2953,2.1857,2.0975,2.0214,0.0,0.0,0.0,0.0,1.9038,1.8865,1.9359,1.9212,0.0,1.8437,0.0,0.0,0.0,0.0,0.0,0.0,0.0,0.0,0.0,0.0,1.8931,1.8971,1.8985,1.8931,1.8771,1.8317,1.7595,0.0,1.6032,1.5591,1.4469,0.0,0.0,0.0,0.0,1.6406,1.7796,1.8303,1.8707,1.9236,1.9277,1.9266,1.9273,1.9459,1.9471,1.9339,1.9194,1.8956,1.8599,1.7625,1.6501,0.0,0.0,0.0,0.0,0.0,0.0,0.0,0.0,0.0,0.0,0.0,0.0,0.0,0.0,0.0,0.0,0.0,0.0,0.0,0.0,0.0,0.0,0.0,0.0,0.0,0.0,0.0,0.0,2.1937,2.2498,2.2432,2.2619,2.2418,0.0,0.0,0.0,0.0,0.0,0.0,2.1936,2.203,2.2245,2.2752,2.3046,2.3354,2.3661,2.3875,2.4102,2.4315,2.4315,2.4422,2.4636,2.4636,2.4636,2.4636,2.4636,2.4476,2.4102,2.2766,2.1777,2.1056,2.0388,2.0,1.9826,1.9973,1.9893,1.9786,2.0361,2.0281,1.9853,1.9492,1.9078,1.849,1.7315,0.0,0.0,0.0,0.0,1.8315,1.8755,1.8985,1.9092,1.9319,1.943,1.9305,1.9092,1.8985,1.8557,0.0,1.6981,1.6486,1.511,0.0,0.0,0.0,0.0,1.678,1.7849,1.8237,1.849,1.8827,1.8924,1.8886,1.8836,1.9181,1.9299,1.9127,1.9469,1.947,1.8935,1.8599,1.7687,1.6052,0.0,0.0,0.0,0.0,0.0,0.0,0.0,0.0,0.0,0.0,0.0,0.0,0.0,0.0,0.0,0.0,0.0,0.0,0.0,0.0,0.0,0.0,0.0,0.0,0.0,0.0,0.0,0.0,0.0,2.2458,2.318,0.0,0.0,0.0,0.0,2.282,2.2766,2.2847,2.2792,2.3073,2.338,2.3688,2.3981,2.4275,2.4569,2.4583,2.4596,2.4609,2.4609,2.4623,2.4636,2.4636,2.4636,2.4636,2.4636,2.4476,2.4128,2.3207,2.2632,2.2245,2.1376,2.1029,2.0989,2.0735,2.0628,2.0575,2.0334,2.0241,2.0254,2.0508,2.0013,1.9252,1.8905,1.8355,0.0,0.0,1.8637,1.8891,1.8918,1.9132,1.9403,1.9417,1.943,1.9417,1.9403,1.9118,1.8731,0.0,1.7742,1.7474,1.7112,0.0,1.6442,1.7005,1.6834,1.7007,1.7876,1.8009,1.8238,1.8851,1.8878,1.9154,1.9676,1.9474,1.9463,1.9769,1.9477,1.9286,1.9309,1.8935,1.8291,1.722,1.6139,0.0,0.0,0.0,0.0,0.0,0.0,0.0,0.0,0.0,0.0,0.0,0.0,0.0,0.0,0.0,0.0,0.0,0.0,0.0,0.0,0.0,0.0,0.0,0.0,0.0,0.0,0.0,0.0,2.3794,2.3968,0.0,2.3594,2.3487,2.3447,2.3447,2.3447,2.3527,2.3714,2.3834,2.4022,2.4315,2.4422,2.4529,2.4636,2.4636,2.4636,2.4636,2.4636,2.4636,2.4636,2.4636,2.4636,2.4636,2.4636,2.4476,2.4168,2.3661,2.3153,2.2659,2.2151,2.1844,2.1657,2.155,2.1403,2.1293,2.1122,2.0962,2.0788,2.0708,2.008,1.9403,1.9239,1.8931,1.8582,1.8744,1.8985,1.9212,1.9212,1.9292,1.943,1.943,1.943,1.943,1.943,1.9279,1.9092,1.8635,1.8223,1.7729,1.7286,1.7179,1.7061,1.6887,1.7101,1.7462,1.7929,1.7995,1.809,1.8292,1.8523,1.8658,1.8612,1.8886,1.9094,1.9199,1.9293,1.9272,1.9272,1.9221,1.8642,1.7662,1.6999,1.5733,0.0,0.0,0.0,0.0,0.0,0.0,0.0,0.0,0.0,0.0,0.0,0.0,0.0,0.0,0.0,0.0,0.0,0.0,0.0,0.0,0.0,0.0,0.0,0.0,0.0,0.0,2.3688,2.4275,2.4436,2.4422,2.4222,2.4209,2.4168,2.4075,2.4062,2.4142,2.4342,2.4342,2.4436,2.4549,2.4636,2.4636,2.4636,2.4636,2.4636,2.4636,2.4636,2.4636,2.4636,2.4636,2.4583,2.4489,2.4489,2.4329,2.4035,2.3741,2.338,2.2993,2.2686,2.2445,2.2258,2.2058,2.1857,2.1735,2.147,2.1269,2.1069,2.0775,2.0214,1.9639,1.9546,1.9305,1.9078,1.9078,1.9212,1.943,1.943,1.943,1.943,1.943,1.943,1.943,1.943,1.943,1.9305,1.9118,1.8677,1.8156,1.7555,1.7609,1.7569,1.7074,1.7328,1.7662,1.7862,1.7889,1.7889,1.7889,1.805,1.8182,1.8135,1.839,1.866,1.8867,1.8906,1.895,1.895,1.8847,1.8482,1.7823,1.7179,1.6067,1.4472,0.0,0.0,0.0,0.0,0.0,0.0,0.0,0.0,0.0,0.0,0.0,0.0,0.0,0.0,0.0,0.0,0.0,0.0,0.0,0.0,0.0,0.0,0.0,2.2378,2.3233,2.3808,2.3834,2.4583,2.489,2.4356,2.4783,2.4997,2.4716,2.4663,2.4649,2.4649,2.4636,2.4636,2.4636,2.4636,2.4636,2.4636,2.4636,2.4636,2.4636,2.4636,2.4636,2.4623,2.4623,2.4462,2.4195,2.4195,2.4022,2.3728,2.3447,2.3327,2.3287,2.2979,2.2928,2.2861,2.2218,2.1991,2.1884,2.1309,2.1109,2.1069,2.0775,2.0481,2.0174,1.988,1.9599,1.943,1.943,1.943,1.943,1.943,1.943,1.943,1.943,1.943,1.943,1.943,1.943,1.943,1.943,1.9132,1.8701,1.8102,1.7995,1.7889,1.7622,1.7582,0.0,1.7582,1.7582,1.7582,1.7582,1.7635,1.7845,1.8318,1.8142,1.8229,1.8738,1.8482,1.8306,1.8306,1.7999,1.7823,1.7808,1.6565,1.5717,1.5396,0.0,0.0,0.0,0.0,0.0,0.0,0.0,0.0,0.0,0.0,0.0,0.0,0.0,0.0,0.0,0.0,0.0,0.0,0.0,0.0,0.0,2.2043,2.278,2.3313,2.3968,2.4636,2.5277,2.5648,2.5905,2.6373,2.5999,2.5772,2.5892,2.5317,2.4957,2.4957,2.4756,2.4636,2.4636,2.4636,2.4636,2.4636,2.4636,2.4636,2.4636,2.4636,2.4529,2.4329,2.4329,2.4168,2.3888,2.3888,2.3728,2.3447,2.3367,2.3193,2.2979,2.2968,2.2928,2.2819,2.2445,2.2031,2.1681,2.1243,2.1109,2.1069,2.0775,2.0481,2.0174,1.988,1.9599,1.943,1.943,1.943,1.943,1.943,1.943,1.943,1.943,1.943,1.943,1.943,1.943,1.943,1.943,1.9305,1.9065,1.8477,1.8142,1.7889,1.7622,1.7582,0.0,1.7582,1.7582,1.7582,1.7582,1.7753,1.7964,1.8122,1.8208,1.8346,1.8498,1.8382,1.8306,1.8306,1.8218,1.8057,1.7823,1.6565,1.5777,0.0,0.0,0.0,0.0,0.0,0.0,0.0,0.0,0.0,0.0,0.0,0.0,0.0,0.0,0.0,0.0,0.0,0.0,0.0,0.0,0.0,0.0,2.2807,2.3447,2.4048,2.4529,2.5104,2.5943,2.6066,2.6386,2.7014,2.6507,2.6106,2.6026,2.5438,2.5024,2.4903,2.473,2.4636,2.4636,2.4636,2.4636,2.4636,2.4636,2.4636,2.4636,2.4516,2.4369,2.4195,2.4075,2.3861,2.3581,2.3581,2.3407,2.314,2.314,2.3033,0.0,0.0,0.0,0.0,0.0,2.1764,2.1336,2.1162,2.1109,2.1069,2.0775,2.0481,2.0174,1.988,1.9599,1.943,1.943,1.943,1.943,1.943,1.943,1.943,1.943,1.943,1.943,1.943,1.943,1.943,1.943,1.943,0.0,1.8597,1.8343,1.809,1.7649,1.7582,1.7582,1.7582,1.7582,1.7582,1.7582,1.7753,1.7859,1.7964,1.8156,0.0,0.0,0.0,1.7969,1.7706,1.7823,0.0,0.0,0.0,0.0,0.0,0.0,0.0,0.0,1.5156,1.4843,0.0,0.0,0.0,0.0,0.0,0.0,0.0,0.0,0.0,0.0,0.0,0.0,0.0,0.0,0.0,0.0,2.3447,2.4008,2.4556,2.489,2.5304,2.597,2.6239,2.6547,2.6841,2.664,2.6239,2.5651,2.5317,2.4997,2.4703,0.0,0.0,0.0,0.0,2.4636,2.4636,2.4636,2.4549,2.4583,2.4329,2.4168,2.4102,2.3834,2.3554,2.3273,2.3273,2.3113,2.2928,2.2928,2.2914,2.2806,2.2806,2.2605,2.2258,2.1815,2.1363,2.1109,2.1109,0.0,0.0,2.0735,2.0441,2.0113,1.9853,1.9573,1.943,1.943,1.943,1.943,1.943,1.943,1.943,1.943,1.943,1.943,1.943,1.943,1.943,1.943,1.943,1.9185,1.8597,1.849,1.829,1.7675,1.7582,1.7582,1.7582,1.7582,1.7582,1.7582,0.0,0.0,1.7964,1.8001,1.8015,1.7946,1.7911,1.7618,1.7094,1.7282,1.7395,1.7395,1.7721,1.8013,1.8306,1.8306,1.8172,1.7938,1.5802,1.5414,0.0,0.0,0.0,0.0,0.0,0.0,0.0,0.0,0.0,0.0,0.0,0.0,0.0,0.0,0.0,2.3434,2.3888,2.4235,2.4583,2.489,2.5304,2.597,2.6413,2.6854,2.7148,2.7134,2.6854,2.6266,2.5732,2.5304,2.501,2.477,2.4636,2.4636,2.4636,2.4636,2.4636,2.4636,2.4516,2.4289,0.0,0.0,2.35,2.3434,2.3247,2.2953,2.2953,2.2926,2.2928,2.2928,2.2726,2.2498,2.2498,2.2178,2.171,2.1655,2.1363,2.1109,2.1109,2.1109,2.1015,2.0494,2.0281,2.0134,1.9613,1.947,0.0,1.943,1.943,1.943,1.943,1.943,1.943,1.943,1.943,1.943,1.943,1.943,1.943,1.943,1.943,1.9185,1.8597,1.849,1.829,1.7675,1.7582,1.7582,1.7582,1.7582,1.7582,1.7582,1.7582,1.7687,1.7964,1.8001,1.8099,1.8311,1.8245,1.816,1.8028,1.8086,1.8116,1.8116,1.8174,1.8233,1.8306,1.8306,1.8288,1.8282,1.7358,1.6912,0.0,0.0,0.0,0.0,0.0,0.0,0.0,0.0,0.0,0.0,0.0,2.1369,2.2298,0.0,2.334,2.4088,2.4329,2.4476,2.4609,2.477,2.5077,2.5665,2.6119,2.656,2.7001,2.6787,2.6493,2.6199,2.5625,2.517,2.4877,2.4716,2.4636,2.4636,2.4636,2.4636,2.4636,2.4489,2.4342,2.4195,2.3901,2.3607,2.3327,2.3166,2.3006,2.2928,2.2928,2.2928,2.2914,2.2699,2.2378,2.1991,2.1991,2.1804,2.1601,2.139,2.1243,2.1109,2.1109,2.1109,2.1042,2.0601,2.0361,2.0147,1.972,1.9479,1.943,1.943,1.943,1.943,1.943,1.943,1.943,1.943,1.943,1.943,1.943,1.943,1.943,1.943,1.943,1.9185,1.8597,1.849,1.829,1.7675,1.7582,1.7582,1.7582,1.7582,1.7582,1.7582,1.7582,1.7635,1.7793,1.7936,1.8127,1.8397,1.8332,1.8306,1.8306,1.8306,1.8379,1.854,1.854,1.8628,1.8789,1.8789,1.8826,1.8832,1.8249,1.7821,0.0,0.0,0.0,0.0,0.0,0.0,0.0,0.0,2.017,2.1291,2.1647,2.2157,2.3297,2.3741,2.4088,2.4556,2.4636,2.4636,2.4636,2.4636,2.481,2.5291,2.5651,2.6052,2.652,2.6199,2.5983,2.5798,2.5344,2.4957,2.4649,2.4636,2.4636,2.4636,2.469,2.4663,2.4556,2.4382,2.4209,2.4022,2.3554,2.33,2.322,2.2979,2.2928,2.2928,2.2928,2.2832,2.2752,2.2458,2.2031,2.1614,2.1561,2.1534,2.1443,2.1203,2.1109,2.1109,2.1109,2.1109,2.1056,2.0708,2.0428,2.0174,1.9826,1.9546,1.943,1.943,1.943,1.943,1.943,1.943,1.943,1.943,1.943,1.943,1.943,1.943,1.943,1.943,1.943,1.9199,1.8664,1.8531,1.829,1.7675,1.7582,1.7582,1.7582,1.7582,1.7582,1.7582,1.7582,1.7635,1.7687,1.7939,1.8161,1.838,1.8391,1.8396,1.8396,1.8496,1.8613,1.8877,1.8877,1.9008,1.9272,1.9272,1.922,1.9116,1.8632,1.8265,1.8372,1.8227,1.8348,1.8603,1.8858,1.9484,0.0,0.0,2.1408,2.2722,2.3158,2.3478,2.4016,2.4342,2.4556,2.4623,2.4636,2.4636,2.4636,2.4636,2.4663,2.473,2.5224,2.5585,2.5651,2.5838,2.5745,2.5224,2.5117,2.4957,2.4649,2.4636,2.4636,2.4636,2.489,2.4783,2.4262,2.4476,2.4195,2.342,2.3354,2.318,2.2913,2.2873,2.2928,2.2928,2.2928,2.2712,2.2445,2.2151,2.1844,2.1588,2.1256,2.1162,2.1149,2.1122,2.1109,2.1109,2.1109,2.1109,2.1015,2.0468,2.0254,2.0134,1.9586,1.9399,1.943,1.943,1.943,1.943,1.943,1.943,1.943,1.943,1.943,1.943,1.943,1.943,1.943,1.943,1.943,1.9265,1.8931,1.8664,1.829,1.7675,1.7582,1.7582,1.7582,1.7582,1.7582,1.7582,1.7582,1.7687,1.7964,1.8185,1.8366,1.838,1.8665,1.8821,1.8821,1.9066,1.9236,1.9213,1.9228,1.9242,1.9272,1.9272,1.9011,1.8475,1.8422,1.837,1.9639,1.9567,0.0,0.0,2.0158,2.0719,2.1459,2.1564,2.1857,2.2887,2.3155,2.3347,2.3935,2.4188,2.4341,0.0,2.4636,2.4636,2.4636,2.4636,2.4636,2.4636,2.485,2.5077,2.5251,2.5211,2.5157,2.509,2.4917,2.477,2.4649,2.4636,2.4716,2.489,2.469,2.4529,2.4449,2.4075,2.3688,2.3327,2.314,2.2993,2.2928,2.2928,2.2928,2.2914,2.2672,2.2445,2.2151,2.1857,2.1563,2.1283,2.1162,2.1109,2.1109,2.1109,2.1109,2.1109,2.1109,2.1002,2.0815,2.0575,2.0254,1.9933,1.9693,1.9506,1.943,1.943,1.943,1.943,1.943,1.943,1.943,1.943,1.943,1.943,1.943,1.943,1.943,1.943,1.943,1.9265,1.8971,1.8824,1.8544,1.7943,1.7702,1.7582,1.7582,1.7582,1.7582,1.7582,1.7582,1.7635,1.774,1.8016,1.8213,1.837,1.8698,1.8974,1.913,1.922,1.9272,1.9272,1.9272,1.9272,1.9272,1.9272,1.9063,1.8698,1.8475,1.8318,2.0219,0.0,0.0,2.0617,2.1136,2.1607,2.1675,2.1861,2.2202,2.2852,2.2942,2.3079,2.3748,2.397,2.4119,2.4414,2.4562,2.4636,2.4636,2.4636,2.4636,2.4636,2.4636,2.4716,2.493,2.4756,2.473,2.4943,2.4756,2.4636,2.4636,2.4636,2.473,2.4957,2.4543,2.4342,2.4396,2.3768,2.3367,2.3193,2.2966,2.2928,2.2928,2.2928,2.2819,2.2726,2.2512,2.2205,2.1844,2.1708,2.1376,2.1109,2.1109,2.1109,2.1109,2.1109,2.1109,2.1096,2.1015,2.0855,2.0655,2.0481,2.0147,1.9786,1.9706,1.9533,1.943,1.943,1.943,1.943,1.943,1.943,1.943,1.943,1.943,1.943,1.943,1.943,1.943,1.943,1.943,1.9292,1.9078,1.8985,1.8771,1.8302,1.7956,1.7675,1.7595,1.7582,1.7582,1.7582,1.7582,1.7582,1.7582,1.7806,1.7964,1.816,1.8541,1.8855,1.9063,1.922,1.9272,1.9168,1.9272,1.9272,1.9182,1.9272,1.9182,1.8869,1.8541,1.8321,0.0,0.0,2.0653,2.0665,2.1269,2.186,2.1922,2.2128,2.2396,2.2843,2.293,2.3005,2.3364,2.3748,2.397,2.4044,2.4341,2.4636,2.4636,2.4636,2.4636,2.4636,2.4636,2.4562,0.0,2.4636,2.4562,2.4649,2.4636,2.4636,2.4636,2.4636,2.4562,2.4576,2.4636,2.4356,2.3808,2.3768,2.346,2.2873,2.2928,2.2928,2.2928,2.2928,2.2699,2.2432,2.2418,2.2098,2.1628,2.1614,2.1376,2.1109,2.1109,2.1109,2.1109,2.1109,2.1109,2.1069,2.0788,2.0681,2.0588,2.0013,1.9813,1.9746,1.9466,1.943,1.943,1.943,1.943,1.943,1.943,1.943,1.943,1.943,1.943,1.943,1.943,1.943,1.943,1.943,1.943,1.9417,1.9417,1.9118,1.8918,1.8905,1.8355,1.7876,1.7622,1.7582,1.7582,1.7582,1.7582,1.7582,1.7582,1.7635,1.7635,1.7635,1.8108,1.8422,1.8422,1.9011,1.9182,1.8921,1.9182,1.9168,1.8921,1.9168,1.9182,1.8869,1.8541,1.8432,0.0,0.0,2.1086,2.1378,2.18,2.22,2.22,2.2273,2.2334,2.2483,2.2349,2.2423,2.2967,2.3225,2.3456,2.3931,2.4341,2.4636,2.4636,2.4636,2.4636,2.4636,2.4636,0.0,0.0,0.0,0.0,2.4636,2.4636,2.4716,2.4917,2.4743,2.473,2.493,2.4369,2.3968,2.3768,2.3367,2.306,2.2928,2.2928,2.2752,2.2565,2.2565,2.2405,2.2124,2.1924,2.1802,2.1601,2.1336,2.1203,2.1109,2.1109,2.1109,2.1109,2.1109,2.0989,2.0815,2.0708,2.0428,2.0067,1.9867,1.9666,1.9492,1.9457,1.943,1.943,1.943,1.943,1.943,1.943,1.943,1.943,1.943,1.943,1.943,1.943,1.943,1.943,1.943,1.943,1.943,1.943,1.9292,1.9158,1.8958,1.8368,1.7876,1.7622,1.7582,1.7582,1.7582,1.7582,1.7582,1.7582,1.7582,1.7687,1.7859,1.8016,1.8213,1.837,1.8803,1.8974,1.8921,1.8974,1.8974,1.8921,1.875,1.8692,1.8652,1.8531,1.8482,2.0786,2.1076,2.1341,2.1873,2.2138,2.2334,2.2334,2.2261,2.215,2.2321,2.1897,2.1837,2.2423,2.2556,2.2708,2.3382,2.3888,2.4295,2.4401,2.4488,2.4636,2.4636,2.4636,2.4636,0.0,0.0,0.0,2.4549,2.4636,2.4716,2.4917,2.4636,2.4569,2.4756,2.4022,2.3607,2.3607,2.3113,2.2928,2.2928,2.2752,2.2605,2.2418,2.2311,2.2111,2.1817,2.1695,2.1561,2.1376,2.1189,2.1109,2.1109,2.1109,2.1109,2.1096,2.0989,2.0762,2.0521,2.0521,2.0201,1.9786,1.9679,1.9519,1.943,1.943,1.943,1.943,1.943,1.943,1.943,1.943,1.943,1.943,1.943,1.943,1.943,1.943,1.943,1.943,1.943,1.943,1.943,1.943,1.943,1.9265,1.8971,1.8542,1.8155,1.7796,1.7649,1.7582,1.7582,1.7582,1.7582,1.7582,1.7582,1.7687,1.7859,1.8069,1.8227,1.837,1.8712,1.8921,1.8921,1.8764,1.8712,1.8712,1.8654,1.8596,1.8629,1.8632,1.8687,2.1245,2.1474,2.1619,2.2138,2.2334,2.2334,2.2247,2.2054,2.1957,2.2174,2.168,2.1292,0.0,0.0,2.1873,2.242,2.3117,2.3732,2.3931,2.4341,2.4636,0.0,0.0,0.0,0.0,0.0,0.0,2.4609,0.0,2.4623,2.4636,2.4369,2.4195,2.4182,2.3621,2.3313,2.33,2.2993,2.2846,2.2832,2.2539,2.2392,2.2365,2.2084,2.1804,2.1601,2.1601,2.1376,2.1109,2.1109,2.1109,2.1109,2.1109,2.1096,2.1056,2.0775,2.0481,2.0153,2.0153,2.0013,1.9733,1.9452,1.943,1.943,1.943,1.943,1.943,1.943,1.943,1.943,1.943,1.943,1.943,1.943,1.943,1.943,1.943,1.943,1.943,1.943,1.943,1.943,1.943,1.943,1.9265,1.8985,1.8931,1.8718,1.8089,1.7809,1.7622,1.7609,1.7609,1.7595,1.7582,1.7582,1.7595,1.7609,1.8069,1.8384,1.8398,1.8674,1.8898,1.8898,1.8583,1.8412,1.8412,1.8719,1.8872,1.8886,1.892,1.9041,2.1064,2.1462,2.1848,2.2249,2.2334,2.2285,2.2017,2.2066,2.2066,2.1752,2.1341,2.1171,0.0,0.0,0.0,2.2147,2.3143,0.0,2.3957,2.4341,0.0,2.4636,0.0,2.4636,2.4636,2.4569,0.0,0.0,2.4436,2.4409,2.4623,2.4369,2.4102,2.3888,2.3527,2.322,2.2979,2.2686,2.2539,2.2525,2.2231,2.1977,2.1764,2.1762,2.151,2.1229,2.1229,2.1176,2.1109,2.1109,2.1109,2.1109,2.1109,2.0975,2.0775,2.0708,2.0347,1.9907,1.9907,1.972,1.9466,1.9399,1.943,1.943,1.943,1.943,1.943,1.943,1.943,1.943,1.943,1.943,1.943,1.943,1.943,1.943,1.943,1.943,1.943,1.943,1.943,1.943,1.943,1.943,1.9345,1.9265,1.9065,1.8798,1.8424,1.8303,1.817,1.7929,1.7916,1.7836,1.7609,1.7582,1.7689,1.7916,1.7822,1.7901,1.8077,1.8412,1.8573,1.8573,1.874,1.8796,1.8796,1.8659,1.8698,1.8915,1.8883,1.9085,2.1306,2.1885,2.2078,2.2223,2.2174,2.1993,2.168,2.1535,2.1486,2.0883,2.0557,0.0,0.0,0.0,0.0,0.0,0.0,0.0,2.3722,2.4267,2.4636,0.0,2.4636,0.0,2.4636,2.4516,2.4449,0.0,2.4302,2.4275,2.4436,2.4048,2.3741,2.3581,2.3273,2.2979,2.2672,2.2498,2.2352,2.2218,2.1937,2.1775,2.1614,2.148,2.1269,2.1109,0.0,2.1109,2.1109,2.1109,2.1109,2.1109,2.1109,2.0935,2.0655,2.0535,2.0187,1.9786,1.9653,1.9506,1.943,1.943,1.943,1.943,1.943,1.943,1.943,1.943,1.943,1.943,1.943,1.943,1.943,1.943,1.943,1.943,1.943,1.943,1.943,1.943,1.943,1.943,1.943,1.943,1.943,1.943,1.9225,1.9065,1.8891,1.8651,1.8424,1.8237,1.8237,1.817,1.7996,1.7983,1.8063,1.8237,1.8185,1.8212,1.8387,1.8564,1.8714,1.8823,1.8782,1.8754,1.8919,1.8722,1.8771,1.8931,1.9052,1.9212,2.1647,2.2235,2.2334,2.2334,2.2164,2.1764,2.1219,2.0859,2.0545,1.9905,0.0,1.9475,1.9374,1.9833,2.0315,2.0569,0.0,2.306,2.3326,2.4044,2.4562,2.4562,2.4636,2.4636,2.4636,2.4409,2.4249,2.4209,2.4168,2.4128,2.4088,2.3607,2.3313,2.326,2.3006,2.2712,2.2418,2.2378,2.2218,2.1924,2.1695,2.1561,2.1547,2.1229,2.1109,2.1109,2.1109,2.1109,2.1109,2.1109,2.1109,2.1109,2.1109,2.0935,2.0641,2.0347,2.0054,1.976,1.9466,1.943,1.943,1.943,1.943,1.943,1.943,1.943,1.943,1.943,1.943,1.943,1.943,1.943,1.943,1.943,1.943,1.943,1.943,1.943,1.943,1.943,1.943,1.943,1.943,1.943,1.943,1.943,1.943,1.943,1.943,1.8918,1.8597,1.8557,1.8544,1.8531,1.849,1.849,1.8504,1.8544,1.8725,1.8878,1.8919,1.8919,1.9029,1.9237,1.8862,1.8709,1.8987,1.8964,1.8985,1.8985,1.9239,1.943,2.1502,2.209,2.2334,2.2334,2.2309,2.1933,2.0955,2.0871,0.0,0.0,0.0,1.9072,1.8855,1.9446,2.0038,2.0303,0.0,0.0,0.0,0.0,2.4267,0.0,0.0,0.0,0.0,0.0,0.0,0.0,0.0,2.3741,2.3487,2.338,2.3207,2.2953,2.2886,2.2712,2.2418,2.2178,2.1911,2.1695,2.1323,2.1189,2.1189,2.1136,2.1109,2.1109,2.1109,0.0,2.1109,2.1109,2.1109,2.1109,2.1109,2.0935,2.0641,2.0347,2.0054,1.976,1.9466,1.943,1.943,1.943,1.943,1.943,1.943,1.943,1.943,1.943,1.943,1.943,1.943,1.943,1.943,1.943,1.943,1.943,1.943,1.943,1.943,1.943,1.943,1.943,1.943,1.943,1.943,1.943,1.943,1.943,1.943,1.9336,1.9118,1.8878,1.8851,1.8744,1.8517,1.849,1.8597,1.8838,1.868,1.8653,1.8894,1.8908,1.8908,1.8951,1.9149,1.9269,1.9327,1.9323,1.9292,1.9292,1.9345,1.943,2.0363,2.1554,2.2334,2.2334,2.2054,2.1571,2.0509,0.0,0.0,0.0,1.8469,1.8541,1.8131,0.0,0.0,0.0,0.0,0.0,0.0,0.0,0.0,0.0,0.0,0.0,0.0,0.0,0.0,0.0,0.0,2.3647,2.334,2.318,2.302,2.2928,2.2928,2.2712,2.2418,2.2124,2.1844,2.1614,2.1256,2.1109,2.1109,2.1109,2.1109,2.1109,2.1109,0.0,2.1109,2.1109,2.1109,2.1109,2.1109,2.0935,2.0655,2.0521,2.0281,2.0,1.9867,1.972,1.9586,1.9586,1.9492,1.943,1.943,1.943,1.943,1.943,1.943,1.943,1.943,1.943,1.943,1.943,1.943,1.943,1.943,1.943,1.943,1.943,1.943,1.943,1.943,1.943,1.943,1.943,1.943,1.943,1.943,1.943,1.9319,1.9172,1.9158,1.9105,1.8958,1.8945,1.9011,1.9145,1.9025,1.9011,1.9145,1.9158,1.9158,1.9158,1.9292,1.943,1.943,1.943,1.943,1.943,1.943,1.943,1.9254,2.1037,2.2334,2.2334,2.1909,2.1269,2.0146,1.9627,0.0,0.0,1.7781,1.7925,1.7551,0.0,0.0,0.0,0.0,0.0,0.0,0.0,0.0,0.0,0.0,0.0,0.0,0.0,0.0,0.0,0.0,0.0,2.3247,2.2993,2.2928,2.2928,2.2928,2.2712,2.2418,2.2124,2.1844,2.1614,2.1256,2.1109,2.1109,2.1109,2.1109,2.1109,2.1109,0.0,0.0,2.1109,2.1109,2.1109,2.1109,2.0962,2.0762,2.0695,2.0535,2.0321,2.0193,2.008,1.9893,1.9893,1.9653,1.943,1.943,1.943,1.943,1.943,1.943,1.943,1.943,1.943,1.943,1.943,1.943,1.943,1.943,1.943,1.943,1.943,1.943,1.943,1.943,1.943,1.943,1.943,1.943,1.943,1.943,1.943,1.943,1.943,1.943,1.943,1.943,1.943,1.943,1.943,1.943,1.943,1.943,1.943,1.943,1.943,1.943,1.943,1.943,1.943,1.943,1.943,1.943,1.943,1.9348,2.1037,2.2334,2.2334,2.2042,2.1498,2.0183,0.0,0.0,1.7708,1.7334,1.7261,1.7443,1.7962,1.8601,0.0,0.0,0.0,0.0,0.0,0.0,0.0,0.0,0.0,0.0,0.0,0.0,0.0,0.0,0.0,2.2968,2.2873,2.2928,2.2928,2.2928,2.2712,2.2418,2.2124,2.1844,2.1614,2.1256,2.1109,2.1109,2.1109,2.1109,2.1109,2.1109,0.0,0.0,2.1109,2.1109,2.1109,2.1109,2.1096,2.1042,2.0775,2.0655,2.0601,2.0321,2.0153,2.0127,2.0127,1.9813,1.943,1.943,1.943,1.943,1.943,1.943,1.943,1.943,1.943,1.943,1.943,1.943,1.943,1.943,1.943,1.943,1.943,1.943,1.943,1.943,1.943,1.943,1.943,1.943,1.943,1.943,1.943,1.943,1.943,1.943,1.943,1.943,1.943,1.943,1.943,1.943,1.943,1.943,1.943,1.943,1.943,1.943,1.943,1.943,1.943,1.943,1.943,1.943,1.943,1.7803,1.9585,2.1003,2.1831,2.1824,2.1281,1.9941,0.0,1.877,1.7708,1.7274,1.7177,1.743,1.7406,1.7696,0.0,1.8903,1.9459,0.0,0.0,0.0,0.0,0.0,0.0,0.0,0.0,0.0,0.0,0.0,0.0,2.2928,2.2928,2.2928,2.2928,2.2928,2.2806,2.2686,2.2218,2.1924,2.1804,2.1336,2.1109,2.1109,2.1109,2.1109,2.1109,2.1109,0.0,0.0,2.1109,2.1109,2.1109,2.1109,2.1109,2.1096,2.0975,2.0935,2.0922,2.0802,2.0641,2.0494,2.0494,2.0227,1.9853,1.9679,1.9506,1.943,1.943,1.943,1.943,1.943,1.943,1.943,1.943,1.943,1.943,1.943,1.943,1.943,1.943,1.943,1.943,1.943,1.943,1.943,1.943,1.943,1.943,1.943,1.943,1.943,1.943,1.943,1.943,1.943,1.943,1.943,1.943,1.943,1.943,1.943,1.943,1.943,1.943,1.943,1.943,1.943,1.943,1.943,1.943,1.943,1.943,1.6758,1.8491,2.0142,2.1636,2.1728,2.1148,0.0,0.0,1.8674,1.7684,1.7274,1.7153,1.7334,1.7129,1.7261,0.0,1.8191,1.8593,2.0207,0.0,0.0,0.0,0.0,0.0,0.0,0.0,0.0,0.0,0.0,0.0,2.2928,2.2928,2.2928,2.2928,2.2928,2.2928,2.2928,2.2271,2.1991,2.1977,2.139,2.1109,2.1109,2.1109,2.1109,2.1109,2.1109,0.0,0.0,2.1109,2.1109,2.1109,2.1109,2.1109,2.1109,2.1109,2.1109,2.1109,2.1109,2.0975,2.0802,2.0802,2.0601,2.0321,2.012,1.9733,1.9403,1.9265,1.9239,1.9252,1.9345,1.943,1.943,1.943,1.943,1.943,1.943,1.943,1.943,1.943,1.943,1.943,1.943,1.943,1.943,1.943,1.943,1.943,1.943,1.943,1.943,1.943,1.943,1.943,1.943,1.943,1.943,1.943,1.943,1.943,1.943,1.943,1.943,1.943,1.943,1.943,1.943,1.943,1.943,1.943,1.943,1.943,1.6657,1.8407,2.004,2.1802,2.186,2.1197,0.0,1.9265,1.8456,1.7648,1.7274,1.7092,1.7092,1.7298,1.7563,1.7841,1.8118,1.8758,2.0086,0.0,0.0,0.0,0.0,0.0,0.0,0.0,0.0,0.0,0.0,0.0,2.2928,2.2928,2.2928,2.2928,2.2928,2.2928,2.2928,2.2271,2.1991,2.1977,2.139,2.1109,2.1109,2.1109,2.1109,0.0,0.0,0.0,0.0,2.1109,2.1109,2.1109,2.1109,2.1109,2.1109,2.1109,2.1109,2.1109,2.1109,2.1109,2.1109,2.1109,2.0909,2.0668,2.0668,2.0114,1.9305,1.9011,1.8931,1.8998,1.9292,1.943,1.943,1.943,1.943,1.943,1.943,1.943,1.943,1.943,1.943,1.943,1.943,1.943,1.943,1.943,1.943,1.943,1.943,1.943,1.943,1.943,1.943,1.943,1.943,1.943,1.943,1.943,1.943,1.943,1.943,1.943,1.943,1.943,1.943,1.943,1.943,1.943,1.943,1.943,1.943,1.943,1.5361,1.6677,1.7735,2.0063,2.0509,2.0158,1.9265,1.8734,1.8239,1.7612,1.7274,1.7092,1.7092,1.6851,1.6984,1.7998,1.807,0.0,0.0,0.0,0.0,0.0,0.0,0.0,0.0,0.0,0.0,0.0,0.0,0.0,2.2928,2.2672,2.2645,2.2928,2.2672,2.2565,2.2565,2.1977,2.1762,2.1748,2.1296,2.1109,2.1109,2.1109,2.1109,0.0,0.0,0.0,0.0,2.1109,2.1109,2.1109,2.1109,2.1109,2.1109,2.1109,2.1109,2.1109,2.1109,2.1109,2.1109,2.1109,2.1042,2.0935,2.0735,2.0334,1.9933,1.984,1.9679,1.9546,1.9639,1.9519,1.943,1.943,1.943,1.943,1.943,1.943,1.943,1.943,1.943,1.943,1.943,1.943,1.943,1.943,1.943,1.943,1.943,1.943,1.943,1.943,1.943,1.943,1.943,1.943,1.943,1.943,1.943,1.943,1.943,1.943,1.943,1.943,1.943,1.943,1.943,1.943,1.943,1.943,1.943,1.943,0.0,1.5744,1.7123,1.8959,1.9689,1.97,1.8988,1.8469,1.7986,1.7443,1.7129,1.6911,1.6803,1.6598,1.6682,1.7418,1.7563,0.0,0.0,0.0,0.0,0.0,0.0,0.0,0.0,0.0,0.0,0.0,0.0,0.0,2.2928,2.2579,2.2498,2.2686,2.2405,2.2258,2.2258,2.179,2.1614,2.1614,2.1256,2.1109,2.1109,2.1109,2.1109,0.0,0.0,0.0,0.0,2.1109,2.1109,2.1109,2.1109,2.1109,2.1109,2.1109,2.1109,2.1109,2.1109,2.1109,2.1109,2.1109,2.1109,2.1082,2.0895,2.0481,2.0067,2.0067,1.9947,1.9826,1.9933,1.9746,1.9506,1.9399,1.9279,1.9172,1.9065,1.9038,1.9038,1.9038,1.9038,1.9038,1.9038,1.9038,1.9038,1.9038,1.9132,1.9199,1.9199,1.9292,1.943,1.943,1.943,1.943,1.943,1.943,1.943,1.943,1.943,1.943,1.943,1.943,1.943,1.943,1.943,1.943,1.943,1.943,1.943,1.943,1.943,1.943,0.0,1.5281,1.7636,1.8342,1.9082,1.9555,1.9048,1.8336,0.0,1.7165,1.6875,1.6622,1.638,1.6525,1.6622,1.6453,1.6827,0.0,0.0,0.0,0.0,0.0,0.0,0.0,0.0,0.0,0.0,0.0,0.0,0.0,2.2901,2.2552,2.2378,2.2352,2.2071,2.1937,2.1951,2.167,2.1588,2.1588,2.1243,2.1109,2.1109,2.1109,2.1109,0.0,0.0,0.0,0.0,2.1109,2.1109,2.1109,2.1109,2.1109,2.1109,2.1109,2.1109,2.1109,2.1109,2.1109,2.1109,2.1109,2.1109,2.1109,2.1109,2.0535,1.9893,1.9893,1.988,1.992,2.0187,2.0054,1.976,1.9492,1.9199,1.8905,1.8611,1.8544,1.8517,1.8517,1.8517,1.8531,1.8544,1.8557,1.8557,1.8557,1.8771,1.8918,1.8918,1.9145,1.9363,1.9363,1.9363,1.9363,1.9363,1.9403,1.943,1.943,1.943,1.943,1.943,1.943,1.943,1.943,1.943,1.943,1.943,1.943,1.9417,1.9332,1.9332,1.9319,1.1769,0.0,1.6165,1.7213,1.7589,1.772,0.0,1.7261,1.6948,1.6815,0.0,1.6742,1.6875,1.661,1.6694,1.766,1.7744,1.8058,1.9132,0.0,0.0,2.2693,2.2563,0.0,0.0,0.0,0.0,0.0,0.0,2.2766,2.2539,2.2245,2.1991,2.1764,2.147,2.143,2.1722,2.1363,2.1216,2.1216,2.1149,2.1109,2.1109,2.1109,2.1109,0.0,0.0,0.0,2.1109,2.1109,2.1109,2.1109,2.1109,2.1109,2.1109,2.1109,2.1109,2.1109,2.1109,2.1109,2.1109,2.1109,2.1109,2.1109,2.1109,2.0962,2.0802,2.0802,2.0641,2.0481,2.0561,2.0347,2.0107,2.004,1.98,1.9519,1.9225,1.8985,1.8824,1.8824,1.8824,1.8891,1.9118,1.9158,1.9158,1.9158,1.9025,1.8918,1.8918,1.8798,1.8691,1.8691,1.8691,1.8691,1.8691,1.9105,1.943,1.943,1.943,1.943,1.943,1.943,1.943,1.943,1.943,1.943,1.943,1.943,1.9252,1.9025,1.9025,1.8905,1.1836,1.4079,1.6567,1.6674,1.7067,1.7455,1.7455,0.0,0.0,0.0,0.0,1.6368,1.6513,1.6501,1.6706,1.7443,1.7744,0.0,0.0,0.0,0.0,0.0,0.0,0.0,0.0,0.0,0.0,0.0,0.0,2.2592,2.2432,2.2017,2.1775,2.1614,2.1269,2.1189,2.1349,2.1189,2.1109,2.1109,2.1109,2.1109,2.1109,2.1109,2.1109,0.0,0.0,0.0,2.1109,2.1109,2.1109,2.1109,2.1109,2.1109,2.1109,2.1109,2.1109,2.1109,2.1109,2.1109,2.1109,2.1109,2.1109,2.1109,2.1109,2.1109,2.1109,2.1109,2.1002,2.0869,2.0869,2.0655,2.0401,2.0267,2.0013,1.972,1.9484,1.9239,1.9132,1.9132,1.9132,1.9185,1.939,1.943,1.943,1.943,1.9345,1.9279,1.9145,1.9105,1.8985,1.8718,1.8691,1.8637,1.8504,1.8784,1.9025,1.9158,1.9158,1.9225,1.9417,1.943,1.943,1.943,1.943,1.9305,1.9158,1.9158,1.9011,1.8731,1.8731,1.8637,1.2531,1.521,1.7637,1.6442,1.6954,1.7672,1.7587,0.0,0.0,0.0,0.0,0.0,0.0,1.6477,0.0,0.0,0.0,0.0,2.0286,2.1331,0.0,0.0,0.0,0.0,0.0,0.0,0.0,0.0,0.0,2.2405,2.2352,2.1844,2.1601,2.1547,2.1243,2.1109,2.1109,2.1109,2.1109,2.1109,2.1109,2.1109,2.1109,2.1109,2.1109,2.1109,0.0,0.0,2.1109,2.1109,2.1109,2.1109,2.1109,2.1109,2.1109,2.1109,2.1109,2.1109,2.1109,2.1109,2.1109,2.1109,2.1109,2.1109,2.1109,2.1109,2.1109,2.1109,2.1109,2.1109,2.1109,2.0922,2.0681,2.0428,2.0147,1.9853,1.9559,1.9466,1.9439,1.9439,1.9439,1.9452,1.9492,1.9506,1.9506,1.9506,1.9666,1.9706,1.9466,1.9613,1.9533,1.8985,1.8878,1.8744,1.845,1.8384,1.8477,1.8771,1.8838,1.8971,1.9225,1.9239,1.9239,1.9239,1.9239,1.9105,1.8865,1.8865,1.8704,1.8424,1.8424,1.8397,1.3241,1.5601,1.7612,1.6247,1.6406,1.6754,1.6296,0.0,0.0,0.0,0.0,0.0,0.0,0.0,1.7406,0.0,0.0,1.9596,0.0,0.0,2.1139,0.0,0.0,0.0,0.0,0.0,0.0,0.0,0.0,2.2311,2.2071,2.1802,2.1443,2.1189,2.1136,2.1109,2.1109,2.1109,2.1109,2.1109,2.1109,2.1109,2.1109,2.1109,2.1109,2.1109,0.0,2.1109,2.1109,2.1109,2.1109,2.1109,2.1109,2.1109,2.1109,2.1109,2.1109,2.1109,2.1109,2.1109,2.1109,2.1109,2.1109,2.1109,2.1109,2.1109,2.1109,2.1109,2.1109,2.1109,2.1109,2.1082,2.1029,2.0989,2.0748,2.0454,2.016,1.9907,1.9733,1.9733,1.9733,1.9813,2.0054,2.0094,2.0094,2.0094,1.9933,1.9786,1.9733,1.9559,1.9305,1.8958,1.8704,1.8437,1.8089,1.7876,1.7849,1.8102,1.8424,1.8584,1.8624,1.8624,1.8624,1.8624,1.8624,1.8597,1.8557,1.8557,1.841,1.8062,1.8062,1.7969,1.2655,1.4588,1.6322,1.6311,1.7056,1.7672,1.7274,0.0,0.0,0.0,0.0,0.0,0.0,0.0,1.8336,1.9531,0.0,2.0243,2.0617,2.0995,2.1291,0.0,0.0,0.0,0.0,0.0,0.0,0.0,0.0,0.0,2.1829,2.147,2.1256,2.1109,2.1109,2.1109,2.1109,2.1109,2.1109,2.1109,2.1109,2.1109,2.1109,2.1109,2.1109,2.1109,0.0,2.1109,2.1109,2.1109,2.1109,2.1109,2.1109,2.1109,2.1109,2.1109,2.1109,2.1109,2.1109,2.1109,2.1109,2.1109,2.1109,2.1109,2.1109,2.1109,2.1109,2.1109,2.1109,2.1109,2.1109,2.1109,2.1109,2.1109,2.1002,2.0869,2.0735,2.0601,2.0508,2.0508,2.0508,2.0548,2.0681,2.0708,2.0708,2.0708,2.0588,2.0454,2.0294,2.016,1.9907,1.9452,1.9145,1.8838,1.8488,1.825,1.8063,1.7995,1.833,1.849,1.849,1.849,1.849,1.849,1.849,1.841,1.825,1.825,1.809,1.7796,1.7796,1.7716,1.2404,1.3907,1.5375,1.6651,1.7599,1.8215,1.8203,0.0,0.0,0.0,0.0,0.0,0.0,1.842,0.0,2.0134,2.0496,2.069,2.075,2.1163,2.141,2.1192,2.1989,0.0,0.0,0.0,0.0,0.0,0.0,0.0,2.1628,2.1269,2.1109,2.1109,2.1109,2.1109,2.1109,2.1109,2.1109,2.1109,2.1109,2.1109,2.1109,2.1109,2.1109,2.1109,2.1042,2.1042,2.1109,2.1042,2.1042,2.1109,2.1109,2.1109,2.1109,2.1109,2.1109,2.1109,2.1109,2.1109,2.1109,2.1109,2.1109,2.1109,2.1109,2.1109,2.1109,2.1109,2.1109,2.1109,2.1109,2.1109,2.1109,2.1109,2.1109,2.1109,2.1109,2.1109,2.1109,2.1109,2.1109,2.1109,2.1109,2.1109,2.1109,2.1109,2.1109,2.1029,2.0802,2.0775,2.0575,2.0054,1.9746,1.9426,1.9065,1.8758,1.849,1.8209,1.8263,1.8277,1.8277,1.8277,1.8277,1.8277,1.8277,1.817,1.7889,1.7889,1.7809,1.7582,1.7662,1.7689,1.3463,1.4608,1.5696,1.7363,1.731,0.0,1.7744,1.7503,0.0,1.8082,0.0,0.0,0.0,1.9253,1.9905,2.0231,2.0496,2.082,2.1074,0.0,2.0856,2.1074,2.159,0.0,0.0,0.0,0.0,0.0,0.0,0.0,2.1614,2.1269,2.1109,2.1109,2.1109,2.1109,2.1109,2.1109,2.1109,2.1109,2.1109,2.1109,2.1109,2.1109,2.1109,2.1096,2.0828,2.0855,2.1082,2.0815,2.0869,2.1109,2.1109,2.1109,2.1109,2.1109,2.1109,2.1109,2.1109,2.1109,2.1109,2.1109,2.1109,2.1109,2.1109,2.1109,2.1109,2.1109,2.1109,2.1109,2.1109,2.1109,2.1109,2.1109,2.1109,2.1109,2.1109,2.1109,2.1109,2.1109,2.1109,2.1109,2.1109,2.1109,2.1109,2.1109,2.1109,2.1096,2.1082,2.1082,2.0962,2.0641,2.0347,1.9947,1.9386,1.9065,1.8878,1.8865,1.8103,1.7649,1.7649,1.7649,1.7649,1.7649,1.7649,1.7635,1.7609,1.7609,1.7609,1.7595,1.7876,1.7955,1.256,1.3576,1.4547,1.6821,1.7286,0.0,0.0,1.8348,1.8505,1.9157,1.9205,0.0,0.0,0.0,2.0219,2.0484,2.0738,2.1013,2.1122,2.0904,2.0771,2.088,0.0,0.0,0.0,0.0,0.0,0.0,0.0,0.0,2.1283,2.1176,2.1109,2.1109,2.1109,2.1109,2.1109,2.1109,2.1109,2.1109,2.1109,2.1109,2.1109,2.1109,2.1015,2.0842,2.0722,2.0735,2.0828,2.0722,2.0842,2.1109,2.1109,2.1109,2.1109,2.1109,2.1109,2.1109,2.1109,2.1109,2.1109,2.1109,2.1109,2.1109,2.1109,2.1109,2.1109,2.1109,2.1109,2.1109,2.1109,2.1109,2.1109,2.1109,2.1109,2.1109,2.1109,2.1109,2.1109,2.1109,2.1109,2.1109,2.1109,2.1109,2.1042,2.0869,2.0842,2.0842,2.0842,2.0842,2.0869,2.0935,2.0681,2.0347,1.9947,1.9639,1.9466,1.9466,1.8637,1.8143,1.8143,1.8143,1.8143,1.8143,1.8143,1.8143,1.8143,1.8143,1.8143,1.8143,1.8263,1.833,1.2209,1.2645,1.3231,1.631,0.0,0.0,1.8527,1.8951,0.0,0.0,0.0,0.0,0.0,0.0,0.0,0.0,2.0714,2.0931,2.0931,2.0856,0.0,0.0,0.0,0.0,0.0,0.0,0.0,0.0,0.0,0.0,0.0,2.1109,2.1109,2.1109,2.1109,2.1109,2.1109,2.1109,2.1109,2.1109,2.1109,2.1109,2.1109,2.1109,2.1002,2.0802,2.0615,2.0641,2.0802,2.0615,2.0762,2.1109,2.1109,2.1109,2.1109,2.1109,2.1109,2.1109,2.1109,2.1109,2.1109,2.1109,2.1109,2.1109,2.1109,2.1109,2.1109,2.1109,2.1109,2.1109,2.1109,2.1109,2.1109,2.1109,2.1109,2.1082,2.0989,2.0975,2.0949,2.0855,2.0828,2.0828,2.0828,2.0828,2.0762,2.0561,2.0535,2.0535,2.0535,2.0535,2.0655,2.0949,2.0882,2.0735,2.0521,2.0241,2.008,2.008,1.9426,1.8958,1.8771,1.8677,1.8624,1.8624,1.8544,1.849,1.849,1.849,1.849,1.849,1.8584,1.8624,1.2646,1.2135,1.1933,0.0,0.0,0.0,0.0,0.0,0.0,0.0,0.0,0.0,0.0,0.0,0.0,1.9893,2.0327,2.0665,0.0,0.0,0.0,0.0,0.0,0.0,0.0,0.0,0.0,0.0,0.0,0.0,0.0,2.1109,2.1109,2.1109,2.1109,2.1109,2.1109,2.1109,2.1109,2.1109,2.1109,2.1109,2.1109,2.1109,2.1109,2.1069,2.0494,2.0561,2.1056,2.0481,2.0588,2.1109,2.1109,2.1109,2.1109,2.1109,2.1109,2.1109,2.1109,2.1109,2.1109,2.1109,2.1109,2.1109,2.1109,2.1109,2.1109,2.1109,2.1109,2.1109,2.1109,2.1109,2.1109,2.1109,2.1109,2.1029,2.0735,2.0681,2.0601,2.0294,2.018,2.018,2.0241,2.018,2.018,2.0227,2.0227,2.0227,2.0227,2.0167,2.0347,2.0641,2.0922,2.1096,2.1096,2.0842,2.0681,2.0681,2.0401,1.9987,1.9457,1.9092,1.8931,1.8931,1.8651,1.8504,1.8504,1.8504,1.8504,1.8517,1.8798,1.8931,1.1077,1.2028,0.0,1.5311,0.0,0.0,0.0,0.0,0.0,0.0,0.0,0.0,0.0,0.0,0.0,2.0158,2.0448,2.0665,0.0,0.0,0.0,0.0,0.0,0.0,0.0,0.0,0.0,0.0,0.0,0.0,0.0,2.1109,2.1109,2.1109,2.1109,2.1109,2.1109,2.1109,2.1109,2.1109,2.1109,2.1109,2.1109,2.1109,2.1002,2.0788,2.0401,2.0454,2.0802,2.0842,2.0949,2.1109,2.1109,2.1109,2.1109,2.1109,2.1109,2.1109,2.1109,2.1109,2.1109,2.1109,2.1109,2.1109,2.1109,2.1109,2.1109,2.1109,2.1109,2.1162,2.1363,2.1269,2.1109,2.1109,2.0949,2.0842,2.0949,2.0975,2.0949,2.0869,2.1015,2.1029,2.0615,2.0548,2.0401,1.9987,1.9933,1.9933,1.9933,2.0107,2.0267,2.0361,2.0441,2.0494,2.0494,2.0601,2.0681,2.0681,2.0788,2.0588,2.0,1.9893,1.978,1.978,1.976,1.972,1.972,1.972,1.972,1.972,1.9599,1.9546,1.1318,1.2227,0.0,1.6001,1.7437,1.8483,1.9586,0.0,0.0,0.0,0.0,0.0,0.0,0.0,0.0,2.0279,2.0496,2.0665,0.0,0.0,0.0,0.0,0.0,0.0,0.0,0.0,0.0,0.0,0.0,0.0,0.0,2.1109,2.1109,2.1109,2.1109,2.1109,2.1109,2.1109,2.1109,2.1109,2.1109,2.1109,2.1109,2.1109,2.1015,2.0842,2.0655,2.0615,2.0695,2.0989,2.1109,2.1109,2.1109,2.1109,2.1109,2.1109,2.1109,2.1109,2.1109,2.1109,2.1109,2.1109,2.1109,2.1109,2.1109,2.1109,2.1109,2.1109,2.1189,2.1323,2.1574,2.151,2.1456,2.1456,2.1229,2.1069,2.1243,2.1283,2.1256,2.1136,2.1256,2.1229,2.0762,2.0681,2.0521,2.004,1.9867,1.976,1.9639,1.988,2.0054,2.0054,2.016,2.0167,2.0167,2.0401,2.0494,2.0494,2.0775,2.0775,2.0428,2.0414,2.0414,2.0414,2.0294,2.0167,2.0167,2.0167,2.0167,2.0227,2.0054,1.9907,1.2316,0.0,0.0,1.7281,1.7788,0.0,1.9872,0.0,2.0665,0.0,0.0,0.0,0.0,0.0,2.0315,2.0315,0.0,0.0,0.0,0.0,0.0,0.0,0.0,0.0,0.0,0.0,0.0,0.0,0.0,0.0,0.0,2.1109,2.1109,2.1109,2.1109,2.1109,2.1109,2.1109,2.1109,2.1109,2.1109,2.1109,2.1109,2.1109,2.1096,2.1069,2.1096,2.0949,2.0695,2.0989,2.1109,2.1109,2.1109,2.1109,2.1109,2.1109,2.1109,2.1109,2.1109,2.1109,2.1109,2.1109,2.1109,2.1109,2.1109,2.1109,2.1122,2.1149,2.1349,2.1628,2.1681,2.1804,2.2004,2.2058,2.1869,2.1628,2.1655,2.1655,2.1574,2.1243,2.1216,2.1122,2.0815,2.0762,2.0641,2.0281,1.9987,1.9693,1.9399,1.9599,1.976,1.976,2.0,2.0147,2.0147,2.0174,2.0127,2.0127,2.0468,2.0641,2.0641,2.0681,2.0722,2.0722,2.0454,2.0247,2.0247,2.0247,2.0247,2.0247,2.0281,2.0134,0.0,1.1603,0.0,0.0,0.0,0.0,0.0,0.0,0.0,0.0,0.0,0.0,0.0,0.0,0.0,0.0,0.0,0.0,0.0,0.0,0.0,0.0,0.0,0.0,0.0,0.0,0.0,0.0,0.0,0.0,2.1109,2.1109,2.1109,2.1109,2.1109,2.1109,2.1109,2.1109,2.1109,2.1109,2.1109,2.1109,2.1109,2.1109,2.0989,2.0775,2.1015,2.0949,2.0695,2.0989,2.1109,2.1109,2.1109,2.1109,2.1109,2.1109,2.1109,2.1109,2.1109,2.1109,2.1109,2.1109,2.1109,2.1109,2.1109,2.1109,2.1162,2.139,2.1574,2.1722,2.2111,2.2111,2.2098,2.2565,2.2164,2.1681,2.1844,2.1897,2.1871,2.1804,2.1977,2.1977,2.1521,2.1427,2.1109,2.0347,1.9987,1.9693,1.9399,1.9426,1.9466,1.9466,1.9519,1.9559,1.9559,1.976,1.9893,1.9893,2.016,2.0334,2.0334,2.0775,2.1015,2.1015,2.0949,2.0922,2.0922,2.0922,2.0922,2.0922,2.0695,2.0548,0.0,0.0,0.0,0.0,0.0,0.0,0.0,0.0,0.0,0.0,0.0,0.0,0.0,0.0,0.0,0.0,0.0,0.0,0.0,0.0,0.0,0.0,0.0,0.0,0.0,0.0,0.0,0.0,0.0,2.1109,2.1109,2.0975,2.0962,2.1109,2.0975,2.0962,2.1109,2.1109,2.1109,2.1109,2.1109,2.1109,2.1109,2.1109,2.1029,2.0895,2.1042,2.1029,2.0895,2.1042,2.1109,2.1109,2.1109,2.1109,2.1109,2.1109,2.1109,2.1109,2.1109,2.0982,2.0856,2.0856,2.0729,2.0666,2.0792,2.0856,2.0985,2.147,2.1722,2.1857,2.2298,2.2405,2.2485,2.2861,2.2405,2.2044,2.2338,2.2405,2.2405,2.2405,2.2525,2.2485,2.2044,2.1857,2.151,2.0762,2.0521,2.0267,1.984,1.9786,1.9786,1.9786,1.9786,1.972,1.9586,1.972,1.9746,1.9599,1.9867,2.0027,2.0027,2.0454,2.0762,2.0895,2.1042,2.1109,2.1109,2.1109,2.1109,2.1109,2.0949,2.0815,0.0,0.0,0.0,0.0,0.0,0.0,0.0,0.0,0.0,0.0,0.0,0.0,0.0,0.0,0.0,0.0,0.0,0.0,0.0,0.0,0.0,0.0,0.0,0.0,0.0,0.0,0.0,0.0,0.0,2.1082,2.1042,2.0802,2.0788,2.1029,2.0802,2.0815,2.1109,2.1109,2.1109,2.1109,2.1109,2.1109,2.1109,2.1109,2.1109,2.1109,2.1109,2.1109,2.1109,2.1109,2.1109,2.1109,2.1109,2.1109,2.1109,2.1109,2.1109,2.1109,2.1046,2.0856,2.0602,2.0552,2.0361,2.017,2.0488,2.0641,2.0809,2.1485,2.1844,2.2124,2.2418,2.2672,2.2928,2.2928,2.2672,2.2565,2.2806,2.2928,2.2928,2.2928,2.2928,2.2779,2.2539,2.2258,2.1884,2.1336,2.1176,2.0922,2.0374,2.0267,2.0167,2.0167,2.0167,2.0134,1.9893,1.9826,1.9693,1.9452,1.9626,1.972,1.972,2.0,2.0281,2.0521,2.0855,2.1056,2.1109,2.1109,2.1109,2.1109,2.1109,2.0975,0.0,0.0,0.0,0.0,0.0,0.0,0.0,0.0,0.0,0.0,0.0,0.0,0.0,0.0,0.0,0.0,0.0,0.0,0.0,0.0,0.0,0.0,0.0,0.0,0.0,0.0,0.0,0.0,2.0919,2.1002,2.0748,2.0695,2.0695,2.0735,2.0695,2.0815,2.1109,2.1109,2.1109,2.1109,2.1109,2.1109,2.1109,2.1109,2.1109,2.1109,2.1109,2.1109,2.1109,2.1109,2.1109,2.1109,2.1109,2.1109,2.1109,2.1109,2.1109,2.1046,2.0792,2.0615,2.0552,2.0234,2.0106,2.017,2.0488,2.0785,2.1097,2.1778,2.2138,2.2432,2.2726,2.2901,2.2928,2.2928,2.2901,2.2887,2.2928,2.2928,2.2928,2.2928,2.2928,2.2914,2.2806,2.2552,2.2245,2.1924,2.143,2.0989,2.0655,2.0388,2.0167,2.0167,2.0167,2.0214,2.0174,1.9947,1.9786,1.9746,1.9546,1.9426,1.9426,1.9706,1.988,1.992,2.0454,2.0855,2.1109,2.1109,2.1109,2.1109,2.1109,2.1082,0.0,0.0,0.0,0.0,0.0,0.0,0.0,0.0,0.0,0.0,0.0,0.0,0.0,0.0,0.0,0.0,0.0,0.0,0.0,0.0,0.0,0.0,0.0,0.0,0.0,0.0,0.0,0.0,2.0919,2.0989,2.0695,2.0521,2.0428,2.0428,2.0267,2.0401,2.0869,2.0869,2.0949,2.1109,2.1109,2.1109,2.1109,2.1109,2.1109,2.1109,2.1109,2.1109,2.1109,2.1109,2.1109,2.1109,2.1109,2.1109,2.1109,2.1109,2.0982,2.0792,2.0666,2.0348,2.003,1.9839,1.9711,1.966,2.017,2.049,2.0903,2.1766,2.2191,2.2485,2.2779,2.2928,2.2928,2.2928,2.2928,2.2928,2.2928,2.2928,2.2928,2.2928,2.2928,2.2928,2.2928,2.2752,2.2565,2.2271,2.2004,2.1683,2.1293,2.1056,2.0909,2.0735,2.0722,2.0655,2.0494,2.0361,2.0214,2.0054,1.9773,1.9613,1.9613,1.9573,1.9639,1.98,2.0374,2.0735,2.0869,2.1029,2.1109,2.1109,2.1109,2.1109,0.0,0.0,0.0,0.0,0.0,0.0,0.0,0.0,0.0,0.0,0.0,0.0,0.0,0.0,0.0,0.0,0.0,0.0,0.0,0.0,0.0,0.0,0.0,0.0,0.0,0.0,0.0,0.0,2.0687,2.0779,2.0481,2.0241,2.012,2.012,1.9907,2.008,2.0668,2.0748,2.0895,2.1109,2.1109,2.1109,2.1109,2.1109,2.1109,2.1109,2.1109,2.1109,2.1109,2.1109,2.1109,2.1109,2.1109,2.1109,2.1109,2.1109,2.0919,2.0602,2.0488,2.0094,1.9584,1.952,1.9328,1.9212,1.9875,2.0347,2.081,2.1687,2.2245,2.2579,2.2874,2.2928,2.2928,2.2928,2.2928,2.2928,2.2928,2.2928,2.2928,2.2928,2.2928,2.2928,2.2928,2.2928,2.2792,2.2565,2.2472,2.2258,2.183,2.171,2.155,2.1256,2.1216,2.1109,2.0815,2.0722,2.0575,2.0361,2.0067,1.988,1.98,1.9586,1.9546,1.9693,2.0187,2.0521,2.0681,2.0895,2.1042,2.1109,2.1109,2.1109,0.0,0.0,0.0,0.0,0.0,0.0,0.0,0.0,0.0,0.0,0.0,0.0,0.0,0.0,0.0,0.0,0.0,0.0,0.0,0.0,0.0,0.0,0.0,0.0,0.0,0.0,0.0,0.0,2.0086,2.0148,1.988,1.9826,1.9826,1.9826,1.9813,2.008,2.0668,2.0949,2.1096,2.1109,2.1109,2.1109,2.1109,2.1109,2.1109,2.1109,2.1109,2.1109,2.1109,2.1109,2.1109,2.1109,2.1109,2.1109,2.1109,2.1109,2.0919,2.0552,2.0234,1.9903,1.9571,1.92,1.9136,1.9185,1.9841,2.0441,2.1104,2.1722,2.2347,2.2914,2.2928,2.2928,2.2928,2.2928,2.2928,2.2928,2.2928,2.2928,2.2928,2.2928,2.2928,2.2928,2.2928,2.2928,2.2859,2.2914,2.2605,2.2405,2.2378,2.2138,2.1857,2.1628,2.1601,2.1403,2.1109,2.0842,2.0668,2.0655,2.0374,2.0094,1.9813,1.9786,1.9653,1.9457,1.9693,2.012,2.0681,2.0695,2.0842,2.1109,2.1109,2.1109,0.0,0.0,0.0,0.0,0.0,0.0,0.0,0.0,0.0,0.0,0.0,0.0,0.0,0.0,0.0,0.0,0.0,0.0,0.0,0.0,0.0,0.0,0.0,0.0,0.0,0.0,0.0,0.0,0.0,1.9924,1.9826,1.98,1.972,1.9533,1.9519,1.9706,2.0107,2.0588,2.0828,2.0842,2.1015,2.1109,2.1109,2.1109,2.1109,2.1109,2.1109,2.1109,2.1109,2.1109,2.1109,2.1109,2.1109,2.1109,2.1109,2.1109,2.0729,2.0234,2.017,1.9724,1.9264,1.9136,1.9193,1.9415,1.9838,2.058,2.136,2.1787,2.2361,2.2928,2.2928,2.2928,2.2928,2.2928,2.2928,2.2928,2.2928,2.2928,2.2928,2.2928,2.2928,2.2928,2.2928,2.2928,2.2928,2.2928,2.2766,2.2632,2.2445,2.2325,2.2084,2.1668,2.1614,2.143,2.1136,2.1015,2.0949,2.0949,2.0681,2.0468,2.0361,2.0,1.9746,1.9653,1.9559,1.972,2.012,2.0494,2.0735,2.0842,2.1029,2.1109,0.8837,0.0,0.0,0.0,0.0,0.0,0.0,0.0,0.0,0.0,0.0,0.0,0.0,0.0,0.0,0.0,0.0,0.0,0.0,0.0,0.0,0.0,0.0,0.0,0.0,0.0,0.0,0.0,0.0,0.0,1.9489,1.9594,1.9559,1.943,1.9466,1.9599,1.98,2.0388,2.0681,2.0681,2.0975,2.1109,2.1109,2.1109,2.1109,2.1109,2.1109,2.1109,2.1109,2.1109,2.1109,2.1109,2.1109,2.1109,2.1109,2.0982,2.0615,2.0106,1.9979,1.9584,1.9072,1.9072,1.9253,1.9548,1.9854,2.0664,2.1446,2.1807,2.2372,2.2928,2.2928,2.2928,2.2928,2.2928,2.2928,2.2928,2.2928,2.2928,2.2928,2.2928,2.2928,2.2928,2.2928,2.2928,2.2928,2.2928,2.2928,2.2792,2.2592,2.2565,2.2378,2.1897,2.1815,2.1577,2.1283,2.1162,2.1109,2.1109,2.0922,2.0775,2.0681,2.0307,2.0,1.98,1.9613,1.9559,1.9653,2.0147,2.0428,2.0535,2.0722,2.0869,0.0,0.0,0.0,0.0,0.0,0.0,0.0,0.0,0.0,0.0,0.0,0.0,0.0,0.0,0.0,0.0,0.0,0.0,0.0,0.0,0.0,0.0,0.0,0.0,0.0,0.0,0.0,0.0,1.8746,1.8826,1.8894,1.9243,1.943,1.9372,1.9639,1.9786,1.9786,2.0374,2.0668,2.0668,2.0962,2.1109,2.1109,2.1109,2.1109,2.1109,2.1109,2.1109,2.1109,2.1109,2.1109,2.1109,2.1109,2.1109,2.1046,2.0729,2.0425,2.0043,1.9711,1.9392,1.9072,1.9072,1.9253,1.9531,1.9808,2.0612,2.1416,2.1683,2.231,2.2859,2.2928,2.2928,2.2928,2.2928,2.2928,2.2928,2.2928,2.2928,2.2928,2.2928,2.2928,2.2928,2.2928,2.2928,2.2928,2.2928,2.2928,2.2928,2.2928,2.2928,2.2752,2.2458,2.2164,2.1871,2.1641,2.1283,2.1109,2.1109,2.1109,2.0989,2.0695,2.0681,2.0401,1.9826,1.98,1.9653,1.943,1.9653,1.9947,2.0167,2.0227,2.0388,0.7112,0.0,0.0,0.0,0.0,0.0,0.0,0.0,0.0,0.0,0.0,0.0,0.0,0.0,0.0,0.0,0.0,0.0,0.0,0.0,0.0,0.0,0.0,0.0,0.0,0.0,0.0,0.0,1.8578,1.8601,1.8894,1.9243,1.9301,1.9055,1.9322,1.9492,1.9492,2.0067,2.0361,2.0361,2.0869,2.1109,2.1109,2.1109,2.1109,2.1109,2.1109,2.1109,2.1109,2.1109,2.1109,2.1109,2.1109,2.1109,2.1046,2.0729,2.0425,2.0043,1.9711,1.9392,1.9072,1.9072,1.9386,1.9784,1.9869,2.0533,2.1327,2.1678,2.2104,2.2516,2.2791,2.2928,2.2928,2.2928,2.2928,2.2928,2.2928,2.2928,2.2928,2.2928,2.2928,2.2928,2.2928,2.2928,2.2928,2.2928,2.2928,2.2928,2.2928,2.2928,2.2752,2.2458,2.2164,2.1871,2.1641,2.1283,2.1109,2.1109,2.1109,2.1069,2.0989,2.0788,2.0494,2.012,1.9907,1.9653,1.943,1.9653,1.984,1.992,2.0134,2.0281,0.0,0.0,0.0,0.0,0.0,0.0,0.0,1.2191,0.0,0.0,0.0,0.0,0.0,0.0,0.0,0.0,0.0,0.0,0.0,0.0,0.0,0.0,0.0,0.0,0.0,1.8843,1.8676,1.8704,1.8531,1.8483,1.8661,1.9127,1.9243,1.8939,1.9243,1.943,1.943,1.9947,2.0167,2.0241,2.0828,2.1109,2.1109,2.1109,2.1109,2.1109,2.1109,2.1109,2.1109,2.1109,2.1109,2.1109,2.1109,2.0982,2.0856,2.0552,2.017,1.9839,1.952,1.9264,1.9096,1.9205,1.9531,1.9905,2.0014,2.0612,2.1276,2.1703,2.2173,2.2585,2.2654,2.2791,2.2928,2.2928,2.2928,2.2928,2.2928,2.2928,2.2928,2.2928,2.2928,2.2928,2.2928,2.2928,2.2928,2.2928,2.2928,2.2928,2.2928,2.2928,2.2792,2.2619,2.2338,2.2044,2.1764,2.147,2.1243,2.1122,2.1109,2.1109,2.1109,2.0949,2.0655,2.0241,2.0067,1.9773,1.943,1.9533,1.9626,1.9626,1.992,2.0054,0.0,0.0,0.0,0.0,0.0,0.0,1.232,1.1185,1.0124,0.0,0.0,0.0,0.0,0.0,0.0,0.0,0.0,0.0,0.0,0.0,0.0,0.0,0.0,0.0,1.9072,1.8867,1.8722,1.8686,1.8496,1.8364,1.8382,1.8952,1.9185,1.8939,1.9185,1.9386,1.9412,1.996,2.0254,2.0294,2.0842,2.1109,2.1109,2.1109,2.1109,2.1109,2.1109,2.1109,2.1109,2.1109,2.1109,2.1109,2.1109,2.0919,2.0552,2.0234,1.9903,1.9571,1.92,1.9072,1.912,1.9386,1.9652,1.9941,2.0195,2.0735,2.1207,2.1622,2.2242,2.2722,2.2379,2.2585,2.2928,2.2928,2.2928,2.2928,2.2928,2.2928,2.2928,2.2928,2.2928,2.2928,2.2928,2.2928,2.2928,2.2928,2.2928,2.2928,2.2928,2.2928,2.2928,2.2928,2.2592,2.2311,2.2058,2.1802,2.1443,2.1176,2.1122,2.1109,2.1109,2.1109,2.0828,2.018,2.0174,1.988,1.943,1.943,1.943,1.943,1.9626,1.976,0.0,0.0,0.0,0.0,0.0,0.0,1.3331,1.2418,1.1809,0.0,0.0,0.0,0.0,0.0,0.0,0.0,0.0,0.0,0.0,0.0,0.0,0.0,0.0,0.0,1.9072,1.9024,1.8915,1.8698,1.8496,1.8317,1.8102,1.8428,1.8706,1.8881,1.8939,1.9232,1.972,2.0054,2.0361,2.0601,2.0949,2.1109,2.1109,2.1109,2.1109,2.1109,2.1109,2.1109,2.1109,2.1109,2.1109,2.1109,2.1109,2.0919,2.0552,2.0234,1.9903,1.9571,1.92,1.9072,1.912,1.9386,1.9652,1.9941,2.0195,2.0529,2.0873,2.122,2.1829,2.2379,2.231,2.2585,2.2928,2.2928,2.2928,2.2928,2.2928,2.2928,2.2928,2.2928,2.2928,2.2928,2.2928,2.2928,2.2928,2.2928,2.2928,2.2928,2.2928,2.2928,2.2928,2.2928,2.2592,2.2392,2.2338,2.1857,2.1588,2.1534,2.1243,2.1109,2.1109,2.1109,2.0828,2.018,1.9773,1.9479,1.943,1.943,1.943,1.943,1.9426,1.9511,0.0,0.0,0.0,1.2114,0.0,0.0,0.0,1.2477,1.2062,1.2334,0.0,0.0,0.0,0.0,0.0,0.0,0.0,0.0,0.0,0.0,0.0,0.0,0.0,0.0,1.8075,1.8676,1.8915,1.8517,1.8545,1.8394,1.7997,1.8252,1.8532,1.8881,1.9011,1.9345,1.98,2.0241,2.0535,2.0681,2.0975,2.1109,2.1109,2.1109,2.1109,2.1109,2.1109,2.1109,2.1109,2.1109,2.0982,2.0856,2.0856,2.0666,2.0297,1.9966,1.9647,1.9328,1.9136,1.9157,1.9314,1.9591,1.9857,2.0134,2.0388,2.0695,2.0943,2.0943,2.1622,2.2242,2.2104,2.2448,2.2928,2.2928,2.2928,2.2928,2.2928,2.2928,2.2928,2.2928,2.2928,2.2928,2.2928,2.2928,2.2928,2.2928,2.2928,2.2928,2.2928,2.2928,2.2928,2.2928,2.2726,2.2579,2.2432,2.2017,2.171,2.1628,2.1269,2.1109,2.1109,2.1109,2.0828,2.018,1.98,1.9506,1.943,1.943,1.943,1.943,1.943,1.943,0.0,0.0,0.0,0.0,0.0,1.3874,0.0,0.0,0.0,1.1905,0.0,0.0,0.0,0.0,0.0,0.0,0.0,0.0,0.0,0.0,0.0,0.0,0.0,0.0,1.6817,1.7834,1.8313,1.7942,1.8009,1.8057,1.7985,1.8135,1.844,1.8842,1.9122,1.9423,1.9854,2.0441,2.0708,2.0762,2.1002,2.1046,2.0982,2.1046,2.1046,2.0982,2.1046,2.1109,2.1109,2.1109,2.0919,2.0602,2.0602,2.0361,1.9979,1.9711,1.9392,1.9072,1.9072,1.9253,1.9507,1.9796,2.0098,2.0388,2.0605,2.0873,2.1081,2.0804,2.1427,2.2173,2.1897,2.2379,2.2928,2.2928,2.2928,2.2928,2.2928,2.2928,2.2928,2.2928,2.2928,2.2928,2.2928,2.2928,2.2928,2.2928,2.2928,2.2928,2.2928,2.2928,2.2928,2.2928,2.2928,2.2766,2.2525,2.2191,2.1884,2.1722,2.1309,2.1109,2.1109,2.1056,2.0802,2.0334,1.9973,1.9679,1.9511,1.9457,1.943,1.943,1.943,1.943,0.0,0.0,0.0,0.0,1.3788,0.0,0.0,0.0,1.3257,1.2958,0.0,0.0,0.0,0.0,0.0,0.0,0.0,0.0,0.0,0.0,0.0,0.0,0.0,0.0,0.0,1.6222,1.6304,1.6444,1.6056,1.6471,1.7901,1.7726,1.8,1.8771,1.8881,1.9318,2.0142,2.0518,2.0802,2.1056,2.1096,2.0919,2.0666,2.0982,2.0919,2.0666,2.0982,2.1109,2.1109,2.1109,2.0919,2.0602,2.0602,2.0221,1.9647,1.9647,1.9392,1.9072,1.9072,1.9253,1.9507,1.9796,2.0219,2.0629,2.0653,2.0735,2.0735,2.0735,2.1289,2.1829,2.1841,2.2379,2.2928,2.2928,2.2928,2.2928,2.2928,2.2928,2.2928,2.2928,2.2928,2.2928,2.2928,2.2928,2.2928,2.2928,2.2928,2.2928,2.2928,2.2928,2.2928,2.2928,2.2928,2.2846,2.2887,2.2298,2.1977,2.1937,2.1416,2.1109,2.1109,2.0869,2.0695,2.0628,2.008,1.9786,1.9746,1.9492,1.943,1.943,1.943,1.943,0.0,0.0,0.0,0.0,0.0,0.0,1.3197,0.0,1.2921,0.0,0.0,0.0,0.0,0.0,0.0,0.0,0.0,0.0,0.0,0.0,0.0,0.0,0.0,0.0,0.0,0.0,0.0,0.0,1.5649,1.6205,1.7889,1.7813,1.8054,1.8775,1.897,1.9445,2.0185,2.0467,2.08,2.1109,2.1109,2.0919,2.0602,2.0729,2.0729,2.0602,2.0539,2.0615,2.0792,2.0602,2.0284,2.003,2.003,1.9839,1.9596,1.9564,1.9431,1.9326,1.9495,1.9724,1.9977,2.0255,2.0484,2.0665,2.0665,2.0665,2.0665,2.0665,2.122,2.176,2.176,2.2379,2.2928,2.2928,2.2928,2.2928,2.2928,2.2928,2.2928,2.2928,2.2928,2.2928,2.2928,2.2928,2.2928,2.2928,2.2928,2.2928,2.2928,2.2928,2.2928,2.2928,2.2928,2.2928,2.2928,2.2472,2.2164,2.1991,2.143,2.1109,2.1109,2.0989,2.0762,2.0428,2.0347,2.0054,1.9546,1.9599,1.9533,1.943,1.943,1.943,1.0798,0.0,0.0,0.0,0.0,0.0,0.0,0.0,0.0,0.0,0.0,0.0,0.0,0.0,0.0,0.0,0.0,0.0,0.0,0.0,0.0,0.0,0.0,0.0,0.0,0.0,0.0,0.0,0.0,1.5534,1.7649,1.7813,1.8068,1.8649,1.8988,1.9525,2.0177,2.0448,2.0792,2.1109,2.1109,2.0919,2.0602,2.0602,2.0552,2.0425,2.0234,2.0234,2.0425,2.017,1.9903,1.9571,1.9571,1.9507,1.948,1.9504,1.9536,1.9572,1.9784,2.0062,2.0315,2.0581,2.0665,2.0665,2.0665,2.0665,2.0665,2.0665,2.122,2.176,2.176,2.2379,2.2928,2.2928,2.2928,2.2928,2.2928,2.2928,2.2928,2.2928,2.2928,2.2928,2.2928,2.2928,2.2928,2.2928,2.2928,2.2928,2.2928,2.2928,2.2928,2.2928,2.2928,2.2928,2.2928,2.2592,2.2298,2.2004,2.151,2.1229,2.1229,2.1149,2.0909,2.0481,2.0521,2.0241,1.9599,1.9653,1.9573,1.943,1.943,1.943,0.0,0.0,0.0,1.2563,0.0,0.0,0.0,0.0,1.345,0.0,0.0,0.0,0.0,0.0,0.0,0.0,0.0,0.0,0.0,0.0,0.0,0.0,0.0,0.0,0.0,0.0,0.0,0.0,1.2836,0.0,1.693,1.7358,1.7732,1.8325,1.8914,1.95,2.0094,2.0412,2.0792,2.1109,2.1109,2.0919,2.0602,2.0602,2.0425,2.0106,2.0106,2.0106,2.0106,2.0106,1.9903,1.9571,1.9571,1.9392,1.9172,1.9439,1.9536,1.9572,1.9784,2.0062,2.0315,2.0581,2.0665,2.0665,2.0665,2.0665,2.0665,2.0665,2.122,2.176,2.176,2.2379,2.2928,2.2928,2.2928,2.2928,2.2928,2.2928,2.2928,2.2928,2.2928,2.2928,2.2928,2.2928,2.2928,2.2928,2.2928,2.2928,2.2928,2.2928,2.2928,2.2928,2.2928,2.2928,2.2928,2.2592,2.2298,2.2004,2.1775,2.1601,2.1601,2.1256,2.1096,2.1082,2.0535,2.0167,2.014,1.9653,1.943,1.943,1.943,1.943,0.0,0.0,1.0475,1.1958,0.0,0.0,0.0,0.0,0.0,0.0,0.0,0.0,0.0,0.0,0.0,0.0,0.0,0.0,0.0,0.0,0.0,0.0,0.0,0.0,0.0,0.0,0.0,0.0,1.1435,0.0,0.0,1.6301,1.7058,1.8275,1.8665,1.9185,1.9775,2.0106,2.0425,2.0792,2.0982,2.0919,2.0602,2.0361,2.0234,2.0106,1.966,1.9584,1.9775,1.952,1.9392,1.9264,1.9264,1.9309,1.9374,1.9639,1.9748,1.9808,2.0255,2.046,2.0557,2.0641,2.0665,2.0665,2.0665,2.0665,2.0735,2.0943,2.1427,2.1829,2.2035,2.2516,2.2928,2.2928,2.2928,2.2928,2.2928,2.2928,2.2928,2.2928,2.2928,2.2928,2.2928,2.2928,2.2928,2.2928,2.2928,2.2928,2.2928,2.2928,2.2928,2.2928,2.2928,2.2928,2.2928,2.2592,2.2378,2.2271,2.1817,2.1614,2.1614,2.1269,2.1015,2.0828,2.0815,2.0521,1.9947,1.9947,1.9746,1.943,1.943,1.943,0.866,0.8884,0.0,1.1202,1.1095,0.0,1.2859,0.0,1.3685,0.0,0.0,0.0,0.0,0.0,0.0,0.0,0.0,0.0,0.0,0.0,0.0,0.0,0.0,0.0,0.0,0.0,0.901,1.0639,0.0,0.0,0.0,0.0,1.6623,1.8275,1.8638,1.9093,1.9571,1.9839,2.017,2.0602,2.0792,2.0856,2.0729,2.0297,2.0106,2.0043,1.9392,1.92,1.9392,1.9328,1.92,1.9136,1.92,1.9358,1.9507,1.9784,2.0002,2.0207,2.0557,2.0665,2.0665,2.0665,2.0665,2.0665,2.0665,2.0665,2.0735,2.1081,2.1484,2.1897,2.2242,2.2585,2.2928,2.2928,2.2928,2.2928,2.2928,2.2928,2.2928,2.2928,2.2928,2.2928,2.2928,2.2928,2.2928,2.2928,2.2928,2.2928,2.2928,2.2928,2.2928,2.2928,2.2928,2.2928,2.2928,2.2686,2.2579,2.2579,2.2031,2.171,2.171,2.1323,2.1029,2.0842,2.0909,2.0628,1.996,2.004,1.9826,1.943,1.943,1.943]}]]